[[{"header":{"parameterUnit":"m.s-1","parameterCategory":1,"la1":30.6,"la2":28.766,"lo1":-90.7593,"lo2":-88.6598,"dy":0.0162,"dx":0.0183,"nx":116,"ny":114,"refTime":"2023-11-18T06:00:00:Z","depth":0,"parameterNumber":2,"parameterNumberName":"U-component_of_WINDS"},"data":[0.0,0.0,0.0,0.0,0.0,0.0,0.0,0.0,0.0,0.0,0.0,0.0,0.0,0.0,0.0,0.0,0.0,0.0,0.0,0.0,0.0,0.0,0.0,0.0,0.0,0.0,0.0,0.0,0.0,0.0,0.0,0.0,0.0,0.0,0.0,0.0,0.0,0.0,0.0,0.0,0.0,0.0,0.0,0.0,0.0,0.0,0.0,0.0,0.0,0.0,0.0,0.0,0.0,0.0,0.0,0.0,0.0,0.0,0.0,0.0,0.0,0.0,0.0,0.0,0.0,0.0,0.0,0.0,0.0,0.0,0.0,0.0,0.0,0.0,0.0,0.0,0.0,0.0,0.0,0.0,0.0,0.0,0.0,0.0,0.0,0.0,0.0,0.0,0.0,0.0,0.0,0.0,0.0,0.0,0.0,0.0,0.0,0.0,0.0,0.0,0.0,0.0,0.0,0.0,0.0,0.0,0.0,0.0,0.0,0.0,0.0,0.0,0.0,0.0,0.0,0.0,0.0,0.0,0.0,0.0,0.0,0.0,0.0,0.0,0.0,0.0,0.0,0.0,0.0,0.0,0.0,0.0,0.0,0.0,0.0,0.0,0.0,0.0,0.0,0.0,0.0,0.0,0.0,0.0,0.0,0.0,0.0,0.0,0.0,0.0,0.0,0.0,0.0,0.0,0.0,0.0,0.0,0.0,0.0,0.0,0.0,0.0,0.0,0.0,0.0,0.0,0.0,0.0,0.0,0.0,0.0,0.0,0.0,0.0,0.0,0.0,0.0,0.0,0.0,0.0,0.0,0.0,0.0,0.0,0.0,0.0,0.0,0.0,0.0,0.0,0.0,0.0,0.0,0.0,0.0,0.0,0.0,0.0,0.0,0.0,0.0,0.0,0.0,0.0,0.0,0.0,0.0,0.0,0.0,0.0,0.0,0.0,0.0,0.0,0.0,0.0,0.0,0.0,0.0,0.0,0.0,0.0,0.0,0.0,0.0,0.0,0.0,0.0,0.0,0.0,0.0,0.0,0.0,0.0,0.0,0.0,0.0,0.0,0.0,0.0,0.0,0.0,0.0,0.0,0.0,0.0,0.0,0.0,0.0,0.0,0.0,0.0,0.0,0.0,0.0,0.0,0.0,0.0,0.0,0.0,0.0,0.0,0.0,0.0,0.0,0.0,0.0,0.0,0.0,0.0,0.0,0.0,0.0,0.0,0.0,0.0,0.0,0.0,0.0,0.0,0.0,0.0,0.0,0.0,0.0,0.0,0.0,0.0,0.0,0.0,0.0,0.0,0.0,0.0,0.0,0.0,0.0,0.0,0.0,0.0,0.0,0.0,0.0,0.0,0.0,0.0,0.0,0.0,0.0,0.0,0.0,0.0,0.0,0.0,0.0,0.0,0.0,0.0,0.0,0.0,0.0,0.0,0.0,0.0,0.0,0.0,0.0,0.0,0.0,0.0,0.0,0.0,0.0,0.0,0.0,0.0,0.0,0.0,0.0,0.0,0.0,0.0,0.0,0.0,0.0,0.0,0.0,0.0,0.0,0.0,0.0,0.0,0.0,0.0,0.0,0.0,0.0,0.0,0.0,0.0,0.0,0.0,0.0,0.0,0.0,0.0,0.0,0.0,0.0,0.0,0.0,0.0,0.0,0.0,0.0,0.0,0.0,0.0,0.0,0.0,0.0,0.0,0.0,0.0,0.0,0.0,0.0,0.0,0.0,0.0,0.0,0.0,0.0,0.0,0.0,0.0,0.0,0.0,0.0,0.0,0.0,0.0,0.0,0.0,0.0,0.0,0.0,0.0,0.0,0.0,0.0,0.0,0.0,0.0,0.0,0.0,0.0,0.0,0.0,0.0,0.0,0.0,0.0,0.0,0.0,0.0,0.0,0.0,0.0,0.0,0.0,0.0,0.0,0.0,0.0,0.0,0.0,0.0,0.0,0.0,0.0,0.0,0.0,0.0,0.0,0.0,0.0,0.0,0.0,0.0,0.0,0.0,0.0,0.0,0.0,0.0,0.0,0.0,0.0,0.0,0.0,0.0,0.0,0.0,0.0,0.0,0.0,0.0,0.0,0.0,0.0,0.0,0.0,0.0,0.0,0.0,0.0,0.0,0.0,0.0,0.0,0.0,0.0,0.0,0.0,0.0,0.0,0.0,0.0,0.0,0.0,0.0,0.0,0.0,0.0,0.0,0.0,0.0,0.0,0.0,0.0,0.0,0.0,0.0,0.0,0.0,0.0,0.0,0.0,0.0,0.0,0.0,0.0,0.0,0.0,0.0,0.0,0.0,0.0,0.0,0.0,0.0,0.0,0.0,0.0,0.0,0.0,0.0,0.0,0.0,0.0,0.0,0.0,0.0,0.0,0.0,0.0,0.0,0.0,0.0,0.0,0.0,0.0,0.0,0.0,0.0,0.0,0.0,0.0,0.0,0.0,0.0,0.0,0.0,0.0,0.0,0.0,0.0,0.0,0.0,0.0,0.0,0.0,0.0,0.0,0.0,0.0,0.0,0.0,0.0,0.0,0.0,0.0,0.0,0.0,0.0,0.0,0.0,0.0,0.0,0.0,0.0,0.0,0.0,0.0,0.0,0.0,0.0,0.0,0.0,0.0,0.0,0.0,0.0,0.0,0.0,0.0,0.0,0.0,0.0,0.0,0.0,0.0,0.0,0.0,0.0,0.0,0.0,0.0,0.0,0.0,0.0,0.0,0.0,0.0,0.0,0.0,0.0,0.0,0.0,0.0,0.0,0.0,0.0,0.0,0.0,0.0,0.0,0.0,0.0,0.0,0.0,0.0,0.0,0.0,0.0,0.0,0.0,0.0,0.0,0.0,0.0,0.0,0.0,0.0,0.0,0.0,0.0,0.0,0.0,0.0,0.0,0.0,0.0,0.0,0.0,0.0,0.0,0.0,0.0,0.0,0.0,0.0,0.0,0.0,0.0,0.0,0.0,0.0,0.0,0.0,0.0,0.0,0.0,0.0,0.0,0.0,0.0,0.0,0.0,0.0,0.0,0.0,0.0,0.0,0.0,0.0,0.0,0.0,0.0,0.0,0.0,0.0,0.0,0.0,0.0,0.0,0.0,0.0,0.0,0.0,0.0,0.0,0.0,0.0,0.0,0.0,0.0,0.0,0.0,0.0,0.0,0.0,0.0,0.0,0.0,0.0,0.0,0.0,0.0,0.0,0.0,0.0,0.0,0.0,0.0,0.0,0.0,0.0,0.0,0.0,0.0,0.0,0.0,0.0,0.0,0.0,0.0,0.0,0.0,0.0,0.0,0.0,0.0,0.0,0.0,0.0,0.0,0.0,0.0,0.0,0.0,0.0,0.0,0.0,0.0,0.0,0.0,0.0,0.0,0.0,0.0,0.0,0.0,0.0,0.0,0.0,0.0,0.0,0.0,0.0,0.0,0.0,0.0,0.0,0.0,0.0,0.0,0.0,0.0,0.0,0.0,0.0,0.0,0.0,0.0,0.0,0.0,0.0,0.0,0.0,0.0,0.0,0.0,0.0,0.0,0.0,0.0,0.0,0.0,0.0,0.0,0.0,0.0,0.0,0.0,0.0,0.0,0.0,0.0,0.0,0.0,0.0,0.0,0.0,0.0,0.0,0.0,0.0,0.0,0.0,0.0,0.0,0.0,0.0,0.0,0.0,0.0,0.0,0.0,0.0,0.0,0.0,0.0,0.0,0.0,0.0,0.0,0.0,0.0,0.0,0.0,0.0,0.0,0.0,0.0,0.0,0.0,0.0,0.0,0.0,0.0,0.0,0.0,0.0,0.0,0.0,0.0,0.0,0.0,0.0,0.0,0.0,0.0,0.0,0.0,0.0,0.0,0.0,0.0,0.0,0.0,0.0,0.0,0.0,0.0,0.0,0.0,0.0,0.0,0.0,0.0,0.0,0.0,0.0,0.0,0.0,0.0,0.0,0.0,0.0,0.0,0.0,0.0,0.0,0.0,0.0,0.0,0.0,0.0,0.0,0.0,0.0,0.0,0.0,0.0,0.0,0.0,0.0,0.0,0.0,0.0,0.0,0.0,0.0,0.0,0.0,0.0,0.0,0.0,0.0,0.0,0.0,0.0,0.0,0.0,0.0,0.0,0.0,0.0,0.0,0.0,0.0,0.0,0.0,0.0,0.0,0.0,0.0,0.0,0.0,0.0,0.0,0.0,0.0,0.0,0.0,0.0,0.0,0.0,0.0,0.0,0.0,0.0,0.0,0.0,0.0,0.0,0.0,0.0,0.0,0.0,0.0,0.0,0.0,0.0,0.0,0.0,0.0,0.0,0.0,0.0,0.0,0.0,0.0,0.0,0.0,0.0,0.0,0.0,0.0,0.0,0.0,0.0,0.0,0.0,0.0,0.0,0.0,0.0,0.0,0.0,0.0,0.0,0.0,0.0,0.0,0.0,0.0,0.0,0.0,0.0,0.0,0.0,0.0,0.0,0.0,0.0,0.0,0.0,0.0,0.0,0.0,0.0,0.0,0.0,0.0,0.0,0.0,0.0,0.0,0.0,0.0,0.0,0.0,0.0,0.0,0.0,0.0,0.0,0.0,0.0,0.0,0.0,0.0,0.0,0.0,0.0,0.0,0.0,0.0,0.0,0.0,0.0,0.0,0.0,0.0,0.0,0.0,0.0,0.0,0.0,0.0,0.0,0.0,0.0,0.0,0.0,0.0,0.0,0.0,0.0,0.0,0.0,0.0,0.0,0.0,0.0,0.0,0.0,0.0,0.0,0.0,0.0,0.0,0.0,0.0,0.0,0.0,0.0,0.0,0.0,0.0,0.0,0.0,0.0,0.0,0.0,0.0,0.0,0.0,0.0,0.0,0.0,0.0,0.0,0.0,0.0,0.0,0.0,0.0,0.0,0.0,0.0,0.0,0.0,0.0,0.0,0.0,0.0,0.0,0.0,0.0,0.0,0.0,0.0,0.0,0.0,0.0,0.0,0.0,0.0,0.0,0.0,0.0,0.0,0.0,0.0,0.0,0.0,0.0,0.0,0.0,0.0,0.0,0.0,0.0,0.0,0.0,0.0,0.0,0.0,0.0,0.0,0.0,0.0,0.0,0.0,0.0,0.0,0.0,0.0,0.0,0.0,0.0,0.0,0.0,0.0,0.0,0.0,0.0,0.0,0.0,0.0,0.0,0.0,0.0,0.0,0.0,0.0,0.0,0.0,0.0,0.0,0.0,0.0,0.0,0.0,0.0,0.0,0.0,0.0,0.0,0.0,0.0,0.0,0.0,0.0,0.0,0.0,0.0,0.0,0.0,0.0,0.0,0.0,0.0,0.0,0.0,0.0,0.0,0.0,0.0,0.0,0.0,0.0,0.0,0.0,0.0,0.0,0.0,0.0,0.0,0.0,0.0,0.0,0.0,0.0,0.0,0.0,0.0,0.0,0.0,0.0,0.0,0.0,0.0,0.0,0.0,0.0,0.0,0.0,0.0,0.0,0.0,0.0,0.0,0.0,0.0,0.0,0.0,0.0,0.0,0.0,0.0,0.0,0.0,0.0,0.0,0.0,0.0,0.0,0.0,0.0,0.0,0.0,0.0,0.0,0.0,0.0,0.0,0.0,0.0,0.0,0.0,0.0,0.0,0.0,0.0,0.0,0.0,0.0,0.0,0.0,0.0,0.0,0.0,0.0,0.0,0.0,0.0,0.0,0.0,0.0,0.0,0.0,0.0,0.0,0.0,0.0,0.0,0.0,0.0,0.0,0.0,0.0,0.0,0.0,0.0,0.0,0.0,0.0,0.0,0.0,0.0,0.0,0.0,0.0,0.0,0.0,0.0,0.0,0.0,0.0,0.0,0.0,0.0,0.0,0.0,0.0,0.0,0.0,0.0,0.0,0.0,0.0,0.0,0.0,0.0,0.0,0.0,0.0,0.0,0.0,0.0,0.0,0.0,0.0,0.0,0.0,0.0,0.0,0.0,0.0,0.0,0.0,0.0,0.0,0.0,0.0,0.0,0.0,0.0,0.0,0.0,0.0,0.0,0.0,0.0,0.0,0.0,0.0,0.0,0.0,0.0,0.0,0.0,0.0,0.0,0.0,0.0,0.0,0.0,0.0,0.0,0.0,0.0,0.0,0.0,0.0,-7.0898,-7.0898,0.0,0.0,0.0,0.0,0.0,0.0,0.0,0.0,0.0,0.0,0.0,0.0,0.0,0.0,0.0,0.0,0.0,0.0,0.0,0.0,0.0,0.0,0.0,0.0,0.0,0.0,0.0,0.0,0.0,0.0,0.0,0.0,0.0,0.0,0.0,0.0,0.0,-6.4332,-6.5099,-6.5475,-6.5475,-6.5475,-6.5624,-6.5897,0.0,0.0,0.0,0.0,0.0,0.0,0.0,0.0,0.0,0.0,0.0,0.0,0.0,0.0,0.0,0.0,0.0,0.0,0.0,0.0,0.0,0.0,0.0,0.0,0.0,0.0,0.0,0.0,0.0,0.0,0.0,0.0,0.0,0.0,0.0,0.0,0.0,0.0,0.0,0.0,0.0,0.0,0.0,0.0,0.0,0.0,0.0,0.0,0.0,0.0,0.0,0.0,0.0,0.0,0.0,0.0,0.0,0.0,0.0,0.0,0.0,0.0,0.0,0.0,0.0,0.0,0.0,0.0,0.0,0.0,-7.0898,-7.0898,0.0,0.0,0.0,0.0,0.0,0.0,0.0,0.0,0.0,0.0,0.0,0.0,0.0,0.0,0.0,0.0,0.0,0.0,0.0,0.0,0.0,0.0,0.0,-4.9082,-5.0651,-5.3281,-5.3516,-5.354,0.0,0.0,0.0,0.0,0.0,0.0,-6.106,-6.3274,-6.4588,-6.4985,-6.5624,-6.5897,-6.5897,-6.5897,-6.5897,-6.5897,-6.5897,0.0,0.0,0.0,0.0,0.0,0.0,0.0,0.0,0.0,0.0,0.0,0.0,0.0,0.0,0.0,0.0,0.0,0.0,0.0,0.0,0.0,0.0,0.0,0.0,0.0,0.0,0.0,0.0,0.0,0.0,0.0,0.0,0.0,0.0,0.0,0.0,0.0,0.0,0.0,0.0,0.0,0.0,0.0,0.0,0.0,0.0,0.0,0.0,0.0,0.0,0.0,0.0,0.0,0.0,0.0,0.0,0.0,0.0,0.0,0.0,0.0,0.0,0.0,-7.0898,-7.0898,-7.0898,-7.0898,-7.0898,-7.0898,-7.0898,-7.0898,-7.0898,-7.0898,0.0,0.0,0.0,0.0,0.0,0.0,0.0,0.0,0.0,0.0,0.0,0.0,0.0,0.0,0.0,0.0,0.0,0.0,0.0,0.0,0.0,-4.861,-4.9883,-5.3213,-5.3532,-5.3535,-5.3494,0.0,0.0,0.0,0.0,0.0,-6.0444,-6.3045,-6.4436,-6.4496,-6.5444,-6.5897,-6.5897,-6.5897,-6.5897,-6.5897,-6.5897,-6.5897,-6.5897,0.0,0.0,0.0,0.0,0.0,0.0,0.0,0.0,0.0,0.0,0.0,0.0,0.0,0.0,0.0,0.0,0.0,0.0,0.0,0.0,0.0,0.0,0.0,0.0,0.0,0.0,0.0,0.0,0.0,0.0,0.0,0.0,0.0,0.0,0.0,0.0,0.0,0.0,0.0,0.0,0.0,-6.5897,-6.5897,0.0,0.0,0.0,0.0,0.0,0.0,0.0,0.0,0.0,0.0,0.0,0.0,0.0,-7.0898,-7.0898,-7.0898,-7.0898,-7.0898,-7.0898,-7.0898,-7.0898,-7.0898,-7.0898,-7.0898,-7.0898,0.0,-7.0898,-7.0898,0.0,0.0,0.0,0.0,0.0,0.0,0.0,0.0,0.0,0.0,0.0,0.0,0.0,0.0,0.0,0.0,0.0,0.0,0.0,0.0,0.0,-4.8188,-5.096,-5.3267,-5.3542,-5.4226,-5.5943,-5.5794,0.0,0.0,0.0,-5.9715,-6.0411,-6.3012,-6.4655,-6.5235,-6.5666,-6.5897,-6.5897,-6.5897,-6.5897,-6.5897,-6.5897,-6.5897,-6.5897,-6.5897,0.0,0.0,0.0,0.0,0.0,0.0,0.0,0.0,0.0,0.0,0.0,0.0,0.0,0.0,0.0,0.0,0.0,0.0,0.0,0.0,0.0,0.0,0.0,0.0,0.0,0.0,0.0,0.0,0.0,0.0,0.0,0.0,0.0,0.0,0.0,0.0,0.0,0.0,0.0,-6.5897,-6.5897,-6.5897,-6.5897,-6.5897,0.0,0.0,0.0,0.0,0.0,0.0,0.0,0.0,0.0,-7.0898,-7.0898,-7.0898,-7.0898,-7.0898,-7.0898,-7.0898,-7.0898,-7.0898,-7.0898,-7.0898,-7.0898,-7.0898,-7.0898,-7.0898,-7.0898,-7.0898,-7.0898,-7.0925,0.0,0.0,0.0,0.0,-7.1503,-7.1536,0.0,0.0,0.0,0.0,0.0,0.0,0.0,0.0,0.0,0.0,0.0,0.0,-4.5737,-4.9447,-5.2298,-5.3397,-5.4183,-5.5636,-5.7831,-5.6957,-5.683,-5.7909,-5.9979,-6.1011,-6.1017,-6.3492,-6.5137,-6.5897,-6.5897,-6.5897,-6.5897,-6.5897,-6.5897,-6.5897,-6.5897,-6.5897,-6.5897,-6.5897,-6.5897,-6.5897,0.0,0.0,0.0,0.0,0.0,0.0,0.0,0.0,0.0,0.0,0.0,0.0,0.0,0.0,0.0,0.0,0.0,0.0,0.0,0.0,0.0,0.0,0.0,0.0,0.0,0.0,0.0,0.0,0.0,0.0,0.0,0.0,0.0,0.0,0.0,0.0,0.0,-6.5897,-6.5897,-6.5897,-6.5897,-6.5897,0.0,0.0,0.0,0.0,0.0,0.0,-7.0887,-7.0898,-7.0898,-7.0898,-7.0898,-7.0898,-7.0898,-7.0898,-7.0898,-7.0898,-7.0898,-7.0898,-7.0898,-7.0898,-7.0898,-7.0898,-7.0898,-7.0952,-7.1069,-7.0925,-7.0952,-7.1056,-7.1059,-7.1455,-7.2016,-7.199,-7.2016,-7.2,0.0,0.0,0.0,0.0,0.0,0.0,0.0,0.0,0.0,0.0,0.0,-4.5802,-5.2294,-5.3205,-5.3382,-5.3501,-5.6082,-5.7815,-5.7991,-5.7923,-5.7894,-5.8007,-6.0981,-6.2666,-6.2674,-6.4726,-6.5872,-6.5897,-6.5897,-6.5897,-6.5897,-6.5897,-6.5897,-6.5897,-6.5897,-6.5897,-6.5897,-6.5897,-6.5897,-6.5897,-6.5897,0.0,0.0,0.0,0.0,0.0,0.0,0.0,0.0,0.0,0.0,0.0,0.0,0.0,0.0,0.0,0.0,0.0,0.0,0.0,0.0,0.0,0.0,0.0,0.0,0.0,0.0,0.0,0.0,0.0,0.0,0.0,0.0,0.0,0.0,0.0,0.0,0.0,0.0,-6.5897,-6.5897,0.0,0.0,0.0,0.0,-7.0887,-7.0925,-7.0898,-7.0898,-7.0898,-7.0898,-7.0898,-7.0898,-7.0898,-7.0898,-7.0898,-7.0898,-7.0898,-7.0898,-7.0898,-7.0898,-7.0898,-7.0898,-7.0898,-7.0898,-7.112,-7.1451,-7.1069,-7.1144,-7.1472,-7.1492,-7.1684,-7.2004,-7.1993,-7.1995,-7.2008,0.0,0.0,0.0,0.0,0.0,0.0,0.0,0.0,-4.1389,-4.306,-4.5432,-4.8634,-5.2998,-5.348,-5.3511,-5.352,-5.6233,-5.7963,-5.8032,-5.8014,-5.7977,-5.8007,-6.1103,-6.3424,-6.4785,-6.5541,-6.5897,-6.5897,-6.5897,-6.5881,-6.5891,-6.5881,-6.5905,-6.5908,-6.5919,-6.5897,-6.5897,-6.5897,-6.5897,-6.5897,-6.5897,-6.5897,0.0,0.0,0.0,0.0,0.0,0.0,0.0,0.0,0.0,0.0,0.0,0.0,0.0,0.0,0.0,0.0,0.0,0.0,0.0,0.0,0.0,0.0,0.0,0.0,0.0,0.0,0.0,0.0,0.0,0.0,0.0,0.0,0.0,0.0,0.0,0.0,0.0,-6.5897,-6.6846,0.0,-6.7487,-6.8924,-7.0117,-7.0848,-7.0206,-7.0129,-7.086,-7.0898,-7.0898,-7.0898,-7.0898,-7.0898,-7.0898,-7.0898,-7.0898,-7.0898,-7.0898,-7.0898,-7.0898,-7.0898,-7.0992,-7.1108,-7.1108,-7.126,-7.1481,-7.1374,-7.1374,-7.1513,-7.1745,-7.1905,-7.2002,-7.2006,-7.1984,-7.1986,0.0,0.0,0.0,0.0,0.0,0.0,0.0,0.0,-4.3254,-4.3277,-4.7486,-5.127,-5.3276,-5.3483,-5.3468,-5.3519,-5.6298,-5.7999,-5.8024,-5.7997,-5.7977,-5.8007,-6.1052,-6.378,-6.5872,-6.5906,-6.5897,-6.5897,-6.5897,-6.5905,-6.5891,-6.6112,-6.6136,-6.5891,-6.5919,-6.5897,-6.5897,-6.5897,-6.5897,-6.5897,-6.5897,-6.5897,-6.5897,0.0,0.0,0.0,0.0,0.0,0.0,0.0,0.0,0.0,0.0,0.0,0.0,0.0,0.0,0.0,0.0,0.0,0.0,0.0,0.0,0.0,0.0,0.0,0.0,0.0,0.0,0.0,0.0,0.0,0.0,0.0,0.0,0.0,0.0,-6.5897,-6.5897,-6.5897,-6.7385,-6.8616,-6.9194,-6.9578,-7.0117,-7.0821,-7.0206,-7.009,-7.086,-7.0898,-7.0898,-7.0898,-7.0898,-7.0898,-7.0898,-7.0898,-7.0898,-7.0898,-7.0898,-7.0898,-7.0898,-7.0898,-7.0992,-7.1108,-7.118,-7.1317,-7.1485,-7.1549,-7.1594,-7.1681,-7.1831,-7.1943,-7.2006,-7.199,-7.1992,-7.2031,0.0,0.0,0.0,0.0,0.0,0.0,0.0,-4.0513,-4.3448,-4.3438,-4.9299,-5.3539,-5.3482,-5.3516,-5.3468,-5.3519,-5.6298,-5.7999,-5.8024,-5.7997,-5.8014,-5.8165,-6.1222,-6.3835,-6.5855,-6.5893,-6.5897,-6.5897,-6.5897,-6.5897,-6.5923,-6.6538,-6.65,-6.5923,-6.5897,-6.5897,-6.5897,-6.5897,-6.5897,-6.5897,-6.5897,-6.5897,-6.5897,0.0,0.0,0.0,0.0,0.0,0.0,0.0,0.0,0.0,0.0,0.0,0.0,0.0,0.0,0.0,0.0,0.0,0.0,0.0,0.0,0.0,0.0,0.0,0.0,0.0,0.0,0.0,0.0,0.0,0.0,0.0,0.0,0.0,-6.5897,-6.5897,-6.5897,-6.5936,-6.7385,-6.9066,-7.0683,-7.0914,-7.0887,-7.0898,-7.0898,-7.0898,-7.0898,-7.0898,-7.0898,-7.0898,-7.0898,-7.0898,-7.0898,-7.0898,-7.0898,-7.0898,-7.0898,-7.0898,-7.0898,-7.0898,-7.0898,-7.0925,-7.1131,-7.1335,-7.1498,-7.1642,-7.1811,-7.1992,-7.1802,-7.1815,-7.1992,-7.1992,-7.2031,-7.2148,0.0,0.0,0.0,0.0,0.0,0.0,0.0,-4.4118,-4.6224,-4.6153,-5.0435,-5.35,-5.3484,-5.3484,-5.3468,-5.3519,-5.6298,-5.7999,-5.8024,-5.7977,-5.9053,-6.1396,-6.3759,-6.5343,-6.5893,-6.5893,-6.5897,-6.5897,-6.5897,-6.5905,-6.5912,-6.6097,-6.6059,-6.5912,-6.5881,-6.5897,-6.5897,-6.5897,-6.5897,-6.5897,-6.5897,-6.5897,-6.5897,0.0,0.0,0.0,0.0,0.0,0.0,0.0,0.0,0.0,0.0,0.0,0.0,0.0,0.0,0.0,0.0,0.0,0.0,0.0,0.0,0.0,0.0,0.0,0.0,0.0,0.0,0.0,0.0,0.0,0.0,0.0,-6.5897,-6.5897,-6.5897,-6.5897,-6.6128,-6.6705,-6.7705,-6.8821,-6.9925,-7.0552,-7.0898,-7.0898,-7.0898,-7.0898,-7.0898,-7.0898,-7.0898,-7.0898,-7.0898,-7.0898,-7.0898,-7.0898,-7.0898,-7.0898,-7.0898,-7.0898,-7.0898,-7.0898,-7.0992,-7.1115,-7.118,-7.1381,-7.1642,-7.1583,-7.1721,-7.1992,-7.195,-7.1951,-7.1992,-7.1992,-7.2383,-7.2969,0.0,0.0,0.0,0.0,0.0,0.0,0.0,-4.6271,-4.7313,-4.7276,-5.0908,-5.3519,-5.3483,-5.3513,-5.3542,-5.3484,-5.6273,-5.8011,-5.7987,-5.9245,-6.0839,-6.2698,-6.4784,-6.5904,-6.5906,-6.5909,-6.5897,-6.5897,-6.5897,-6.5881,-6.5887,-6.5919,-6.5881,-6.5887,-6.5919,-6.5897,-6.5897,-6.5897,-6.5897,-6.5897,-6.5897,-6.5897,-6.5897,-6.5897,-6.5902,-6.5653,-6.354,-6.2817,-6.2805,-6.2805,0.0,0.0,0.0,0.0,0.0,0.0,0.0,0.0,0.0,0.0,0.0,0.0,0.0,0.0,0.0,0.0,0.0,0.0,0.0,0.0,0.0,0.0,0.0,0.0,-6.5897,-6.6013,-6.6359,-6.6397,-6.659,-6.7051,-6.8205,-6.9129,-6.9667,-7.0437,-7.0898,-7.0898,-7.0898,-7.0898,-7.0898,-7.0898,-7.0898,-7.0898,-7.0898,-7.0898,-7.0898,-7.0898,-7.0898,-7.0898,-7.0898,-7.0898,-7.0898,-7.0898,-7.0966,-7.1085,-7.1158,-7.1314,-7.1485,-7.1498,-7.1663,-7.1864,0.0,0.0,0.0,0.0,-7.2539,-7.3359,0.0,0.0,0.0,0.0,0.0,0.0,0.0,-4.7279,-4.7289,-4.7294,-5.0903,-5.3461,-5.3517,-5.3528,-5.3628,-5.395,-5.6456,-5.7992,-5.8024,-6.1024,-6.2792,-6.2786,-6.4784,-6.5922,-6.5897,-6.5897,-6.5897,-6.5897,-6.5897,-6.5897,-6.5897,-6.5897,-6.5897,-6.5897,-6.5897,-6.5897,-6.5897,-6.5897,-6.5897,-6.5897,-6.5897,-6.5897,-6.5897,-6.5897,-6.5757,-6.5313,-6.3465,-6.2817,-6.2805,-6.2805,0.0,0.0,0.0,0.0,0.0,0.0,0.0,0.0,0.0,0.0,0.0,0.0,0.0,0.0,0.0,0.0,0.0,0.0,0.0,0.0,0.0,0.0,0.0,0.0,-6.5974,-6.6282,-6.7013,-6.7282,-6.7398,-6.7398,-6.8744,-6.9744,-6.9821,-7.0475,-7.0898,-7.0898,-7.0898,-7.0898,-7.0898,-7.0898,0.0,0.0,0.0,-7.0898,-7.0898,-7.0898,-7.0898,-7.0898,-7.0898,-7.0898,-7.0898,-7.0898,-7.0898,-7.0925,-7.1085,-7.118,-7.1203,-7.1387,-7.1536,-7.1675,-7.1735,-7.1858,-7.1992,-7.2109,-7.2695,-7.3555,0.0,0.0,0.0,0.0,0.0,0.0,0.0,-4.7309,-4.7334,-4.7325,-5.0903,-5.3461,-5.3517,-5.3528,-5.447,-5.6922,-5.7675,-5.7978,-5.8019,-6.1003,-6.2803,-6.2787,-6.4803,-6.5902,-6.5897,-6.5897,-6.5897,-6.5897,-6.5897,-6.5897,-6.5897,-6.5897,-6.5897,-6.5897,-6.5897,-6.5897,-6.5897,-6.5897,-6.5897,-6.5897,-6.5897,-6.5897,-6.5897,-6.5897,-6.4848,-6.3314,-6.2937,-6.2817,-6.2805,-6.2805,-6.2805,-6.2805,-6.2805,-6.2805,0.0,0.0,0.0,0.0,0.0,0.0,0.0,0.0,0.0,0.0,0.0,0.0,0.0,0.0,0.0,0.0,0.0,0.0,0.0,-6.5897,-6.6436,-6.6898,-6.709,-6.8321,-6.9206,-6.9206,-6.9475,-6.9937,-7.0591,-7.0821,-7.0898,-7.0898,-7.0898,-7.0898,-7.0898,-7.0898,-7.0898,-7.0898,-7.0898,-7.0898,-7.0898,-7.0898,-7.0898,-7.0898,-7.0898,0.0,-7.0898,-7.0898,-7.0898,-7.0898,-7.094,-7.1038,-7.1201,-7.1062,-7.1223,-7.156,-7.185,-7.1952,-7.2109,-7.2773,-7.3594,-7.4453,0.0,0.0,0.0,0.0,0.0,0.0,0.0,-4.7352,-4.7302,-4.7263,-5.0919,-5.3467,-5.3483,-5.3528,-5.4722,-5.7765,-5.8016,-5.8,-5.7996,-6.1011,-6.3259,-6.4332,-6.5361,-6.5886,-6.5897,-6.5897,-6.5897,-6.5897,-6.5897,-6.5897,-6.5897,-6.5897,-6.5897,-6.5897,-6.5897,-6.5897,-6.5897,-6.5897,-6.5897,-6.5897,-6.5897,-6.5601,-6.5168,-6.5168,-6.4508,-6.354,-6.2966,-6.2822,-6.2805,-6.2805,-6.2805,-6.2805,-6.2805,-6.2805,-6.2805,0.0,0.0,0.0,0.0,0.0,0.0,0.0,0.0,0.0,0.0,0.0,0.0,0.0,0.0,-6.5897,-6.5897,0.0,-6.5897,-6.5897,-6.659,-6.7244,-6.7705,-6.8898,-6.9706,-6.9706,-7.0052,-7.0475,-7.086,-7.0898,-7.0898,-7.0898,-7.0898,-7.0898,-7.0898,-7.0898,-7.0898,-7.0898,-7.0898,-7.0898,-7.0898,-7.0898,-7.0898,-7.0898,-7.0898,-7.0898,-7.0898,-7.0898,-7.0898,-7.0898,-7.0898,-7.0966,-7.1038,-7.1158,-7.1335,-7.1511,-7.1854,-7.1992,-7.2109,-7.2969,-7.3867,-7.4726,0.0,0.0,0.0,0.0,0.0,0.0,0.0,-4.7273,-4.7577,-4.8387,-5.1401,-5.3532,-5.3518,-5.3528,-5.446,-5.6927,-5.7636,-5.829,-5.8908,-6.1366,-6.3756,-6.5804,-6.5879,-6.5896,-6.5897,-6.5897,-6.5897,-6.5897,-6.5897,-6.5897,-6.5897,-6.5897,-6.5897,-6.5897,-6.5897,-6.5897,-6.5897,-6.5897,-6.5897,-6.5897,-6.5743,-6.5245,-6.4534,-6.4301,-6.4285,-6.4181,-6.328,-6.2974,-6.2917,-6.2855,-6.2805,-6.2805,-6.2805,-6.2805,-6.2805,-6.2805,-6.2805,0.0,0.0,0.0,0.0,0.0,0.0,0.0,0.0,-6.5897,-6.5897,-6.5897,-6.5897,-6.5897,-6.5897,-6.5897,-6.5936,-6.609,-6.6821,-6.7667,-6.8552,-6.9398,-6.9937,-6.9937,-7.0514,-7.0898,-7.0898,-7.0898,-7.0898,-7.0898,-7.0898,-7.0898,-7.0898,-7.0898,-7.0898,-7.0898,-7.0898,-7.0898,-7.0898,-7.0898,-7.0898,-7.0898,-7.0898,-7.0898,-7.0898,-7.0898,-7.0898,-7.0898,-7.0898,-7.0898,-7.0914,-7.1353,-7.1485,-7.155,-7.2053,-7.2265,-7.2344,-7.3242,-7.4101,-7.4961,0.0,0.0,0.0,0.0,0.0,0.0,0.0,0.0,-4.8631,-5.232,-5.3198,-5.3532,-5.3518,-5.3528,-5.3659,-5.394,-5.6436,-5.919,-6.207,-6.2575,-6.3728,-6.5804,-6.5902,-6.591,-6.5897,-6.5897,-6.5897,-6.5897,-6.5897,-6.5897,-6.5897,-6.5897,-6.5897,-6.5897,-6.5897,-6.5897,-6.5897,-6.5897,-6.5897,-6.5833,-6.5235,-6.5016,-6.4889,-6.4024,-6.3831,-6.3917,-6.3617,-6.3512,-6.3453,-6.2965,-6.2805,-6.2805,-6.2805,-6.2805,-6.2805,-6.2805,-6.2805,-6.2805,-6.2805,-6.3505,-6.4332,-6.4444,-6.5137,-6.5808,0.0,-6.5897,-6.5897,-6.5897,-6.5897,-6.5897,-6.5897,-6.5897,-6.6128,-6.6859,-6.7705,-6.8552,-6.9436,-7.0244,-7.0783,-7.0783,-7.086,-7.0898,-7.0898,-7.0898,-7.0898,-7.0898,-7.0898,-7.0898,-7.0898,-7.0898,-7.0898,-7.0898,-7.0898,-7.0898,-7.0898,-7.0898,-7.0898,-7.0898,-7.0898,-7.0898,-7.0898,-7.0898,-7.0898,-7.0898,-7.0898,-7.0898,-7.0914,-7.1353,-7.1485,-7.1589,-7.2717,-7.3164,-7.3242,-7.414,-7.5,-7.5898,0.0,0.0,0.0,0.0,0.0,0.0,0.0,0.0,0.0,-5.3123,-5.349,-5.3515,-5.3484,-5.3513,-5.4275,-5.6055,-5.8192,-6.0377,-6.2659,-6.2761,-6.3721,-6.5842,-6.59,-6.5904,-6.5897,-6.5897,-6.5897,-6.5897,-6.5897,-6.5897,-6.5897,-6.5897,-6.5897,-6.5897,-6.5897,-6.5897,-6.5897,-6.5569,-6.5446,-6.5388,-6.4828,-6.448,-6.4178,-6.3766,-6.3649,-6.3663,-6.328,-6.3121,0.0,-6.2904,-6.2805,-6.2805,-6.2805,-6.2805,-6.2805,-6.2805,-6.2805,-6.2855,-6.3168,-6.385,-6.4444,-6.4731,-6.5359,-6.5897,-6.5897,-6.5897,-6.5897,-6.5897,-6.5897,-6.5897,-6.5897,-6.6282,-6.6705,-6.7051,-6.8244,-6.9283,-6.9667,-7.0398,-7.0898,-7.0898,-7.0898,-7.0898,-7.0898,-7.0898,-7.0898,-7.0898,-7.0898,-7.0898,-7.0898,-7.0898,-7.0898,-7.0898,-7.0898,-7.0898,-7.0898,-7.0898,-7.0898,-7.0898,-7.0898,-7.0898,-7.0898,-7.0898,-7.0898,-7.0898,-7.0898,-7.0966,-7.1108,-7.1365,-7.1536,-7.172,-7.2843,-7.3594,-7.414,-7.5039,-7.5586,-7.6015,0.0,0.0,0.0,0.0,0.0,0.0,0.0,0.0,0.0,0.0,-5.3511,-5.3518,-5.3518,-5.3518,-5.4651,-5.7517,-5.9264,-6.0952,-6.2671,-6.2789,-6.3504,-6.5007,-6.5559,-6.5894,-6.592,-6.5884,-6.5897,-6.5897,-6.5897,-6.5897,-6.5897,-6.5897,-6.5897,-6.5897,-6.5755,-6.569,-6.5663,-6.5099,-6.49,-6.4866,-6.437,-6.3975,-6.3587,-6.3453,-6.3363,-6.3317,-6.2917,-6.2904,-6.3014,-6.2855,-6.2805,-6.2805,-6.2805,-6.2805,-6.2805,-6.2805,-6.2805,-6.2953,-6.3453,-6.4016,-6.4518,-6.4965,-6.5475,-6.5897,-6.5897,-6.5897,-6.5897,-6.5897,-6.5897,-6.5897,-6.5897,-6.6551,-6.7167,-6.7398,-6.8706,-6.9783,-7.0014,-7.0514,-7.0898,-7.0898,-7.0898,-7.0898,-7.0898,-7.0898,-7.0898,-7.0898,-7.0898,-7.0898,-7.0898,-7.0898,-7.0898,-7.0898,-7.0898,-7.0898,-7.0898,-7.0898,-7.0898,-7.0898,-7.0898,-7.0898,-7.0898,-7.0898,-7.0898,-7.0898,-7.0898,-7.1029,-7.1241,-7.1435,-7.1739,-7.2171,-7.3238,-7.418,-7.5078,-7.5937,-7.625,-7.6367,0.0,0.0,0.0,0.0,0.0,0.0,0.0,0.0,0.0,0.0,0.0,0.0,0.0,-5.3518,-5.4346,-5.6458,-5.8543,-6.0608,-6.2634,-6.2789,-6.2836,-6.2917,-6.4817,-6.5925,-6.5887,-6.5893,-6.5897,-6.5897,-6.5897,-6.5897,-6.5897,-6.5897,-6.5897,-6.5897,-6.5388,-6.513,-6.5099,-6.4626,-6.4407,-6.437,-6.385,-6.3593,-6.3543,-6.3014,-6.2805,-6.2805,-6.2805,-6.3121,-6.3498,-6.2965,-6.2805,-6.2805,-6.2805,-6.2805,-6.2805,-6.2805,-6.2805,-6.2953,-6.3453,-6.4016,-6.4518,-6.4965,-6.5475,-6.5897,-6.5897,-6.5897,-6.5897,-6.5897,-6.5897,-6.5897,-6.5897,-6.6551,-6.7359,-6.8244,-6.9129,-6.9975,-7.0744,-7.0898,-7.0898,-7.0898,-7.0898,-7.0898,-7.0898,-7.0898,-7.0898,-7.0898,-7.0898,-7.0898,-7.0898,-7.0898,-7.0898,-7.0898,-7.0898,-7.0898,-7.0898,-7.0898,-7.0898,-7.0898,-7.0898,-7.0898,-7.0898,-7.0898,-7.0898,-7.0898,-7.0898,-7.1029,-7.1241,-7.1435,-7.2089,-7.3068,-7.4136,-7.5078,-7.5976,-7.6836,-7.7148,-7.7148,0.0,0.0,0.0,0.0,0.0,0.0,0.0,0.0,0.0,0.0,0.0,0.0,0.0,0.0,0.0,0.0,-5.8411,-6.0174,-6.1914,-6.2498,-6.2956,-6.3326,-6.3671,-6.4482,-6.5855,-6.5932,-6.5915,-6.5897,-6.5897,-6.5678,-6.5235,-6.5235,-6.5123,-6.4904,-6.4734,-6.4626,-6.459,-6.4059,-6.3892,-6.3808,-6.3308,-6.3062,-6.3062,-6.2855,-6.2805,-6.2805,0.0,-6.2953,-6.3062,-6.2855,-6.2805,-6.2805,-6.2805,-6.2805,-6.2805,-6.2805,-6.2805,-6.3014,-6.3892,-6.4255,-6.4628,-6.5417,-6.5781,-6.5897,-6.5897,-6.5897,-6.5897,-6.5897,-6.5897,-6.6051,-6.659,-6.7398,-6.8244,-6.9129,-6.9975,-7.0591,-7.086,-7.0898,-7.0898,-7.0898,-7.0898,-7.0898,-7.0898,-7.0898,-7.0898,-7.0898,-7.0898,-7.0898,-7.0898,-7.0898,-7.0898,-7.0898,-7.0898,-7.0898,-7.0898,-7.0898,-7.0898,-7.0898,-7.0898,-7.0898,-7.0898,-7.0898,-7.0898,-7.0898,-7.0898,-7.1108,-7.1458,-7.2079,-7.2686,-7.3353,-7.4882,-7.5625,-7.6015,-7.6875,-7.7187,-7.7187,0.0,0.0,0.0,0.0,0.0,0.0,0.0,0.0,0.0,0.0,0.0,0.0,0.0,0.0,0.0,0.0,0.0,-5.9608,-6.1476,-6.2076,-6.2682,-6.3308,-6.297,-6.3443,-6.4779,-6.5031,-6.5188,-6.5206,-6.5321,-6.513,-6.4719,-6.4719,-6.4585,-6.437,-6.4178,-6.4099,-6.4059,-6.3543,-6.3317,-6.3308,-6.2917,-6.2805,-6.2805,-6.2805,-6.2805,0.0,-6.2805,-6.2805,-6.2805,-6.2805,-6.2805,-6.2805,-6.2805,-6.2805,-6.2805,-6.2805,-6.2805,-6.3014,-6.3892,-6.4099,-6.4332,-6.5359,-6.5597,-6.5663,-6.5872,-6.5897,-6.5897,-6.5897,-6.6128,-6.6474,-6.7013,-6.8052,-6.9052,-6.9629,-7.0398,-7.0898,-7.0898,-7.0898,-7.0898,-7.0898,-7.0898,-7.0898,-7.0898,-7.0898,-7.0898,-7.0898,-7.0898,-7.0898,-7.0898,-7.0898,-7.0898,-7.0898,-7.0898,-7.0898,-7.0898,-7.0898,-7.0898,-7.0898,-7.0898,-7.0898,-7.0898,-7.0898,-7.0898,-7.0898,-7.0992,-7.1376,-7.199,-7.2612,-7.3413,-7.4336,-7.5469,-7.6094,-7.6445,-7.6992,-7.7187,-7.7187,0.0,0.0,0.0,0.0,0.0,0.0,0.0,0.0,0.0,0.0,0.0,0.0,0.0,0.0,0.0,0.0,0.0,0.0,-6.1364,-6.1604,-6.1969,-6.2755,-6.2817,-6.2792,-6.2836,-6.3533,-6.3917,-6.3955,-6.4219,-6.4407,-6.4332,-6.4332,-6.4332,-6.4294,-6.3808,-6.3587,-6.3543,-6.3014,-6.2805,-6.2805,-6.2805,-6.2805,-6.2805,-6.2805,-6.2805,-6.2805,-6.2805,-6.2805,-6.2805,-6.2805,-6.2805,-6.2805,-6.2805,-6.2805,-6.2805,-6.2805,-6.2805,-6.2953,-6.3453,-6.3631,-6.385,-6.4833,-6.5099,-6.5261,-6.5717,-6.5897,-6.5897,-6.5897,-6.6551,-6.709,-6.7167,-6.8552,-6.9706,-6.9744,-7.0398,-7.0898,-7.0898,-7.0898,-7.0898,-7.0898,-7.0898,-7.0898,-7.0898,-7.0898,-7.0898,-7.0898,-7.0898,-7.0898,-7.0898,-7.0898,-7.0898,-7.0898,-7.0898,-7.0898,-7.0898,-7.0898,-7.0898,-7.0898,-7.0898,-7.0898,-7.0898,-7.0898,-7.0898,-7.0952,-7.1131,-7.1801,-7.2796,-7.3016,-7.4193,-7.5898,-7.5937,-7.6484,-7.7187,-7.7187,-7.7187,-7.7187,0.0,0.0,0.0,0.0,0.0,0.0,0.0,0.0,0.0,0.0,0.0,0.0,0.0,0.0,0.0,0.0,0.0,0.0,-6.064,-6.1229,-6.1969,-6.2755,-6.2806,-6.2983,-6.3401,-6.3574,-6.3866,-6.4257,-6.4332,-6.4178,-6.3808,-6.3808,-6.3593,-6.3215,-6.3025,-6.3014,-6.3014,-6.2855,-6.2805,-6.2805,-6.2805,-6.2805,-6.2805,-6.2805,-6.2805,-6.2805,-6.2805,-6.2805,-6.2805,-6.2805,-6.2805,-6.2805,-6.2805,-6.2805,-6.2805,-6.2805,-6.2805,-6.2953,-6.3453,-6.3631,-6.3766,-6.4407,-6.4833,-6.513,-6.5261,-6.5597,-6.5897,-6.5897,-6.6551,-6.7282,-6.7936,-6.8975,-6.9898,-7.0514,-7.0783,-7.0898,-7.0898,-7.0898,-7.0898,-7.0898,-7.0898,-7.0898,-7.0898,-7.0898,-7.0898,-7.0898,-7.0898,-7.0898,-7.0898,-7.0898,-7.0898,-7.0898,-7.0898,-7.0898,-7.0898,-7.0898,-7.0898,-7.0898,-7.0898,-7.0898,-7.0898,-7.0898,-7.0953,-7.1115,-7.118,-7.1863,-7.2986,-7.3672,-7.4744,-7.5976,-7.6601,-7.6992,-7.7187,-7.7187,-7.7187,-7.7187,0.0,0.0,0.0,0.0,0.0,0.0,0.0,0.0,0.0,0.0,0.0,0.0,0.0,0.0,0.0,0.0,0.0,0.0,0.0,-6.0238,-6.1019,-6.2219,-6.2271,-6.2581,-6.3262,-6.3262,-6.3408,-6.3723,-6.3723,-6.355,-6.3262,-6.3262,-6.311,-6.2805,-6.2805,-6.2618,-6.2271,-6.2271,-6.2076,0.0,0.0,-6.2271,-6.2324,-6.2705,-6.2805,-6.2805,-6.2805,-6.2805,-6.2805,-6.2805,-6.2805,-6.2805,-6.2805,-6.2805,-6.2805,-6.2805,-6.2805,-6.2855,-6.3168,-6.3262,-6.3453,-6.4178,-6.459,-6.4938,-6.5359,-6.569,-6.6013,-6.6359,-6.709,-6.7936,-6.8821,-6.9667,-7.036,-7.0821,-7.0898,-7.0898,-7.0898,-7.0898,-7.0898,-7.0898,-7.0898,-7.0898,-7.0898,-7.0898,-7.0898,-7.0898,-7.0898,-7.0898,-7.0898,-7.0898,-7.0898,-7.0898,-7.0898,-7.0898,-7.0898,-7.0898,-7.0898,-7.0898,-7.0898,-7.0898,-7.0898,-7.0898,-7.1197,-7.1784,-7.1842,-7.2744,-7.4194,-7.4774,-7.5579,-7.6523,-7.6992,-7.7187,-7.7187,-7.7187,-7.7187,-7.7187,0.0,0.0,0.0,0.0,0.0,0.0,0.0,0.0,0.0,0.0,0.0,0.0,0.0,0.0,0.0,0.0,0.0,0.0,0.0,0.0,-5.9797,-6.1343,-6.1548,-6.1915,-6.2654,-6.2755,-6.2805,-6.2805,-6.2805,-6.2805,-6.2805,-6.2805,-6.2755,-6.2618,-6.2618,-6.2219,-6.1436,-6.1436,-6.1055,-6.0458,-6.1171,-6.1436,-6.1548,0.0,-6.2464,-6.2515,-6.2567,-6.2705,-6.2805,-6.2805,-6.2805,-6.2805,-6.2805,-6.2805,-6.2805,-6.2805,-6.2805,-6.2805,-6.2805,-6.2805,-6.3062,-6.4019,-6.4332,-6.4626,-6.5569,-6.5872,-6.6128,-6.6936,-6.7782,-6.8667,-6.9552,-7.036,-7.0898,-7.0898,-7.0898,-7.0898,-7.0898,-7.0898,-7.0898,-7.0898,-7.0898,-7.0898,-7.0898,-7.0898,-7.0898,-7.0898,-7.0898,-7.0898,-7.0898,-7.0898,-7.0898,-7.0898,-7.0898,-7.0898,-7.0898,-7.0898,-7.0898,-7.0898,-7.0898,-7.0898,-7.0898,-7.1068,-7.1617,-7.2541,-7.2881,-7.3992,-7.5662,-7.5817,-7.6406,-7.7187,-7.7187,-7.7187,-7.7187,-7.7187,-7.7187,-7.7187,0.0,0.0,0.0,0.0,0.0,0.0,0.0,0.0,0.0,0.0,-5.3844,-5.4702,0.0,0.0,0.0,0.0,0.0,0.0,0.0,0.0,0.0,-6.058,-6.1229,-6.1659,-6.177,-6.2464,-6.2805,-6.2805,-6.2805,-6.2805,-6.2805,-6.2805,-6.2464,-6.1824,-6.1824,-6.1379,-6.058,-6.058,-6.0519,-6.0397,-6.0519,-6.058,-6.064,-6.076,0.0,0.0,-6.1548,-6.2271,-6.2805,-6.2805,-6.2805,-6.2805,-6.2805,-6.2805,-6.2805,-6.2805,-6.2805,-6.2805,-6.2805,-6.2805,-6.2917,-6.355,-6.4059,-6.4518,-6.5099,-6.5569,-6.6128,-6.6936,-6.7782,-6.8667,-6.9552,-7.036,-7.0898,-7.0898,-7.0898,-7.0898,-7.0898,-7.0898,-7.0898,-7.0898,-7.0898,-7.0898,-7.0898,-7.0898,-7.0898,-7.0898,-7.0898,-7.0898,-7.0898,-7.0898,-7.0898,-7.0898,-7.0898,-7.0898,-7.0898,-7.0898,-7.0898,-7.0898,-7.0898,-7.0898,-7.0937,-7.1819,-7.2405,-7.2818,-7.3651,-7.4725,-7.5858,-7.5898,-7.6406,-7.7187,-7.7187,-7.7187,-7.7187,-7.7187,-7.7187,-7.7187,0.0,0.0,0.0,0.0,0.0,0.0,0.0,-5.2261,-5.3532,-5.4267,-5.5198,-5.5886,-5.6258,-5.6596,0.0,0.0,0.0,0.0,0.0,0.0,0.0,0.0,-6.0113,-6.0484,-6.0938,-6.1379,-6.1548,-6.1548,0.0,-6.1548,-6.1548,-6.1548,-6.1379,-6.0997,-6.0997,-6.0519,-5.9704,-5.9704,-5.9443,-5.9145,-5.9574,-5.9704,-5.9768,0.0,0.0,0.0,-6.082,-6.1492,-6.2219,-6.2219,-6.2464,-6.2805,-6.2805,-6.2805,-6.2805,-6.2805,-6.2805,-6.2805,-6.2805,-6.3014,-6.3317,-6.3892,-6.4407,-6.4904,-6.5417,-6.6062,-6.6744,-6.759,-6.8475,-6.9321,-7.0167,-7.0629,-7.0898,-7.0898,-7.0898,-7.0898,-7.0898,-7.0898,-7.0898,-7.0898,-7.0898,-7.0898,-7.0898,-7.0898,-7.0898,-7.0898,-7.0898,-7.0898,-7.0898,-7.0898,-7.0898,-7.0898,-7.0898,-7.0898,-7.0898,-7.0898,-7.0898,-7.0898,-7.136,-7.1591,-7.1618,-7.27,-7.3509,-7.4145,-7.4732,-7.5599,-7.6562,-7.6562,-7.6836,-7.7187,-7.7187,-7.7187,-7.7187,-7.7187,-7.7187,-7.7187,0.0,0.0,0.0,0.0,0.0,0.0,0.0,-5.2421,-5.3798,-5.5358,-5.6284,-5.6867,-5.7036,-5.7036,-5.7273,0.0,0.0,0.0,0.0,0.0,0.0,0.0,0.0,-5.9443,-6.0086,0.0,0.0,-6.0397,-6.0397,0.0,0.0,0.0,0.0,0.0,-6.0086,-5.9639,-5.8875,-5.8875,-5.8494,0.0,0.0,-5.8875,-5.8943,0.0,0.0,0.0,0.0,-6.076,-6.1604,-6.1604,-6.2129,-6.2805,-6.2805,-6.2805,-6.2805,-6.2805,-6.2805,-6.2805,-6.2805,-6.3168,-6.3723,-6.4255,-6.4731,-6.5261,-6.5781,-6.6513,-6.7359,-6.8244,-6.909,-6.9937,-7.0744,-7.0898,-7.0898,-7.0898,-7.0898,-7.0898,-7.0898,-7.0898,-7.0898,-7.0898,-7.0898,-7.0898,-7.0898,-7.0898,-7.0898,-7.0898,-7.0898,-7.0898,-7.0898,-7.0898,-7.0898,-7.0898,-7.0898,-7.0975,-7.1168,-7.1168,-7.1283,-7.1475,-7.2129,-7.2492,-7.2572,-7.364,-7.4589,-7.5378,-7.578,-7.643,-7.7187,-7.7187,-7.7187,-7.7187,-7.7187,-7.7187,-7.7187,-7.7187,-7.7187,-7.7187,0.0,0.0,0.0,0.0,0.0,0.0,0.0,-5.2667,-5.4227,-5.5213,-5.6191,-5.707,-5.7712,-5.778,-5.7814,0.0,0.0,0.0,0.0,0.0,0.0,0.0,0.0,0.0,0.0,0.0,0.0,-6.0397,-6.0397,0.0,0.0,0.0,0.0,0.0,0.0,-5.8737,-5.8027,-5.8027,0.0,0.0,0.0,0.0,0.0,0.0,0.0,0.0,0.0,-6.0238,-6.1604,-6.1604,-6.2129,-6.2805,-6.2805,-6.2805,-6.2805,-6.2805,-6.2805,-6.2805,-6.2805,-6.3168,-6.3723,-6.4255,-6.4731,-6.5261,-6.5781,-6.6513,-6.7359,-6.8244,-6.909,-6.9937,-7.0744,-7.0898,-7.0898,-7.0898,-7.0898,-7.0898,-7.0898,-7.0898,-7.0898,-7.0898,-7.0898,-7.0898,-7.0898,-7.0898,-7.0898,-7.0898,-7.0898,-7.0898,-7.0898,-7.0898,-7.0898,-7.0898,-7.0898,-7.1283,-7.2052,-7.2091,-7.2476,-7.3283,-7.336,-7.3485,-7.3678,-7.4722,-7.53,-7.5631,-7.6632,-7.7109,-7.7187,-7.7187,-7.7187,-7.7187,-7.7187,-7.7187,-7.7187,-7.7187,-7.7187,-7.7187,0.0,0.0,0.0,0.0,0.0,0.0,-5.3263,-5.426,-5.5322,-5.6687,-5.7223,-5.7577,-5.7848,-5.7881,-5.7881,0.0,0.0,0.0,0.0,0.0,0.0,0.0,0.0,0.0,0.0,0.0,-5.8909,-5.8909,-5.8909,0.0,0.0,0.0,0.0,0.0,0.0,-5.8209,-5.7881,-5.7881,0.0,0.0,0.0,0.0,0.0,0.0,0.0,0.0,0.0,0.0,-6.0879,-6.0879,-6.1715,-6.2805,-6.2805,-6.2805,-6.2805,-6.2805,-6.2805,-6.2805,-6.2805,-6.3168,-6.3723,-6.4255,-6.4731,-6.5375,-6.6396,-6.7282,-6.8129,-6.9013,-6.986,-7.0514,-7.0821,-7.0898,-7.0898,-7.0898,-7.0898,-7.0898,-7.0898,-7.0898,-7.0898,-7.0898,-7.0898,-7.0898,-7.0898,-7.0898,-7.0898,-7.0898,-7.0898,-7.1129,-7.1629,-7.1206,-7.1129,-7.1668,-7.1668,-7.2091,-7.2976,-7.2976,-7.3168,-7.3514,-7.4115,-7.444,-7.4573,-7.5729,-7.6292,-7.6418,-7.6946,-7.7187,-7.7187,-7.7187,-7.7187,-7.7187,-7.7187,-7.7187,-7.7187,-7.7187,-7.7187,-7.7187,0.0,0.0,0.0,0.0,0.0,-5.2419,-5.5148,-5.5589,-5.617,-5.7741,-5.7881,-5.7881,-5.7881,-5.7881,-5.7881,-5.7881,0.0,0.0,0.0,0.0,0.0,0.0,0.0,0.0,0.0,0.0,-5.7881,-5.7881,-5.7881,-5.7881,0.0,0.0,-5.7881,-5.7881,0.0,0.0,0.0,0.0,0.0,0.0,0.0,0.0,0.0,0.0,0.0,0.0,0.0,0.0,0.0,0.0,0.0,-6.2805,-6.2805,-6.2805,-6.2805,-6.2805,-6.2805,-6.2805,-6.2805,-6.3168,-6.3723,-6.4255,-6.492,-6.5796,-6.6857,-6.7975,-6.8975,-6.959,-7.036,-7.0898,-7.0898,-7.0898,-7.0898,-7.0898,-7.0898,-7.0898,-7.0898,-7.0898,-7.0898,-7.0898,-7.0898,-7.0898,-7.0898,-7.0898,-7.1014,-7.1283,-7.1283,-7.1668,-7.2552,-7.2014,-7.1937,-7.2552,-7.2591,-7.2976,-7.386,-7.386,-7.3976,-7.4245,-7.4976,-7.5382,-7.5508,-7.6391,-7.6864,-7.6995,-7.7145,-7.7187,-7.7187,-7.7187,-7.7187,-7.7187,-7.7187,-7.7187,-7.7187,-7.7187,-7.7187,-7.7187,0.0,0.0,0.0,0.0,0.0,0.0,0.0,-5.6171,-5.6624,-5.7735,-5.7881,-5.7881,-5.7881,-5.7881,-5.7881,-5.7881,0.0,0.0,0.0,0.0,0.0,0.0,0.0,0.0,0.0,0.0,-5.7881,-5.7881,-5.7881,-5.7881,-5.7881,-5.7881,-5.7881,-5.7881,0.0,0.0,0.0,0.0,0.0,0.0,0.0,0.0,-5.7881,0.0,0.0,0.0,0.0,0.0,0.0,0.0,0.0,0.0,0.0,-6.2805,-6.2805,-6.2805,-6.2805,-6.2805,-6.2805,-6.3168,-6.3723,-6.4255,-6.5376,-6.6522,-6.6973,-6.8436,-6.9706,-6.9706,-7.036,-7.0898,-7.0898,-7.0898,-7.0898,-7.0898,-7.0898,-7.0898,-7.0898,-7.0898,-7.0898,-7.0898,-7.0898,-7.0898,-7.0898,-7.0898,-7.1245,-7.2129,-7.2168,-7.2552,-7.3437,-7.3476,-7.3476,-7.3514,-7.3514,-7.386,-7.4668,-7.4707,-7.513,-7.5976,-7.5976,-7.6195,-7.6582,-7.6582,-7.6839,-7.7187,-7.7187,-7.7187,-7.7187,-7.7187,-7.7187,-7.7187,-7.7187,-7.7187,-7.7187,-7.7187,-7.7187,-7.7187,0.0,0.0,0.0,0.0,0.0,0.0,0.0,-5.7372,-5.748,-5.7881,-5.7881,-5.7881,-5.7881,-5.7881,-5.7881,-5.7881,0.0,0.0,0.0,0.0,0.0,0.0,0.0,0.0,0.0,-5.7881,-5.7881,-5.7881,-5.7881,-5.7881,-5.7881,-5.7881,-5.7881,-5.7881,-5.7881,-5.7881,0.0,0.0,0.0,0.0,0.0,-5.7881,-5.7881,0.0,0.0,0.0,0.0,0.0,0.0,0.0,0.0,0.0,0.0,0.0,0.0,-6.2805,-6.2805,-6.2805,-6.2805,-6.3168,-6.3873,-6.4933,-6.5793,-6.6827,-6.851,-6.9283,-6.986,-7.0398,-7.0706,-7.0898,-7.0898,-7.0898,-7.0898,-7.0898,-7.0898,-7.0898,-7.0898,-7.0898,-7.0898,-7.0898,-7.0898,-7.0898,-7.0898,-7.1437,-7.1968,-7.2368,-7.2803,-7.3509,-7.4471,-7.4383,-7.4322,-7.4322,-7.4322,-7.4745,-7.5592,-7.5592,-7.5782,-7.6234,-7.6359,-7.6537,-7.679,-7.6939,-7.7097,-7.7187,-7.7187,-7.7187,-7.7187,-7.7187,-7.7187,-7.7187,-7.7187,-7.7187,-7.7187,-7.7187,-7.7187,-7.7187,0.0,0.0,0.0,0.0,0.0,0.0,0.0,-5.7881,-5.7881,-5.7881,-5.7881,-5.7881,-5.7881,-5.7881,-5.7881,-5.7881,0.0,0.0,0.0,0.0,0.0,0.0,0.0,0.0,-5.7881,-5.7881,-5.7881,-5.7881,-5.7881,-5.7881,-5.7881,-5.7881,-5.7881,-5.7881,-5.7881,-5.7881,0.0,0.0,0.0,0.0,-5.7881,-5.7881,-5.7881,0.0,0.0,0.0,0.0,0.0,0.0,0.0,0.0,0.0,0.0,0.0,0.0,0.0,-6.2805,-6.2805,-6.2805,-6.3168,-6.391,-6.5272,-6.621,-6.7362,-6.9278,-6.9937,-7.0283,-7.0783,-7.0898,-7.0898,-7.0898,-7.0898,-7.0898,-7.0898,-7.0898,-7.0898,-7.0898,-7.0898,-7.0952,-7.1004,-7.1004,-7.1193,-7.1579,-7.2028,-7.2631,-7.339,-7.3852,-7.4461,-7.5443,-7.5374,-7.5324,-7.5407,-7.5324,-7.5594,-7.6219,-7.6219,-7.6273,-7.64,-7.656,-7.6715,-7.6887,-7.7048,-7.7144,-7.7187,-7.7187,-7.7187,0.0,-7.7187,-7.7187,-7.7187,-7.7187,-7.7187,-7.7187,-7.7187,-7.7187,-7.7187,0.0,0.0,0.0,0.0,0.0,0.0,0.0,0.0,-5.7881,-5.7881,-5.7881,-5.7881,-5.7881,-5.7881,-5.7881,-5.7881,0.0,0.0,0.0,0.0,0.0,0.0,0.0,0.0,-5.7881,-5.7881,-5.7881,-5.7881,-5.7881,-5.7881,-5.7881,-5.7881,-5.7881,-5.7881,-5.7881,-5.7881,-5.7881,-5.7881,-5.7881,-5.7881,-5.7881,-5.7881,0.0,0.0,0.0,0.0,0.0,0.0,0.0,0.0,0.0,0.0,0.0,0.0,0.0,0.0,0.0,0.0,0.0,-6.3289,-6.4027,-6.5348,-6.6701,-6.8119,-6.947,-7.036,0.0,-7.0898,-7.0898,-7.0898,-7.0898,-7.0898,-7.0898,-7.0898,-7.0898,-7.0898,-7.0898,-7.0925,-7.1017,-7.1257,-7.1319,-7.1726,-7.2794,-7.275,-7.3374,-7.4925,-7.5098,-7.5446,-7.6281,-7.6338,-7.6419,-7.6597,-7.6438,-7.6438,-7.6582,-7.6582,-7.6621,-7.6597,-7.6597,-7.6738,-7.6933,-7.6933,-7.7005,-7.7187,-7.7187,-7.7187,-7.7187,-7.7187,-7.7187,-7.7187,-7.7187,-7.7187,-7.7187,-7.7187,-7.7187,-7.7187,0.0,0.0,0.0,0.0,0.0,0.0,0.0,0.0,0.0,0.0,-5.7881,-5.7881,-5.7881,-5.7881,-5.7881,0.0,0.0,0.0,0.0,0.0,0.0,0.0,0.0,0.0,-5.7881,-5.7881,-5.7881,-5.7881,-5.7881,-5.7881,-5.7881,-5.7881,-5.7881,-5.7881,-5.7881,-5.7881,-5.7881,-5.7881,-5.7881,-5.7881,-5.7881,-5.7881,0.0,0.0,0.0,0.0,-5.8633,-5.9509,0.0,0.0,0.0,0.0,0.0,0.0,0.0,0.0,-6.2805,-6.2952,-6.3613,0.0,-6.5385,-6.6332,-6.7926,-6.9442,0.0,-7.0744,-7.0898,-7.0898,-7.0898,-7.0898,-7.0898,-7.0898,-7.0898,-7.0898,-7.0898,-7.0898,-7.0898,-7.1053,-7.139,-7.2112,-7.2341,-7.2764,-7.3639,-7.4296,-7.487,-7.5435,-7.5949,-7.6388,-7.6749,-7.6597,-7.6597,-7.6839,-7.677,-7.6715,-7.6582,-7.6582,-7.669,-7.6847,-7.6839,-7.6933,-7.7144,-7.7144,-7.7147,-7.7187,-7.7187,-7.7187,-7.7187,-7.7187,-7.7187,-7.7187,-7.7187,-7.7187,-7.7187,-7.7187,-7.7187,-7.7187,0.0,0.0,0.0,0.0,0.0,0.0,0.0,0.0,0.0,0.0,0.0,0.0,0.0,0.0,0.0,0.0,0.0,0.0,0.0,0.0,0.0,0.0,0.0,-5.7881,-5.7881,-5.7881,-5.7881,-5.7881,-5.7881,-5.7881,-5.7881,-5.7881,-5.7881,-5.7881,-5.7881,-5.7881,-5.7881,-5.7881,-5.7881,-5.7881,-5.7881,0.0,0.0,0.0,0.0,0.0,-5.8388,-5.9346,0.0,-6.0879,-6.186,-6.2805,0.0,0.0,0.0,0.0,-6.3099,-6.3503,-6.398,-6.4823,-6.5917,-6.7125,-6.8602,-6.9898,-7.0706,-7.0898,-7.0898,-7.0898,-7.0898,-7.0898,-7.0898,-7.0898,-7.0898,-7.0898,-7.0898,-7.0898,-7.0898,-7.1158,-7.1508,-7.1974,-7.2549,-7.3261,-7.4172,-7.4996,-7.565,-7.6177,-7.6517,-7.678,-7.688,-7.678,-7.6839,-7.7048,-7.7048,-7.6995,-7.6864,-7.6864,-7.6933,-7.7048,-7.7048,-7.71,-7.7187,-7.7187,-7.7187,-7.7187,-7.7187,-7.7187,-7.7187,-7.7187,-7.7187,-7.7187,-7.7187,-7.7187,-7.7187,-7.7187,-7.7187,-7.7187,0.0,0.0,0.0,0.0,0.0,0.0,0.0,0.0,0.0,0.0,0.0,0.0,0.0,0.0,0.0,0.0,0.0,0.0,0.0,0.0,0.0,0.0,-5.7881,-5.7881,-5.7881,-5.7881,-5.7881,-5.7881,-5.7881,-5.7881,-5.7881,-5.7881,-5.7881,-5.7881,-5.7881,-5.7881,-5.7881,-5.7881,-5.7881,-5.7881,-5.7881,0.0,0.0,0.0,0.0,0.0,0.0,0.0,0.0,-6.0519,-6.1548,-6.2805,-6.2805,0.0,0.0,0.0,0.0,0.0,-6.4237,-6.5121,-6.6333,-6.7767,-6.9022,-7.0052,-7.0744,-7.0898,-7.0898,-7.0898,-7.0898,-7.0898,-7.0898,-7.0898,-7.0898,-7.0898,-7.0898,-7.0898,-7.0898,-7.1242,-7.1601,-7.1835,-7.2695,-7.3725,-7.4882,-7.549,-7.6164,-7.69,-7.6939,-7.6939,-7.6939,-7.6939,-7.7005,-7.7187,-7.7187,-7.7187,-7.7187,-7.7187,-7.7187,-7.7187,-7.7187,-7.7187,-7.7187,-7.7187,-7.7187,-7.7187,-7.7187,0.0,-7.7187,-7.7187,-7.7187,-7.7187,-7.7187,-7.7187,-7.7187,-7.7187,-7.7187,-7.7187,0.0,0.0,0.0,0.0,0.0,0.0,0.0,0.0,0.0,0.0,0.0,0.0,0.0,0.0,0.0,0.0,0.0,0.0,0.0,0.0,0.0,-5.7881,-5.7881,-5.7881,-5.7881,-5.7881,-5.7881,-5.7881,-5.7881,-5.7881,-5.7881,-5.7881,-5.7881,-5.7881,-5.7881,-5.7881,-5.7881,-5.7881,-5.7881,-5.7881,-5.7881,0.0,0.0,0.0,0.0,0.0,0.0,0.0,0.0,-6.1171,-6.2023,-6.2805,-6.2805,0.0,0.0,0.0,0.0,0.0,-6.4934,-6.6387,-6.7767,-6.8032,-6.9442,-7.0744,-7.086,-7.0898,-7.0898,-7.0898,-7.0898,-7.0898,-7.0898,-7.0898,-7.0898,-7.0898,-7.0898,-7.0898,-7.0898,-7.1242,-7.2029,-7.3444,-7.4044,-7.4999,-7.664,-7.6874,-7.699,-7.7147,-7.7147,-7.7147,-7.7147,-7.7147,-7.7187,-7.7187,-7.7187,-7.7187,-7.7187,-7.7187,-7.7187,-7.7187,-7.7187,-7.7187,-7.7187,-7.7187,-7.7187,-7.7187,-7.7187,-7.7187,-7.7187,-7.7187,-7.7187,-7.7187,-7.7187,-7.7187,-7.7187,-7.7187,-7.7187,-7.7187,0.0,0.0,0.0,0.0,0.0,0.0,0.0,0.0,0.0,0.0,0.0,0.0,0.0,0.0,0.0,0.0,0.0,0.0,0.0,0.0,-5.7881,-5.7881,-5.7881,-5.7881,-5.7881,-5.7881,-5.7881,-5.7881,-5.7881,-5.7881,-5.7881,-5.7881,-5.7881,-5.7881,-5.7881,-5.7881,-5.7881,-5.7881,-5.7881,-5.7881,0.0,0.0,0.0,0.0,0.0,0.0,0.0,0.0,0.0,0.0,-6.1806,-6.2805,-6.2805,0.0,0.0,0.0,0.0,0.0,-6.5191,-6.6984,-6.8747,-6.8747,-6.9828,-7.0898,-7.0898,-7.0898,-7.0898,-7.0898,-7.0898,-7.0898,-7.0898,-7.0898,-7.0898,-7.0898,-7.0898,-7.0898,-7.0898,-7.1158,-7.1831,-7.3197,-7.3977,-7.4988,-7.6367,-7.6914,-7.7187,-7.7187,-7.7187,-7.7187,-7.7187,-7.7187,-7.7187,-7.7187,-7.7187,-7.7187,-7.7187,-7.7187,-7.7187,-7.7187,-7.7187,-7.7187,-7.7187,-7.7187,-7.7187,-7.7187,0.0,-7.7187,-7.7187,-7.7187,-7.7187,-7.7187,-7.7187,-7.7187,-7.7187,-7.7187,-7.7187,-7.7187,0.0,0.0,0.0,0.0,0.0,0.0,0.0,0.0,0.0,0.0,0.0,0.0,0.0,0.0,0.0,0.0,0.0,0.0,0.0,-5.7881,-5.7881,-5.7881,-5.7881,-5.7881,-5.7881,-5.7881,-5.7881,-5.7881,-5.7881,-5.7881,-5.7881,-5.7881,-5.7881,-5.7881,-5.7881,-5.7881,-5.7881,-5.7881,-5.7881,-5.7881,0.0,0.0,0.0,0.0,0.0,0.0,0.0,0.0,0.0,0.0,0.0,0.0,0.0,0.0,0.0,-6.2805,-6.4016,-6.5301,-6.5301,-6.7282,-6.9313,-6.9313,-7.0095,-7.0898,-7.0898,-7.0898,-7.0898,-7.0898,-7.0898,-7.0898,-7.0898,-7.0898,-7.0898,-7.0898,-7.0898,-7.0898,-7.0898,-7.1062,-7.1668,-7.2949,-7.3817,-7.4809,-7.6093,-7.6797,-7.7187,-7.7187,-7.7187,-7.7187,-7.7187,-7.7187,-7.7187,-7.7187,-7.7187,-7.7187,-7.7187,-7.7187,-7.7187,-7.7187,-7.7187,-7.7187,-7.7187,-7.7187,-7.7187,-7.7187,-7.7187,-7.7187,-7.7187,-7.7187,-7.7187,-7.7187,-7.7187,-7.7187,-7.7187,-7.7187,-7.7187,-7.7187,0.0,0.0,0.0,0.0,0.0,0.0,0.0,0.0,0.0,0.0,0.0,0.0,0.0,0.0,0.0,0.0,0.0,0.0,0.0,-5.7881,-5.7881,-5.7881,-5.7881,-5.7881,-5.7881,-5.7881,-5.7881,-5.7881,-5.7881,-5.7881,-5.7881,-5.7881,-5.7881,-5.7881,-5.7881,-5.7881,-5.7881,-5.7881,-5.7881,-5.7881,-5.7881,0.0,0.0,0.0,0.0,0.0,0.0,0.0,0.0,0.0,0.0,0.0,0.0,0.0,-6.2805,-6.2805,-6.4016,-6.5301,-6.5301,-6.7282,-6.9313,-6.9313,-7.0095,-7.0898,-7.0898,-7.0898,-7.0898,-7.0898,-7.0898,-7.0898,-7.0898,-7.0898,-7.0898,-7.0898,-7.0898,-7.0898,-7.0898,-7.1062,-7.1862,-7.3688,-7.4129,-7.5043,-7.6914,-7.7148,-7.7187,-7.7187,-7.7187,-7.7187,-7.7187,-7.7187,-7.7187,-7.7187,-7.7187,-7.7187,-7.7187,-7.7187,-7.7187,-7.7187,-7.7187,-7.7187,-7.7187,-7.7187,-7.7187,-7.7187,-7.7187,-7.7187,-7.7187,-7.7187,-7.7187,-7.7187,-7.7187,-7.7187,-7.7187,-7.7187,-7.7187,-7.7187,0.0,0.0,0.0,0.0,0.0,0.0,0.0,0.0,0.0,0.0,0.0,0.0,0.0,0.0,0.0,0.0,0.0,0.0,0.0,-5.7881,-5.7881,-5.7881,-5.7881,-5.7881,-5.7881,-5.7881,-5.7881,-5.7881,-5.7881,-5.7881,-5.7881,-5.7881,-5.7881,-5.7881,-5.7881,-5.7881,-5.7881,-5.7881,-5.7881,-5.7881,-5.7881,-5.7881,0.0,0.0,0.0,0.0,0.0,0.0,0.0,0.0,-6.0938,-6.1715,-6.2567,-6.2805,-6.2805,-6.2805,-6.4016,-6.5301,-6.5301,-6.7282,-6.9313,-6.9313,-7.0095,-7.0898,-7.0898,-7.0898,-7.0898,-7.0898,-7.0898,-7.0898,-7.0898,-7.0898,-7.0898,-7.0898,-7.0898,-7.0898,-7.0898,-7.0966,-7.1756,-7.3752,-7.4092,-7.4944,-7.6991,-7.7187,-7.7187,-7.7187,-7.7187,-7.7187,-7.7187,-7.7187,-7.7187,-7.7187,-7.7187,-7.7187,-7.7187,-7.7187,-7.7187,-7.7187,-7.7187,-7.7187,-7.7187,-7.7187,-7.7187,-7.7187,-7.7187,-7.7187,-7.7187,-7.7187,-7.7187,-7.7187,-7.7187,-7.7187,-7.7187,-7.7187,-7.7187,-7.7187,0.0,0.0,0.0,0.0,0.0,0.0,0.0,0.0,0.0,0.0,0.0,0.0,0.0,0.0,0.0,0.0,0.0,0.0,-5.7881,-5.7881,-5.7881,-5.7881,-5.7881,-5.7881,-5.7881,-5.7881,-5.7881,-5.7881,-5.7881,-5.7735,-5.7372,-5.7701,-5.7701,-5.7372,-5.7735,-5.7881,-5.7881,-5.7881,-5.7881,-5.7881,-5.7881,-5.7881,0.0,0.0,0.0,0.0,0.0,0.0,0.0,0.0,-6.1113,-6.1715,-6.2567,-6.2805,-6.2805,-6.2805,-6.4016,-6.5353,-6.5483,-6.7382,-6.9353,-6.9511,-7.0233,-7.0898,-7.0898,-7.0898,-7.0898,-7.0898,-7.0898,-7.0898,-7.0898,-7.0898,-7.0898,-7.0898,-7.0898,-7.0898,-7.0898,-7.0898,-7.1656,-7.3752,-7.3989,-7.486,-7.6991,-7.7187,-7.7187,-7.7187,-7.7187,-7.7187,-7.7187,-7.7187,-7.7187,-7.7187,-7.7187,-7.7187,-7.7187,-7.7187,-7.7187,-7.7187,-7.7187,-7.7187,-7.7187,-7.7187,-7.7187,-7.7187,-7.7187,-7.7187,-7.7187,-7.7187,-7.7187,-7.7187,-7.7187,-7.7187,-7.7187,-7.7187,-7.7187,-7.7187,0.0,0.0,0.0,0.0,0.0,0.0,0.0,0.0,0.0,0.0,0.0,0.0,0.0,0.0,0.0,0.0,0.0,0.0,-5.7881,-5.7881,-5.7881,-5.7881,-5.7881,-5.7881,-5.7881,-5.7881,-5.7881,-5.7881,-5.7881,-5.7297,-5.6204,-5.7372,-5.7297,-5.6282,-5.7372,-5.7881,-5.7881,-5.7881,-5.7881,-5.7881,-5.7881,-5.7881,-5.7881,0.0,0.0,0.0,0.0,0.0,0.0,0.0,-6.1604,-6.1715,-6.2567,-6.2805,-6.2805,-6.2805,-6.4016,-6.5419,-6.5952,-6.7653,-6.9433,-6.9992,-7.0494,-7.0898,-7.0898,-7.0898,-7.0898,-7.0898,-7.0898,-7.0898,-7.0898,-7.0898,-7.0898,-7.0898,-7.0898,-7.0898,-7.0898,-7.0898,-7.1656,-7.3752,-7.3989,-7.486,-7.6991,-7.7187,-7.7187,-7.7187,-7.7187,-7.7187,-7.7187,-7.7187,-7.7187,-7.7187,-7.7187,-7.7187,-7.7187,-7.7187,-7.7187,-7.7187,-7.7187,-7.7187,-7.7187,-7.7187,-7.7187,-7.7187,-7.7187,-7.7187,-7.7187,-7.7187,-7.7187,-7.7187,-7.7187,-7.7187,-7.7187,-7.7187,-7.7187,-7.7187,0.0,0.0,0.0,0.0,0.0,0.0,0.0,0.0,0.0,0.0,0.0,0.0,0.0,0.0,0.0,0.0,0.0,0.0,-5.7881,-5.7881,-5.7881,-5.7881,-5.7881,-5.7881,-5.7881,-5.7881,-5.7554,-5.6701,-5.7554,-5.7297,-5.6204,-5.7372,-5.7701,-5.7372,-5.7735,-5.7881,-5.7881,-5.7881,-5.7881,-5.7881,-5.7881,-5.7881,-5.7881,0.0,0.0,0.0,0.0,0.0,0.0,0.0,0.0,0.0,-6.2567,-6.2805,-6.2805,-6.2805,-6.4016,-6.5419,-6.5952,-6.7653,-6.9433,-6.9992,-7.0494,-7.0898,-7.0898,-7.0898,-7.0898,-7.0898,-7.0898,-7.0898,-7.0898,-7.0898,-7.0898,-7.0898,-7.0898,-7.0898,-7.0898,-7.0898,-7.1656,-7.3752,-7.3989,-7.486,-7.6991,-7.7187,-7.7187,-7.7187,-7.7187,-7.7187,-7.7187,-7.7187,-7.7187,-7.7187,-7.7187,-7.7187,-7.7187,-7.7187,-7.7187,-7.7187,-7.7187,-7.7187,-7.7187,-7.7187,-7.7187,-7.7187,-7.7187,-7.7187,-7.7187,-7.7187,-7.7187,-7.7187,-7.7187,-7.7187,-7.7187,-7.7187,-7.7187,-7.7187,0.0,0.0,0.0,0.0,0.0,0.0,0.0,0.0,0.0,0.0,-5.7881,-5.7881,0.0,0.0,0.0,0.0,0.0,0.0,0.0,-5.7881,-5.7881,-5.7881,-5.7881,-5.7881,-5.7881,-5.7881,-5.7372,-5.6204,-5.7372,-5.7297,-5.6204,-5.7372,-5.7628,-5.7222,-5.7701,-5.7881,-5.7881,-5.7881,-5.7881,-5.7881,-5.7881,-5.7881,-5.7881,0.0,0.0,0.0,0.0,0.0,0.0,0.0,0.0,0.0,-6.2654,-6.2805,-6.2879,-6.3209,-6.4273,-6.5543,-6.6605,-6.8048,-6.9472,-7.0233,-7.0652,-7.0898,-7.0898,-7.0898,-7.0898,-7.0898,-7.0898,-7.0898,-7.0898,-7.0898,-7.0898,-7.0898,-7.0898,-7.0898,-7.0898,-7.0898,-7.1656,-7.3752,-7.3989,-7.486,-7.6991,-7.7187,-7.7187,-7.7187,-7.7187,-7.7187,-7.7187,-7.7187,-7.7187,-7.7187,-7.7187,-7.7187,-7.7187,-7.7187,-7.7187,-7.7187,-7.7187,-7.7187,-7.7187,-7.7187,-7.7187,-7.7187,-7.7187,-7.7187,-7.7187,-7.7187,-7.7187,-7.7187,-7.7187,-7.7187,-7.7187,-7.7187,-7.7187,-7.7187,0.0,0.0,0.0,0.0,0.0,0.0,0.0,0.0,0.0,0.0,-5.7881,-5.7881,0.0,0.0,0.0,0.0,0.0,0.0,0.0,0.0,-5.7881,-5.7881,-5.7881,-5.7881,-5.7735,-5.7881,-5.7372,-5.6204,-5.7372,-5.7297,-5.6126,-5.7222,-5.7222,-5.6282,-5.7297,-5.7808,-5.7881,-5.7881,-5.7881,-5.7881,-5.7881,-5.7881,-5.7881,-5.7881,0.0,0.0,0.0,0.0,0.0,0.0,0.0,0.0,-6.2805,-6.2805,-6.2989,-6.3759,-6.4604,-6.5717,-6.7438,-6.8555,-6.955,-7.0593,-7.0871,-7.0898,-7.0898,-7.0898,-7.0898,-7.0898,-7.0898,-7.0898,-7.0898,-7.0898,-7.0898,-7.0898,-7.0898,-7.0898,-7.0898,-7.0898,-7.1656,-7.3752,-7.3989,-7.486,-7.6991,-7.7187,-7.7187,-7.7187,-7.7187,-7.7187,-7.7187,-7.7187,-7.7187,-7.7187,-7.7187,-7.7187,-7.7187,-7.7187,-7.7187,-7.7187,-7.7187,-7.7187,-7.7187,-7.7187,-7.7187,-7.7187,-7.7187,-7.7187,-7.7187,-7.7187,-7.7187,-7.7187,-7.7187,-7.7187,-7.7187,-7.7187,-7.7187,-7.7187,0.0,0.0,0.0,0.0,0.0,0.0,0.0,0.0,0.0,0.0,0.0,0.0,0.0,0.0,0.0,0.0,0.0,0.0,0.0,0.0,-5.7881,-5.7881,-5.7881,-5.748,-5.6624,-5.7446,-5.7372,-5.6204,-5.7372,-5.6887,-5.5002,-5.6047,-5.6437,-5.6204,-5.647,-5.7039,-5.7881,-5.7881,-5.7881,-5.7881,-5.7881,-5.7881,-5.7881,-5.7881,-5.7881,0.0,0.0,0.0,0.0,0.0,0.0,0.0,-6.2805,-6.2805,-6.2842,-6.3025,-6.4127,-6.5506,-6.6321,-6.7851,-6.9472,-7.0095,-7.0593,-7.0898,-7.0898,-7.0898,-7.0898,-7.0898,-7.0898,-7.0898,-7.0898,-7.0898,-7.0898,-7.0898,-7.0898,-7.0898,-7.0898,-7.0898,-7.1656,-7.3752,-7.3989,-7.486,-7.6991,-7.7187,-7.7187,-7.7187,-7.7187,-7.7187,-7.7187,-7.7187,-7.7187,-7.7187,-7.7187,-7.7187,-7.7187,-7.7187,-7.7187,-7.7187,-7.7187,-7.7187,-7.7187,-7.7187,-7.7187,-7.7187,-7.7187,-7.7187,-7.7187,-7.7187,-7.7187,-7.7187,-7.7187,-7.7187,-7.7187,-7.7187,-7.7187,-7.7187,0.0,0.0,0.0,0.0,0.0,0.0,0.0,0.0,0.0,0.0,0.0,0.0,0.0,0.0,0.0,0.0,0.0,0.0,0.0,0.0,-5.7881,-5.7881,-5.7372,-5.6778,-5.6204,-5.6778,-5.6547,-5.5377,-5.6547,-5.647,-5.5377,-5.5968,-5.6204,-5.6204,-5.6778,-5.7372,-5.7881,-5.7881,-5.7881,-5.7881,-5.7881,-5.7881,-5.7881,-5.7881,-5.8137,-5.8633,-5.996,0.0,0.0,0.0,0.0,0.0,0.0,0.0,-6.2989,-6.3759,-6.464,-6.5602,-6.6918,-6.8253,-6.9511,-7.0298,-7.0681,-7.0898,-7.0898,-7.0898,-7.0898,-7.0898,-7.0898,-7.0898,-7.0898,-7.0898,-7.0898,-7.0898,-7.0898,-7.0898,-7.0898,-7.0898,-7.1656,-7.3752,-7.3989,-7.486,-7.6991,-7.7187,-7.7187,-7.7187,-7.7187,-7.7187,-7.7187,-7.7187,-7.7187,-7.7187,-7.7187,-7.7187,-7.7187,-7.7187,-7.7187,-7.7187,-7.7187,-7.7187,-7.7187,-7.7187,-7.7187,-7.7187,-7.7187,-7.7187,-7.7187,-7.7187,-7.7187,-7.7187,-7.7187,-7.7187,-7.7187,-7.7187,-7.7187,-7.7187,0.0,0.0,0.0,0.0,0.0,0.0,0.0,0.0,0.0,0.0,0.0,0.0,0.0,0.0,0.0,0.0,0.0,0.0,0.0,0.0,0.0,-5.7881,-5.6778,-5.6204,-5.6204,-5.6047,-5.549,-5.4589,-5.5296,-5.5618,-5.5618,-5.5618,-5.5698,-5.5968,-5.6887,-5.7554,-5.7881,-5.7881,-5.7881,-5.7881,-5.7881,-5.7881,-5.7881,-5.8065,-5.8494,-5.9245,-6.0273,-6.1055,-6.1715,-6.2515,0.0,0.0,0.0,0.0,-6.3319,-6.4714,-6.5301,-6.5882,-6.7703,-6.8728,-6.955,-7.0622,-7.0898,-7.0898,-7.0898,-7.0898,-7.0898,-7.0898,-7.0898,-7.0898,-7.0898,-7.0898,-7.0898,-7.0898,-7.0898,-7.0898,-7.0898,-7.0898,-7.1656,-7.3745,-7.4014,-7.485,-7.6946,-7.7187,-7.7187,-7.7187,-7.7187,-7.7187,-7.7187,-7.7187,-7.7187,-7.7187,-7.7187,-7.7187,-7.7187,-7.7187,-7.7187,-7.7187,-7.7187,-7.7187,-7.7187,-7.7187,-7.7187,-7.7187,-7.7187,-7.7187,-7.7187,-7.7187,-7.7187,-7.7187,-7.7187,-7.7187,-7.7187,-7.7187,-7.7187,-7.7187,0.0,0.0,0.0,0.0,0.0,0.0,0.0,0.0,0.0,0.0,-5.7881,-5.7881,0.0,0.0,0.0,0.0,0.0,0.0,0.0,0.0,0.0,-5.7881,-5.6778,-5.6204,-5.6204,-5.5329,-5.4755,-5.4589,-5.3742,-5.3309,-5.3309,-5.3309,-5.3913,-5.4838,-5.5002,-5.608,-5.7881,-5.7881,-5.7881,-5.7881,-5.7881,-5.7881,-5.7954,-5.8668,-5.8976,-5.9311,-6.0843,-6.1548,-6.1715,-6.2515,-6.2805,0.0,0.0,0.0,-6.398,-6.42,-6.5264,-6.6366,-6.6691,-6.7999,-6.955,-7.0622,-7.0898,-7.0898,-7.0898,-7.0898,-7.0898,-7.0898,-7.0898,-7.0898,-7.0898,-7.0898,-7.0898,-7.0898,-7.0898,-7.0898,-7.0898,-7.0898,-7.1634,-7.3586,-7.3923,-7.4767,-7.6737,-7.71,-7.7187,-7.7187,-7.7187,-7.7187,-7.7187,-7.7187,-7.7187,-7.7187,-7.7187,-7.7187,-7.7187,-7.7187,-7.7187,-7.7187,-7.7187,-7.7187,-7.7187,-7.7187,-7.7187,-7.7187,-7.7187,-7.7187,-7.7187,-7.7187,-7.7187,-7.7187,-7.7187,-7.7187,-7.7187,-7.7187,-7.7187,-7.7187,0.0,0.0,0.0,0.0,0.0,0.0,0.0,0.0,0.0,0.0,0.0,-5.7881,0.0,0.0,0.0,0.0,0.0,0.0,0.0,0.0,0.0,-5.6963,-5.5889,-5.497,-5.4389,-5.3913,-5.3309,-5.2634,-5.2812,-5.2575,-5.1972,-5.2575,-5.3483,-5.4672,-5.5247,-5.6393,-5.7881,-5.7881,-5.7881,-5.7881,-5.7881,-5.8209,-5.8633,-5.9011,-5.9669,-6.0605,-6.1343,-6.1915,-6.2324,-6.2705,-6.2805,-6.2915,-6.3392,0.0,0.0,0.0,-6.5962,-6.6706,-6.7746,-6.8888,-6.9918,-7.0719,-7.0898,-7.0898,-7.0898,-7.0898,-7.0898,-7.0898,-7.0898,-7.0898,-7.0898,-7.0898,-7.0898,-7.0898,-7.0898,-7.0898,-7.0898,-7.0898,-7.1609,-7.3562,-7.3906,-7.4755,-7.6716,-7.7097,-7.7187,-7.7187,-7.7187,-7.7187,-7.7187,-7.7187,-7.7187,-7.7187,-7.7187,-7.7187,-7.7187,-7.7187,-7.7187,-7.7187,-7.7187,-7.7187,-7.7187,-7.7187,-7.7187,-7.7187,-7.7187,-7.7187,-7.7187,-7.7187,-7.7187,-7.7187,-7.7187,-7.7187,-7.7187,-7.7187,-7.7187,-7.7187,0.0,0.0,0.0,0.0,0.0,0.0,0.0,0.0,0.0,0.0,0.0,0.0,0.0,0.0,0.0,0.0,0.0,0.0,0.0,0.0,0.0,-5.6204,-5.4888,-5.3913,-5.3309,-5.2723,-5.2245,-5.1635,-5.2245,-5.2063,-5.1199,-5.2395,-5.3483,-5.4672,-5.573,-5.6854,-5.7881,-5.7881,-5.7881,-5.7881,-5.8137,-5.8564,-5.9178,-5.9539,-6.0544,-6.1659,-6.1824,-6.2271,-6.2805,-6.2805,-6.2952,-6.3246,-6.3906,-6.4383,0.0,0.0,0.0,-6.7141,-6.8697,-6.9511,-7.0026,-7.0554,-7.0805,-7.0898,-7.0898,-7.0898,-7.0898,-7.0898,-7.0898,-7.0898,-7.0898,-7.0898,-7.0898,-7.0898,-7.0898,-7.0898,-7.0898,-7.1091,-7.1852,-7.3528,-7.4106,-7.4976,-7.6673,-7.7052,-7.7187,-7.7187,-7.7187,-7.7187,-7.7187,-7.7187,-7.7187,-7.7187,-7.7187,-7.7187,-7.7187,-7.7187,-7.7187,-7.7187,-7.7187,-7.7187,-7.7187,-7.7187,-7.7187,-7.7187,-7.7187,-7.7187,-7.7187,-7.7187,-7.7187,-7.7187,-7.7187,-7.7187,-7.7187,-7.7187,-7.7187,-7.7187,0.0,0.0,0.0,0.0,0.0,0.0,0.0,0.0,0.0,0.0,0.0,0.0,-5.7881,-5.7881,-5.7881,-5.7881,-5.7881,0.0,0.0,0.0,0.0,-5.6204,-5.4137,0.0,-5.4505,-5.2395,-5.1819,-5.2812,-5.1819,-5.1229,-5.1199,-5.2395,-5.3483,-5.4672,-5.573,-5.6854,-5.7881,-5.7881,-5.7881,-5.7954,-5.8737,-5.9044,-5.9311,-6.0843,-6.1512,-6.1715,-6.2464,-6.2755,-6.2805,-6.2805,-6.3356,-6.4016,-6.409,-6.5154,-6.6402,0.0,0.0,0.0,-6.8368,-6.8935,-6.9472,-7.0026,-7.0524,-7.0898,-7.0898,-7.0898,-7.0898,-7.0898,-7.0898,-7.0898,-7.0898,-7.0898,-7.0898,-7.0898,-7.0898,-7.0898,-7.0898,-7.1591,-7.2476,-7.3427,-7.4518,-7.5624,-7.6519,-7.699,-7.7187,-7.7187,-7.7187,-7.7187,-7.7187,-7.7187,-7.7187,-7.7187,-7.7187,-7.7187,-7.7187,-7.7187,-7.7187,-7.7187,-7.7187,-7.7187,-7.7187,-7.7187,-7.7187,-7.7187,-7.7187,-7.7187,-7.7187,-7.7187,-7.7187,-7.7187,-7.7187,-7.7187,-7.7187,-7.7187,-7.7187,-7.7187,0.0,0.0,0.0,0.0,0.0,0.0,0.0,0.0,0.0,0.0,0.0,0.0,0.0,-5.7222,-5.7114,-5.7808,-5.7222,0.0,0.0,0.0,0.0,-5.4137,-5.3309,-5.2723,-5.2395,-5.1635,-5.1386,-5.1819,-5.1386,-5.1229,-5.1199,-5.3165,-5.4253,-5.4672,-5.573,-5.6854,-5.7881,-5.7881,-5.7881,-5.7954,-5.8174,-5.8943,-6.0023,-6.058,-6.1492,-6.2376,-6.2705,-6.2805,-6.2915,-6.3466,-6.3833,-6.4273,-6.5301,-6.6035,-6.6586,-6.71,-6.7709,-6.8357,-6.8847,-6.9433,-6.9918,-7.0494,-7.0777,-7.0898,-7.0898,-7.0898,-7.0898,-7.0898,-7.0898,-7.0898,-7.0898,-7.0898,-7.0898,-7.0898,-7.0898,-7.0898,-7.0898,-7.1629,-7.2514,-7.3399,-7.4557,-7.5648,-7.6504,-7.6945,-7.7187,-7.7187,-7.7187,-7.7187,-7.7187,-7.7187,-7.7187,-7.7187,-7.7187,-7.7187,-7.7187,-7.7187,-7.7187,-7.7187,-7.7187,-7.7187,-7.7187,-7.7187,-7.7187,-7.7187,-7.7187,-7.7187,-7.7187,-7.7187,-7.7187,-7.7187,-7.7187,-7.7187,-7.7187,-7.7187,-7.7187,-7.7187,0.0,0.0,0.0,0.0,0.0,0.0,0.0,0.0,-5.636,-5.6734,0.0,0.0,0.0,0.0,-5.6514,-5.7297,-5.6624,-5.6047,-5.573,-5.5002,-5.4084,-5.2989,-5.2575,-5.1972,-5.1229,-5.1229,-5.1229,-5.1229,-5.1229,-5.1229,-5.1199,-5.3483,-5.4589,-5.4672,-5.6126,-5.7222,-5.7881,-5.7881,-5.7881,-5.7954,-5.8528,-5.9412,-6.0458,-6.0997,-6.186,-6.2805,-6.2805,-6.2989,-6.3319,-6.3906,-6.4457,-6.5081,-6.6145,-6.6696,-6.699,-6.754,-6.8097,-6.8567,-6.8935,-6.955,-7.0162,-7.0524,-7.0777,-7.0898,-7.0898,-7.0898,-7.0898,-7.0898,-7.0898,-7.0898,-7.0898,-7.0898,-7.0898,-7.0898,-7.0898,-7.0898,-7.0898,-7.1898,-7.286,-7.3437,-7.4829,-7.596,-7.6543,-7.6945,-7.7187,-7.7187,-7.7187,-7.7187,-7.7187,-7.7187,-7.7187,-7.7187,-7.7187,-7.7187,-7.7187,-7.7187,-7.7187,-7.7187,-7.7187,-7.7187,-7.7187,-7.7187,-7.7187,-7.7187,-7.7187,-7.7187,-7.7187,-7.7187,-7.7187,-7.7187,-7.7187,-7.7187,-7.7187,-7.7187,-7.7187,-7.7187,0.0,0.0,0.0,0.0,0.0,0.0,0.0,0.0,-5.5777,-5.4755,0.0,0.0,0.0,0.0,0.0,-5.6126,-5.6126,-5.5618,-5.4589,-5.4505,-5.3999,-5.29,0.0,0.0,-5.1229,-5.1229,-5.1229,-5.1229,-5.1229,-5.1229,-5.1293,-5.3569,-5.4589,-5.4755,-5.6887,-5.7881,-5.7881,-5.7881,-5.7881,-5.7993,-5.9739,-6.0371,-6.058,-6.2166,-6.2755,-6.2805,-6.2805,-6.3356,-6.409,-6.4127,-6.5191,-6.6512,-6.6512,-6.7063,-6.7687,-6.7687,-6.8097,-6.8511,0.0,0.0,0.0,-7.0129,-7.0494,-7.0898,-7.0898,-7.0898,-7.0898,-7.0898,-7.0898,-7.0898,-7.0898,-7.0898,-7.0898,-7.0898,-7.0898,-7.0898,-7.0937,-7.2437,-7.3514,-7.3514,-7.5333,-7.6582,-7.6636,-7.699,-7.7187,-7.7187,-7.7187,-7.7187,-7.7187,-7.7187,-7.7187,-7.7187,-7.7187,-7.7187,-7.7187,-7.7187,-7.7187,-7.7187,-7.7187,-7.7187,-7.7187,-7.7187,-7.7187,-7.7187,-7.7187,-7.7187,-7.7187,-7.7187,-7.7187,-7.7187,-7.7187,-7.7187,-7.7187,-7.7187,-7.7187,-7.7187,0.0,0.0,0.0,0.0,0.0,-5.2154,-5.3514,-5.4505,-5.5215,0.0,0.0,0.0,-5.5247,-5.5084,-5.4723,-5.3882,-5.3796,-5.3656,-5.3396,-5.2575,-5.1972,-5.1635,-5.1386,-5.1229,-5.1229,-5.1229,-5.1229,-5.1229,-5.1229,-5.1635,-5.2485,-5.3913,-5.497,-5.581,-5.7297,-5.7881,-5.7881,-5.7881,-5.7881,-5.8027,-5.9078,-5.9832,-6.0519,-6.1548,-6.2271,-6.2805,-6.2805,-6.3356,-6.42,-6.4787,-6.5668,-6.6586,-6.7173,-6.7504,-6.7687,-6.7687,-6.8097,-6.8567,-6.8978,0.0,0.0,0.0,0.0,0.0,-7.0805,-7.0898,-7.0898,-7.0898,-7.0898,-7.0898,-7.0898,-7.0898,-7.0898,-7.0898,-7.0898,-7.1129,-7.1745,-7.2783,-7.3779,-7.4494,-7.5797,-7.6677,-7.678,-7.7052,-7.7187,-7.7187,-7.7187,-7.7187,-7.7187,-7.7187,-7.7187,-7.7187,-7.7187,-7.7187,-7.7187,-7.7187,-7.7187,-7.7187,-7.7187,-7.7187,-7.7187,-7.7187,-7.7187,-7.7187,-7.7187,-7.7187,-7.7187,-7.7187,-7.7187,-7.7187,-7.7187,-7.7187,-7.7187,-7.7187,-7.7187,-7.7187,0.0,0.0,0.0,0.0,0.0,-5.2245,-5.3077,-5.3999,-5.464,0.0,0.0,0.0,-5.3999,-5.3483,-5.3077,-5.29,-5.29,-5.2723,-5.2245,-5.1972,-5.1727,-5.1229,-5.1229,-5.1229,-5.1229,-5.1229,-5.1229,-5.1229,-5.1229,-5.1542,-5.2245,-5.3828,-5.492,-5.5618,-5.7222,-5.7881,-5.7881,-5.7881,-5.7881,-5.8027,-5.9212,-5.996,-6.0519,-6.1659,-6.2376,-6.2879,-6.3209,-6.387,-6.4714,-6.5521,-6.6329,-6.7063,-6.754,-6.7687,-6.7687,-6.7687,-6.8097,-6.8567,-6.8847,-6.9148,-6.9511,-7.033,0.0,0.0,-7.0777,-7.0898,-7.0898,-7.0898,-7.0898,-7.1014,-7.136,-7.1437,-7.1552,-7.1937,-7.1975,-7.2052,-7.2168,-7.3245,-7.4214,-7.4808,-7.5895,-7.6663,-7.676,-7.7048,-7.7187,-7.7187,-7.7187,-7.7187,-7.7187,-7.7187,-7.7187,-7.7187,-7.7187,-7.7187,-7.7187,-7.7187,-7.7187,-7.7187,-7.7187,-7.7187,-7.7187,-7.7187,-7.7187,-7.7187,-7.7187,-7.7187,-7.7187,-7.7187,-7.7187,-7.7187,-7.7187,-7.7187,-7.7187,-7.7187,-7.7187,-7.7187,0.0,0.0,-5.1229,-5.1229,-5.2063,-5.2395,-5.1542,-5.3077,-5.4084,0.0,-5.2812,-5.2723,-5.29,-5.188,-5.1635,-5.2664,-5.2723,-5.2305,-5.1323,-5.2154,-5.2215,-5.1199,-5.1229,-5.1229,-5.1229,-5.1229,-5.1229,-5.1229,-5.1293,-5.1479,-5.1635,-5.3742,-5.4838,-5.5084,-5.7039,-5.7881,-5.7881,-5.7881,-5.7954,-5.8209,-5.9768,-6.0458,-6.07,-6.2219,-6.2879,-6.3062,-6.3796,-6.4677,-6.5558,-6.6366,-6.71,-6.7687,-6.7687,-6.7687,-6.7687,-6.7687,-6.8097,-6.8511,-6.8511,-6.8966,-6.9546,-7.0106,-7.0286,0.0,-7.1046,-7.1206,-7.1206,-7.1206,-7.1206,-7.1437,-7.2206,-7.2322,-7.2591,-7.336,-7.3591,-7.336,-7.2591,-7.3745,-7.4745,-7.4879,-7.5895,-7.6597,-7.6611,-7.699,-7.7187,-7.7187,-7.7187,-7.7187,-7.7187,-7.7187,-7.7187,-7.7187,-7.7187,-7.7187,-7.7187,-7.7187,-7.7187,-7.7187,-7.7187,-7.7187,-7.7187,-7.7187,-7.7187,-7.7187,-7.7187,-7.7187,-7.7187,-7.7187,-7.7187,-7.7187,-7.7187,-7.7187,-7.7187,-7.7187,-7.7187,-7.7187,0.0,-5.1229,-5.1229,-5.1229,-5.1386,-5.1819,-5.2485,-5.29,-5.3165,-5.29,-5.2063,-5.188,-5.2812,-5.188,-5.1293,-5.1479,-5.1542,-5.1479,-5.1229,-5.1386,-5.1479,-5.1229,-5.1229,-5.1229,-5.1229,-5.1229,-5.1229,-5.1229,-5.2154,-5.3077,-5.3999,-5.5296,-5.6393,-5.7297,-5.7735,-5.7881,-5.7881,-5.7881,-5.8246,-5.8943,-5.996,-6.076,-6.1492,-6.2427,-6.3246,-6.387,-6.4016,-6.5007,-6.6402,-6.7173,-6.7577,-6.7687,-6.7687,-6.7687,-6.7687,-6.7687,-6.8097,-6.8511,-6.8511,-6.9378,-7.0493,-7.102,-7.162,0.0,-7.2851,-7.3014,-7.3014,-7.3014,-7.3014,-7.3053,-7.3206,-7.3245,-7.3322,-7.3476,-7.4053,-7.4399,-7.4245,-7.4476,-7.5011,-7.591,-7.634,-7.6638,-7.6839,-7.7055,-7.7187,-7.7187,-7.7187,-7.7187,-7.7187,-7.7187,-7.7187,-7.7187,-7.7187,-7.7187,-7.7187,-7.7187,-7.7187,-7.7187,-7.7187,-7.7187,-7.7187,-7.7187,-7.7187,-7.7187,-7.7187,-7.7187,-7.7187,-7.7187,-7.7187,-7.7187,-7.7187,-7.7187,-7.7187,-7.7187,-7.7187,-7.7187,-5.1229,-5.1229,-5.1229,-5.1229,-5.1635,-5.2063,-5.2063,-5.2575,-5.2754,-5.2154,-5.1542,-5.1386,-5.1972,-5.1542,-5.1229,-5.1229,-5.1229,-5.1229,-5.1229,-5.1229,-5.1229,-5.1229,-5.1229,-5.1229,-5.1229,-5.1229,-5.1229,-5.1229,-5.2305,-5.3165,-5.3828,-5.5458,-5.6514,-5.7039,-5.7628,-5.7881,-5.7881,-5.7881,-5.8633,-5.9768,-6.0211,-6.0879,-6.1751,-6.2991,-6.3723,-6.42,-6.5007,-6.6072,-6.7136,-6.754,-6.7687,-6.7687,-6.7687,-6.7687,-6.7687,-6.7687,-6.8173,-6.8726,-6.8726,-6.9496,-7.0537,-7.1365,-7.1902,0.0,0.0,-7.3514,-7.3514,-7.3514,-7.3514,-7.363,-7.4014,-7.4091,-7.4245,-7.4668,-7.5091,-7.5361,-7.5361,-7.5361,-7.5533,-7.607,-7.6419,-7.6663,-7.6738,-7.7005,-7.7187,-7.7187,-7.7187,-7.7187,-7.7187,-7.7187,-7.7187,-7.7187,-7.7187,-7.7187,-7.7187,-7.7187,-7.7187,-7.7187,-7.7187,-7.7187,-7.7187,-7.7187,-7.7187,-7.7187,-7.7187,-7.7187,-7.7187,-7.7187,-7.7187,-7.7187,-7.7187,-7.7187,-7.7187,-7.7187,-7.7187,-7.7187,-5.1229,-5.1229,-5.1229,-5.1229,-5.1972,-5.2215,-5.1293,-5.1972,-5.2215,-5.1293,-5.1229,-5.1293,-5.1479,-5.1293,-5.1293,-5.1479,-5.1293,-5.1229,-5.1229,-5.1229,-5.1229,-5.1229,-5.1229,-5.1229,-5.1229,-5.1229,-5.1229,-5.1229,-5.2305,-5.2989,-5.3221,-5.5296,-5.6282,-5.6547,-5.748,-5.7881,-5.7881,-5.7881,-5.8841,-6.0432,-6.0574,-6.1247,-6.2205,-6.3555,-6.4273,-6.4751,-6.6219,-6.7136,-6.7687,-6.7687,-6.7687,-6.7687,-6.7687,-6.7687,-6.7724,-6.7871,-6.8385,-6.8935,-6.9082,-6.9816,-7.0761,-7.177,-7.2226,-7.2699,0.0,0.0,0.0,-7.3976,-7.3976,-7.4168,-7.4822,-7.4938,-7.513,-7.5668,-7.5899,-7.5938,-7.5784,-7.5899,-7.6015,-7.6015,-7.6316,-7.6576,-7.6621,-7.6933,-7.7147,-7.7187,-7.7148,-7.7147,-7.7187,-7.7187,-7.7187,-7.7187,-7.7187,-7.7187,-7.7187,-7.7187,-7.7187,-7.7187,-7.7187,-7.7187,-7.7187,-7.7187,-7.7187,-7.7187,-7.7187,-7.7187,-7.7187,-7.7187,-7.7187,-7.7187,-7.7187,-7.7187,-7.7187,-7.7187,-7.7187,-7.7187,-5.1229,-5.1229,-5.1229,-5.1229,0.0,-5.1386,-5.1229,-5.1293,-5.1386,-5.1229,-5.1229,-5.1542,-5.2575,-5.1819,-5.1635,-5.2664,-5.1819,-5.1229,-5.1229,-5.1229,-5.1229,-5.1229,-5.1229,-5.1229,-5.1229,-5.1229,-5.1229,-5.1229,-5.2305,-5.3396,-5.4421,-5.5618,-5.6701,-5.7701,-5.7808,-5.7881,-5.7881,-5.7881,-5.8841,-6.0468,-6.114,-6.2422,-6.3841,-6.4053,-6.4971,-6.6329,-6.7247,-6.7614,-6.7687,-6.7687,-6.7687,-6.7687,-6.7687,-6.7687,-6.7834,-6.8568,-6.8825,-6.9082,-6.9779,-7.093,-7.2111,-7.273,-7.3797,-7.4895,-7.558,0.0,-7.5707,-7.5707,0.0,-7.5745,-7.5822,0.0,0.0,-7.4976,-7.5515,-7.5745,-7.4976,-7.5515,-7.6015,-7.6015,-7.621,-7.64,-7.6567,-7.678,-7.7,-7.7187,-7.7048,-7.7005,-7.7187,-7.7187,-7.7187,-7.7187,-7.7187,-7.7187,-7.7187,-7.7187,-7.7187,-7.7187,-7.7187,-7.7187,-7.7187,-7.7187,-7.7187,-7.7187,-7.7187,-7.7187,-7.7187,-7.7187,-7.7187,-7.7187,-7.7187,-7.7187,-7.7187,-7.7187,-7.7187,-7.7187,-5.1229,-5.1229,-5.1229,-5.1229,0.0,0.0,0.0,-5.1229,-5.1229,-5.1229,-5.1229,-5.1386,-5.1911,-5.1479,-5.1386,-5.188,-5.1479,-5.1229,-5.1229,-5.1229,-5.1229,-5.1229,-5.1229,-5.1229,-5.1229,-5.1229,-5.1229,-5.1229,-5.2305,-5.3483,-5.4589,-5.573,-5.6778,-5.7881,-5.7881,-5.8137,-5.8668,-5.9114,-6.0303,-6.1866,-6.2654,-6.4033,-6.5485,-6.5485,-6.6182,-6.7247,-6.7577,-6.7687,-6.7687,-6.7687,-6.7687,-6.7687,-6.7687,-6.8017,-6.8458,-6.8788,-6.9559,-7.0367,-7.0697,-7.1833,-7.3019,-7.3634,-7.4406,-7.5271,-7.5848,-7.6015,-7.6015,-7.6015,0.0,0.0,0.0,0.0,0.0,0.0,-7.5745,-7.5861,-7.5515,-7.5784,-7.6015,-7.6015,-7.6185,0.0,-7.6749,-7.6749,-7.6856,-7.7187,-7.7005,-7.6995,-7.7187,-7.7187,-7.7187,-7.7187,-7.7187,-7.7187,-7.7187,-7.7187,-7.7187,-7.7187,-7.7187,-7.7187,-7.7187,-7.7187,-7.7187,-7.7187,-7.7187,-7.7187,-7.7187,-7.7187,-7.7187,-7.7187,-7.7187,-7.7187,-7.7187,-7.7187,-7.7187,-7.7187,-5.1229,-5.1229,-5.1229,-5.1229,-5.1229,-5.1229,-5.1229,-5.1229,-5.1229,-5.1229,-5.1229,-5.1293,-5.1635,-5.1386,-5.1293,-5.1635,-5.1386,-5.1229,-5.1229,-5.1229,-5.1229,-5.1229,-5.1229,-5.1229,-5.1229,-5.1229,-5.1229,-5.1229,-5.2305,-5.3483,-5.4589,-5.573,-5.6911,-5.8186,-5.8186,-5.8798,-5.9804,-6.0427,-6.163,-6.3192,-6.4043,-6.5367,-6.6843,-6.6843,-6.7173,-6.7687,-6.7687,-6.7687,-6.7687,-6.7687,-6.7687,-6.7724,-6.7944,-6.8421,-6.9009,-6.9449,-7.0403,-7.1358,-7.1578,-7.2373,-7.3341,-7.4117,-7.4588,-7.5054,-7.5818,-7.6015,-7.6015,-7.6015,-7.6015,0.0,0.0,0.0,-7.5938,-7.5668,0.0,-7.5938,-7.5668,-7.5861,-7.6015,-7.6015,-7.6185,-7.6419,0.0,-7.6582,-7.6638,-7.7,-7.6919,-7.6919,-7.7103,-7.7187,-7.7187,-7.7187,-7.7187,-7.7187,-7.7187,-7.7187,-7.7187,-7.7187,-7.7187,-7.7187,-7.7187,-7.7187,-7.7187,-7.7187,-7.7187,-7.7187,-7.7187,-7.7187,-7.7187,-7.7187,-7.7187,-7.7187,-7.7187,-7.7187,-7.7187,-7.7187,-5.1229,-5.1229,-5.1229,-5.1229,-5.1229,-5.1229,-5.1229,-5.1229,-5.1229,-5.1229,-5.1229,-5.1635,-5.2754,-5.1911,-5.1635,-5.2723,-5.1819,-5.1229,-5.1229,-5.1229,-5.1229,-5.1229,-5.1229,-5.1229,-5.1229,-5.1229,-5.1229,-5.1229,-5.2305,-5.3483,-5.4589,-5.573,-5.7177,-5.8964,-5.8964,-5.9891,-6.1433,-6.1467,-6.2405,-6.4043,-6.4838,-6.6167,-6.765,-6.765,-6.765,-6.7687,-6.7687,-6.7687,-6.7687,-6.7687,-6.7687,-6.7834,-6.8605,-6.8898,-6.9229,-7.077,-7.1284,-7.1468,-7.2275,-7.2459,-7.2816,-7.398,-7.4293,-7.4629,-7.5756,-7.6015,-7.6015,-7.6015,-7.6015,-7.6015,-7.6015,-7.6015,-7.5707,-7.4899,-7.5438,0.0,0.0,-7.5476,-7.6015,-7.6015,-7.6185,-7.6316,-7.6316,-7.6316,-7.64,-7.6582,-7.6597,-7.6702,-7.6919,-7.71,-7.7187,-7.7187,-7.7187,-7.7187,-7.7187,-7.7187,-7.7187,-7.7187,-7.7187,-7.7187,-7.7187,-7.7187,-7.7187,-7.7187,-7.7187,-7.7187,-7.7187,-7.7187,-7.7187,-7.7187,-7.7187,-7.7187,-7.7187,-7.7187,-7.7187,-7.7187,-5.1229,-5.1229,-5.1229,-5.1229,-5.1229,-5.1229,-5.1229,-5.1229,-5.1229,-5.1229,-5.1229,-5.1386,-5.1727,-5.1479,-5.1386,-5.1727,-5.1386,-5.1229,-5.1229,-5.1229,-5.1229,-5.1229,-5.1229,-5.1229,-5.1229,-5.1229,-5.1229,-5.1229,-5.2305,-5.3734,-5.5377,-5.6482,-5.7942,-5.9742,-5.9742,-6.0731,-6.2345,-6.2873,-6.4081,-6.5752,-6.6555,-6.7177,-6.7687,-6.7687,-6.7687,-6.7687,-6.7687,-6.7687,-6.7687,-6.7687,-6.8054,-6.8531,-6.8825,-6.9633,-7.0624,-7.1138,-7.1688,-7.2242,-7.2923,-7.3391,-7.3888,-7.4632,-7.5129,-7.5518,-7.5917,-7.6015,-7.6015,-7.6015,-7.6015,-7.6015,-7.6015,-7.6015,-7.5899,-7.563,-7.5822,-7.5899,0.0,-7.5822,-7.6015,-7.6015,-7.6052,-7.6135,-7.6273,-7.6185,-7.6243,-7.6552,-7.6493,-7.656,-7.6872,-7.6945,-7.7055,-7.7187,-7.7187,-7.7187,-7.7187,-7.7187,-7.7187,-7.7187,-7.7187,-7.7187,-7.7187,-7.7187,-7.7187,-7.7187,-7.7187,-7.7187,-7.7187,-7.7187,-7.7187,-7.7187,-7.7187,-7.7187,-7.7187,-7.7187,-7.7187,-7.7187,-5.1229,-5.1229,-5.1229,-5.1229,-5.1229,-5.1229,-5.1229,-5.1229,-5.1229,-5.1229,-5.1229,-5.1229,-5.1229,-5.1229,-5.1229,-5.1229,-5.1229,-5.1229,-5.1229,-5.1229,-5.1229,-5.1229,-5.1229,-5.1229,-5.1229,-5.1229,-5.1319,-5.1558,-5.3093,-5.464,-5.6114,-5.7639,-5.9131,-6.052,-6.052,-6.1631,-6.3548,-6.4043,-6.5334,-6.6953,-6.7467,-6.7687,-6.7687,-6.7687,-6.7687,-6.7687,-6.7687,-6.7687,-6.7724,-6.8017,-6.8458,-6.9009,-6.9596,-7.0477,-7.1358,-7.1651,-7.2225,-7.2889,-7.329,-7.3841,-7.4422,-7.498,-7.5413,-7.5718,-7.5947,-7.6015,-7.6015,-7.6015,-7.6015,-7.6015,-7.6015,-7.6015,-7.6015,-7.6015,-7.6015,-7.6015,0.0,-7.6015,-7.6015,-7.6015,-7.6015,-7.6024,-7.6185,-7.6079,-7.6095,-7.6379,-7.6338,-7.64,-7.669,-7.6749,-7.6872,-7.71,-7.71,-7.7144,-7.7187,-7.7187,-7.7187,-7.7187,-7.7187,-7.7187,-7.7187,-7.7187,-7.7187,-7.7187,-7.7187,-7.7187,-7.7187,-7.7187,-7.7187,-7.7187,-7.7187,-7.7187,-7.7187,-7.7187,-7.7187,-7.7187,-5.1229,-5.1229,-5.1229,-5.1229,-5.1229,-5.1229,-5.1229,-5.1229,-5.1229,-5.1229,-5.1229,-5.1229,-5.1229,-5.1229,-5.1229,-5.1229,-5.1229,-5.1229,-5.1229,-5.1229,-5.1229,-5.1229,-5.1229,-5.1229,-5.1229,-5.1259,-5.1558,-5.2282,-5.4637,-5.6146,-5.6905,-5.9118,-6.0588,-6.1366,-6.1366,-6.2699,-6.4999,-6.4999,-6.6053,-6.7687,-6.7687,-6.7687,-6.7687,-6.7687,-6.7687,-6.7687,-6.7687,-6.7724,-6.7871,-6.8641,-6.8972,-6.9302,-7.0844,-7.1358,-7.1541,-7.2275,-7.2889,-7.3391,-7.3442,-7.3841,-7.4422,-7.5017,-7.5127,-7.5306,-7.5848,-7.6015,-7.6015,-7.6015,-7.6015,-7.6015,-7.6015,-7.6015,-7.6015,-7.6015,-7.6015,-7.6015,-7.6015,-7.6015,-7.6015,-7.6015,-7.6015,-7.6015,-7.6015,-7.6015,-7.6015,-7.6015,-7.6185,-7.6273,0.0,-7.6493,-7.669,-7.6872,-7.688,-7.6995,-7.7187,-7.7187,-7.7187,-7.7187,-7.7187,-7.7187,-7.7187,-7.7187,-7.7187,-7.7187,-7.7187,-7.7187,-7.7187,-7.7187,-7.7187,-7.7187,-7.7187,-7.7187,-7.7187,-7.7187,-7.7187,-7.7187,-5.1229,-5.1229,-5.1229,-5.1229,-5.1229,-5.1229,-5.1229,-5.1229,-5.1229,-5.1229,-5.1229,-5.1229,-5.1229,-5.1229,-5.1229,-5.1229,-5.1229,-5.1229,-5.1229,-5.1229,-5.1229,-5.1229,-5.1229,-5.1229,-5.1229,-5.1708,-5.245,-5.356,-5.5462,-5.7312,-5.8903,-6.0303,-6.14,-6.211,-6.211,-6.3181,-6.4999,-6.4999,-6.6053,-6.7687,-6.7687,-6.7687,-6.7687,-6.7687,-6.7687,-6.7687,-6.7687,-6.8091,-6.8605,-6.8825,-6.9706,-7.077,-7.1174,-7.1725,-7.2239,-7.2459,-7.2573,-7.2889,-7.3841,-7.4161,-7.4547,-7.5518,-7.5787,-7.5818,-7.5947,-7.6015,-7.6015,-7.6015,-7.6015,-7.6015,-7.6015,-7.6015,-7.6015,-7.6015,-7.6015,-7.6015,-7.6015,-7.6015,-7.6015,-7.6015,-7.6015,-7.6015,-7.6015,-7.6015,-7.6015,-7.6015,-7.6062,-7.6135,-7.6295,0.0,-7.6475,-7.669,-7.6839,-7.6926,-7.699,-7.7144,-7.7187,-7.7187,-7.7187,-7.7187,-7.7187,-7.7187,-7.7187,-7.7187,-7.7187,-7.7187,-7.7187,-7.7187,-7.7187,-7.7187,-7.7187,-7.7187,-7.7187,-7.7187,-7.7187,-7.7187,-5.1229,-5.1229,-5.1229,-5.1229,-5.1229,-5.1229,-5.1229,-5.1229,-5.1229,-5.1229,-5.1229,-5.1229,-5.1229,-5.1229,-5.1229,-5.1229,-5.1229,-5.1229,-5.1229,-5.1229,-5.1229,-5.1229,-5.1498,-5.1648,-5.1648,-5.2816,-5.3897,-5.4882,-5.6957,-5.8652,-6.0076,-6.1233,-6.2009,-6.2381,-6.2381,-6.3199,-6.4495,-6.5297,-6.6427,-6.7687,-6.7687,-6.7687,0.0,-6.8091,-6.8201,-6.8274,-6.8605,-6.8825,-6.9009,-6.9706,-7.055,-7.1358,-7.1725,-7.2165,-7.2496,-7.2496,-7.2686,-7.3066,-7.4026,-7.4464,-7.4866,-7.5787,-7.6015,-7.6015,-7.6015,-7.6015,-7.6015,-7.6015,-7.6015,-7.6015,-7.6015,-7.6015,-7.6015,-7.6015,-7.6015,-7.6015,-7.6015,-7.6015,-7.6015,-7.6015,-7.6015,-7.6015,-7.6015,-7.6015,-7.6015,-7.6015,-7.6015,-7.6024,-7.616,0.0,-7.6266,-7.6475,-7.6606,-7.6727,-7.6919,-7.7005,-7.7103,-7.7187,-7.7187,-7.7187,-7.7187,-7.7187,-7.7187,-7.7187,-7.7187,-7.7187,-7.7187,-7.7187,-7.7187,-7.7187,-7.7187,-7.7187,-7.7187,-7.7187,-7.7187,-7.7187,-5.1229,-5.1229,-5.1229,-5.1229,-5.1229,-5.1229,-5.1229,-5.1229,-5.1229,-5.1229,-5.1229,-5.1229,-5.1229,-5.1229,-5.1229,-5.1229,-5.1229,-5.1229,-5.1229,-5.1289,-5.1349,-5.1349,-5.1977,-5.2402,-5.2592,-5.4205,-5.5533,-5.6495,-5.8637,-6.0076,-6.087,-6.1951,-6.2381,-6.2381,-6.2381,-6.2931,-6.3971,-6.5779,-6.7024,-6.7687,-6.7687,-6.776,-6.7907,-6.8641,-6.8972,-6.9155,-6.9963,-6.9816,-6.9449,-7.0844,-7.1394,-7.1578,-7.2275,-7.2496,-7.2496,-7.2496,-7.2871,-7.3442,-7.4117,-7.467,-7.5165,-7.5818,-7.6015,-7.6015,-7.6015,-7.6015,-7.6015,-7.6015,-7.6015,-7.6015,-7.6015,-7.6015,-7.6015,-7.6015,-7.6015,-7.6015,-7.6015,-7.6015,-7.6015,-7.6015,-7.6015,0.0,-7.6015,-7.6015,-7.6015,-7.6015,-7.6015,-7.6015,0.0,0.0,-7.6079,-7.6266,-7.6316,-7.6471,-7.6829,-7.688,-7.7005,-7.7147,-7.7187,-7.7187,-7.7187,-7.7187,-7.7187,-7.7187,-7.7187,-7.7187,-7.7187,-7.7187,-7.7187,-7.7187,-7.7187,-7.7187,-7.7187,-7.7187,-7.7187,-7.7187,-5.1229,-5.1229,-5.1229,-5.1229,-5.1229,-5.1229,-5.1229,-5.1229,-5.1229,-5.1229,-5.1229,-5.1229,-5.1229,-5.1229,-5.1229,-5.1229,-5.1229,-5.1229,-5.1229,-5.1738,-5.2037,-5.2037,-5.2665,-5.3446,-5.4515,-5.5349,-5.6825,-5.8997,-5.9924,-6.0986,-6.211,-6.2302,-6.2381,-6.2381,-6.2381,-6.3314,-6.4866,-6.67,-6.7542,-6.7687,-6.7687,-6.8091,-6.8715,-6.8862,-6.9302,-7.0,-7.0807,-7.1027,-7.0917,-7.1211,-7.1762,-7.2312,-7.2459,-7.2496,-7.2496,-7.2496,-7.261,-7.2926,-7.398,-7.4379,-7.467,-7.5756,-7.6015,-7.6015,-7.6015,-7.6015,-7.6015,-7.6015,-7.6015,-7.6015,-7.6015,-7.6015,-7.6015,-7.6015,-7.6015,-7.6015,-7.6015,-7.6015,-7.6015,-7.6015,-7.6015,-7.6015,-7.6015,-7.6015,-7.6015,-7.6015,-7.6015,-7.6015,-7.6015,0.0,-7.6005,0.0,-7.6361,-7.651,0.0,0.0,-7.7097,-7.6945,-7.7105,-7.7187,-7.7187,-7.7187,-7.7187,-7.7187,-7.7187,-7.7187,-7.7187,-7.7187,-7.7187,-7.7187,-7.7187,-7.7187,-7.7187,-7.7187,-7.7187,-7.7187,-5.1229,-5.1229,-5.1229,-5.1229,-5.1229,-5.1229,-5.1229,-5.1498,-5.1618,-5.1259,-5.1229,-5.1229,-5.1229,-5.1528,-5.1738,-5.1738,-5.2037,-5.2247,-5.2247,-5.2546,-5.2695,-5.2695,-5.3354,-5.3977,-5.4622,-5.6435,-5.8032,-5.921,-6.0788,-6.1837,-6.2381,-6.2381,-6.2381,-6.2381,-6.2855,-6.3757,-6.5065,-6.6427,-6.7286,-6.7724,-6.8128,-6.8568,-6.9009,-6.9853,-7.0403,-7.0844,-7.1651,-7.1945,-7.1945,-7.1945,-7.2202,-7.2496,-7.2496,-7.2496,-7.2496,-7.2496,-7.2496,-7.2761,-7.398,-7.4293,-7.4588,-7.5724,-7.6015,-7.6015,-7.6015,-7.6015,-7.6015,-7.6015,-7.6015,-7.6015,-7.6015,-7.6015,-7.6015,-7.6015,-7.6015,-7.6015,-7.6015,-7.6015,-7.6015,-7.6015,-7.6015,-7.6015,-7.6015,-7.6015,-7.6015,-7.6015,-7.6015,-7.6015,-7.6015,0.0,-7.6015,0.0,0.0,0.0,-7.6457,0.0,-7.6939,-7.7055,-7.7147,-7.7187,-7.7187,-7.7187,-7.7187,-7.7187,-7.7187,-7.7187,-7.7187,-7.7187,-7.7187,-7.7187,-7.7187,-7.7187,-7.7187,-7.7187,-7.7187,-7.7187,-5.1229,-5.1229,-5.1229,-5.1229,-5.1319,-5.1439,-5.1439,-5.1977,-5.2187,-5.1498,-5.1558,-5.1648,-5.1648,-5.2097,-5.2396,-5.2396,-5.2875,-5.3174,-5.3174,-5.3324,-5.3384,-5.3384,-5.4042,-5.45,-5.4767,-5.7463,-5.8902,-5.917,-6.1317,-6.2482,-6.2618,-6.2448,-6.2537,-6.2702,-6.3574,-6.4495,-6.5361,-6.6307,-6.7134,-6.8017,-6.8641,-6.9119,-6.9559,-7.0844,-7.1431,-7.1651,-7.2275,-7.2496,-7.2496,-7.2496,-7.2496,-7.2496,-7.2496,-7.2496,-7.2496,-7.2496,-7.2496,-7.2761,-7.398,-7.4293,-7.4588,-7.5724,-7.6015,-7.6015,-7.6015,-7.6015,-7.6015,-7.6015,-7.6015,-7.6015,-7.6015,-7.6015,-7.6015,-7.6015,-7.6015,-7.6015,-7.6015,-7.6015,-7.6015,-7.6015,-7.6015,-7.6015,-7.6015,-7.6015,-7.6015,-7.6015,-7.6015,-7.6015,-7.6015,-7.6015,-7.6015,0.0,0.0,-7.6266,-7.6521,0.0,-7.6864,-7.7145,-7.7187,-7.7187,-7.7187,-7.7187,-7.7187,-7.7187,-7.7187,-7.7187,-7.7187,-7.7187,-7.7187,-7.7187,-7.7187,-7.7187,-7.7187,-7.7187,-7.7187,-7.7187,-5.1229,-5.1229,-5.1229,-5.1229,-5.1708,-5.2127,-5.2127,-5.2665,-5.2845,-5.2187,-5.2636,-5.2995,-5.2995,-5.3054,-5.3084,-5.3084,-5.3144,-5.3174,-5.3174,-5.3773,-5.4132,-5.4132,-5.476,-5.5629,-5.6707,-5.8053,-5.9346,-6.0417,-6.1756,-6.2753,-6.3396,-6.2719,-6.2855,-6.3647,-6.4495,-6.5426,-6.6344,-6.723,-6.8037,-6.8788,-6.8862,-6.9779,-7.1101,-7.1248,-7.1762,-7.2422,-7.2459,-7.2496,-7.2496,-7.2496,-7.2496,-7.2496,-7.2496,-7.2496,-7.2496,-7.2496,-7.2496,-7.2761,-7.398,-7.4293,-7.4588,-7.5724,-7.6015,-7.6015,-7.6015,-7.6015,-7.6015,-7.6015,-7.6015,-7.6015,-7.6015,-7.6015,-7.6015,-7.6015,-7.6015,-7.6015,-7.6015,-7.6015,-7.6015,-7.6015,-7.6015,-7.6015,-7.6015,-7.6015,-7.6015,-7.6015,-7.6015,-7.6015,-7.6015,-7.6015,-7.6015,-7.6015,-7.6341,-7.6493,-7.6338,-7.6864,-7.7058,-7.6933,-7.7103,-7.7187,-7.7187,-7.7187,-7.7187,-7.7187,-7.7187,-7.7187,-7.7187,-7.7187,-7.7187,-7.7187,-7.7187,-7.7187,-7.7187,-7.7187,-7.7187,-7.7187,-5.1229,-5.1528,-5.1798,-5.1798,-5.2336,-5.2785,-5.2785,-5.3354,-5.3713,-5.3443,-5.3264,-5.3174,-5.3174,-5.3563,-5.3803,-5.3803,-5.4162,-5.4401,-5.4401,-5.464,-5.479,-5.479,-5.5059,-5.572,-5.6991,-5.8177,-5.9346,-6.0586,-6.1837,-6.255,-6.2821,-6.2516,-6.2855,-6.3719,-6.4597,-6.5804,-6.715,-6.8016,-6.8862,-6.9669,-7.0146,-7.0734,-7.1358,-7.1835,-7.2239,-7.2496,-7.2496,-7.2496,-7.2496,-7.2496,-7.2496,-7.2496,-7.2496,-7.2496,-7.2496,-7.2496,-7.2496,-7.2761,-7.398,-7.4293,-7.4588,-7.5724,-7.6015,-7.6015,-7.6015,-7.6015,-7.6015,-7.6015,-7.6015,-7.6015,-7.6015,-7.6015,-7.6015,-7.6015,-7.6015,-7.6015,-7.6015,-7.6015,-7.6015,-7.6015,-7.6015,-7.6015,-7.6015,-7.6015,-7.6015,-7.6015,-7.6015,-7.6015,-7.6015,-7.6121,-7.6121,-7.5976,0.0,-7.6537,-7.6493,-7.6847,-7.7048,-7.7097,-7.7147,-7.7187,-7.7187,-7.7187,-7.7187,-7.7187,-7.7187,-7.7187,-7.7187,-7.7187,-7.7187,-7.7187,-7.7187,-7.7187,-7.7187,-7.7187,-7.7187,-7.7187,-5.1498,-5.2037,-5.2486,-5.2486,-5.3054,-5.3473,-5.3473,-5.4072,-5.4491,-5.4491,-5.4072,-5.3773,-5.3773,-5.4192,-5.4491,-5.4491,-5.491,-5.5179,-5.5179,-5.5179,-5.5179,-5.5179,-5.5551,-5.6085,-5.6991,-5.8542,-5.9697,-6.0586,-6.1837,-6.2516,-6.2719,-6.2719,-6.3213,-6.4113,-6.4979,-6.6324,-6.8051,-6.8896,-6.9706,-7.0513,-7.1064,-7.1468,-7.1725,-7.2275,-7.2496,-7.2496,-7.2496,-7.2496,-7.2496,-7.2496,-7.2496,-7.2496,-7.2496,-7.2496,-7.2496,-7.2496,-7.2496,-7.2742,-7.3747,-7.4161,-7.4547,-7.5518,-7.5848,-7.6015,-7.6015,-7.6015,-7.6015,-7.6015,-7.6015,-7.6015,-7.6015,-7.6015,-7.6015,-7.6015,-7.6015,-7.6015,-7.6015,-7.6015,-7.6015,-7.6015,-7.6015,-7.6015,-7.6015,-7.6015,-7.6034,-7.6106,-7.6106,-7.6106,-7.6106,-7.6219,0.0,0.0,0.0,0.0,-7.6702,-7.6872,-7.7055,-7.7187,-7.7187,-7.7187,-7.7187,-7.7187,-7.7187,-7.7187,-7.7187,-7.7187,-7.7187,-7.7187,-7.7187,-7.7187,-7.7187,-7.7187,-7.7187,-7.7187,-7.7187,-7.7187,-5.2187,-5.2725,-5.3174,-5.3174,-5.3743,-5.4192,-5.4192,-5.476,-5.5179,-5.5179,-5.5179,-5.5179,-5.5179,-5.5179,-5.5179,-5.5179,-5.5179,-5.5179,-5.5179,-5.5179,-5.5179,-5.5179,-5.6347,-5.6991,-5.6991,-5.9346,-6.0586,-6.0586,-6.1837,-6.2753,-6.3497,0.0,-6.4036,-6.5035,-6.5813,-6.7177,-6.8972,-6.9743,-7.055,-7.1321,-7.1321,-7.1798,-7.2496,-7.2496,-7.2496,-7.2496,-7.2496,-7.2496,-7.2496,-7.2496,-7.2496,-7.2496,-7.2496,-7.2496,-7.2496,-7.2496,-7.2496,-7.263,-7.3238,-7.3841,-7.4422,-7.498,-7.5551,-7.6015,-7.6015,-7.6015,-7.6015,-7.6015,-7.6015,-7.6015,-7.6015,-7.6015,-7.6015,-7.6015,0.0,-7.6015,-7.6015,-7.6015,-7.6015,-7.6015,-7.6015,-7.6015,-7.6015,-7.6015,-7.6106,-7.6273,-7.6295,-7.6295,0.0,0.0,0.0,-7.6606,-7.678,0.0,-7.688,-7.71,-7.7187,-7.7187,-7.7187,-7.7187,-7.7187,-7.7187,-7.7187,-7.7187,-7.7187,-7.7187,-7.7187,-7.7187,-7.7187,-7.7187,-7.7187,-7.7187,-7.7187,-7.7187,-7.7187,-7.7187,-5.2785,-5.3414,-5.3892,-5.3892,-5.4431,-5.488,-5.488,-5.5059,-5.5179,-5.5179,-5.5179,-5.5179,-5.5179,-5.5179,-5.5179,-5.5179,-5.5179,-5.5179,-5.5179,-5.5179,-5.5179,-5.5179,-5.6347,-5.7339,-5.8177,-5.9784,-6.1036,-6.1837,-6.2189,-6.2516,-6.2753,-6.2753,-6.383,-6.5813,-6.6061,-6.7788,-7.055,-7.0807,-7.1394,-7.2129,-7.2129,-7.2275,-7.2496,-7.2496,-7.2496,-7.2496,-7.2496,-7.2496,-7.2496,-7.2496,-7.2496,-7.2496,-7.2496,-7.2496,-7.2496,-7.2496,-7.2496,-7.263,-7.3275,-7.3841,-7.4422,-7.498,-7.5551,-7.6015,-7.6015,-7.6015,-7.6015,-7.6015,-7.6015,-7.6015,-7.6015,-7.6015,-7.6015,-7.6015,-7.6015,0.0,-7.6015,-7.6015,-7.6015,-7.6015,-7.6015,-7.6052,-7.621,-7.6195,-7.6243,-7.6295,-7.6295,0.0,0.0,0.0,0.0,0.0,-7.6933,0.0,-7.6919,-7.71,-7.7187,-7.7187,-7.7187,-7.7187,-7.7187,-7.7187,-7.7187,-7.7187,-7.7187,-7.7187,-7.7187,-7.7187,-7.7187,-7.7187,-7.7187,-7.7187,-7.7187,-7.7187,-7.7187,-7.7187,-5.3473,-5.4102,-5.4581,-5.4581,-5.491,-5.5179,-5.5179,-5.5179,-5.5179,-5.5179,-5.5179,-5.5179,-5.5179,-5.5179,-5.5179,-5.5179,-5.5179,-5.5179,-5.5179,-5.5179,-5.5381,-5.5819,-5.6991,-5.8268,-5.9434,-6.0703,-6.1676,-6.2381,-6.2381,-6.2516,-6.2821,-6.3222,-6.4551,-6.6628,-6.7314,-6.8966,-7.1321,-7.1651,-7.2055,-7.2496,-7.2496,-7.2496,-7.2496,-7.2496,-7.2496,-7.2496,-7.2496,-7.2496,-7.2496,-7.2496,-7.2496,-7.2496,-7.2496,-7.2716,-7.2899,-7.2606,-7.2496,-7.261,-7.2943,-7.3492,-7.4117,-7.4632,-7.5236,-7.5718,-7.5947,-7.6015,-7.6015,-7.6015,-7.6015,-7.6015,-7.6015,-7.6015,-7.6015,-7.6015,-7.6015,-7.6015,-7.6015,-7.6015,-7.6015,-7.6015,-7.6015,-7.6024,-7.6185,-7.6266,-7.6338,-7.64,-7.6454,0.0,0.0,0.0,-7.678,-7.6839,-7.7055,-7.7145,-7.7,-7.7145,-7.7187,-7.7187,-7.7187,-7.7187,-7.7187,-7.7187,-7.7187,-7.7187,-7.7187,-7.7187,-7.7187,-7.7187,-7.7187,-7.7187,-7.7187,-7.7187,-7.7187,-7.7187,-7.7187,-7.7187,-5.4281,-5.476,-5.5179,-5.5179,-5.5179,-5.5179,-5.5179,-5.5179,-5.5179,-5.5179,-5.5179,-5.5179,-5.5179,-5.5179,-5.5179,-5.5179,-5.5179,-5.5179,-5.5179,-5.5179,-5.572,-5.6991,-5.8177,-5.9346,-6.0586,-6.1756,-6.2381,-6.2381,-6.2448,-6.2821,-6.3531,-6.4484,-6.5861,-6.751,-6.9225,-7.0508,-7.1431,-7.2202,-7.2496,-7.2496,-7.2496,-7.2496,-7.2496,-7.2496,-7.2496,-7.2496,-7.2496,-7.2496,-7.2496,-7.2569,-7.2569,-7.2606,-7.2642,-7.3193,-7.3634,-7.2826,-7.2606,-7.2679,-7.2679,-7.3108,-7.3714,-7.4237,-7.4787,-7.5306,-7.5848,-7.6015,-7.6015,-7.6015,-7.6015,-7.6015,-7.6015,-7.6015,-7.6015,-7.6015,-7.6015,-7.6015,-7.6015,-7.6015,-7.6015,-7.6015,-7.6015,0.0,-7.6005,-7.621,-7.6381,-7.6606,0.0,0.0,0.0,0.0,-7.678,-7.7187,-7.7187,-7.7187,-7.7187,-7.7187,-7.7187,-7.7187,-7.7187,-7.7187,-7.7187,-7.7187,-7.7187,-7.7187,-7.7187,-7.7187,-7.7187,-7.7187,-7.7187,-7.7187,-7.7187,-7.7187,-7.7187,-7.7187,-7.7187,-7.7187,-5.485,-5.5089,-5.5179,-5.5179,-5.5179,-5.5179,-5.5179,-5.5179,-5.5179,-5.5179,-5.5179,-5.5179,-5.5179,-5.5179,-5.5179,-5.5179,-5.5179,-5.5179,-5.5179,-5.5179,-5.572,-5.6991,-5.8177,-5.9346,-6.0586,-6.1756,-6.2381,-6.2381,-6.2956,-6.3328,-6.3531,-6.5034,-6.6665,-6.8325,-6.9477,-7.0835,-7.2239,-7.2422,-7.2496,-7.2496,-7.2496,-7.2496,-7.2496,-7.2496,-7.2496,-7.2496,-7.2496,-7.2496,-7.2606,-7.3193,-7.3413,-7.3523,-7.4147,-7.4478,-7.4478,-7.3634,-7.3854,-7.4331,-7.4331,-7.4651,-7.5058,-7.5192,-7.5513,-7.5818,-7.5947,-7.6015,-7.6015,-7.6015,-7.6015,-7.6015,-7.6015,-7.6015,-7.6015,-7.6015,-7.6015,-7.6015,-7.6015,-7.6015,-7.6015,0.0,-7.6015,-7.6052,-7.6195,-7.64,-7.6576,0.0,0.0,-7.6933,-7.699,-7.6872,-7.6939,-7.7187,-7.7187,-7.7187,-7.7187,-7.7187,-7.7187,-7.7187,-7.7187,-7.7187,-7.7187,-7.7187,-7.7187,-7.7187,-7.7187,-7.7187,-7.7187,-7.7187,-7.7187,-7.7187,-7.7187,-7.7187,-7.7187,-7.7187,-7.7187,-7.7187,-5.5119,-5.5179,-5.5179,-5.5179,-5.5179,-5.5179,-5.5179,-5.5179,-5.5179,-5.5179,-5.5179,-5.5179,-5.5179,-5.5179,-5.5179,-5.5179,-5.5179,-5.5179,-5.5179,-5.572,-5.6541,-5.7807,-5.8992,-6.0161,-6.1399,-6.203,-6.255,-6.2888,-6.3328,-6.4041,-6.5206,-6.6508,-6.8082,-6.9757,-7.0734,-7.1669,-7.2496,-7.2496,-7.2496,-7.2496,-7.2496,-7.2496,-7.2496,-7.2496,-7.2496,-7.2496,-7.2496,-7.2753,-7.312,-7.356,-7.3927,-7.4331,-7.4771,-7.5175,-7.5359,-7.4918,-7.4845,-7.4918,-7.4918,-7.5288,-7.5718,-7.5872,-7.5994,-7.6015,-7.6015,-7.6015,-7.6015,-7.6015,-7.6015,-7.6015,-7.6015,-7.6015,-7.6015,-7.6015,-7.6015,-7.6015,-7.6015,-7.6015,-7.6015,-7.6015,-7.6015,-7.6062,-7.6135,-7.6419,-7.6582,-7.6582,-7.6864,0.0,-7.7048,-7.7048,-7.71,-7.7187,-7.7187,-7.7187,-7.7187,-7.7187,-7.7187,-7.7187,-7.7187,-7.7187,-7.7187,-7.7187,-7.7187,-7.7187,-7.7187,-7.7187,-7.7187,-7.7187,-7.7187,-7.7187,-7.7187,-7.7187,-7.7187,-7.7187,-7.7187,-7.7187,-5.5179,-5.5179,-5.5179,-5.5179,-5.5179,-5.5179,-5.5179,-5.5179,-5.5179,-5.5179,-5.5179,-5.5179,-5.5179,-5.5179,-5.5179,-5.5179,-5.5179,-5.5179,-5.5179,-5.6347,-5.7527,-5.8722,-5.9989,-6.1119,-6.2381,-6.2516,-6.2922,-6.3666,-6.3802,-6.4971,-6.708,-6.8221,-6.9622,-7.1159,-7.2071,-7.2496,-7.2496,-7.2496,-7.2496,-7.2496,-7.2496,-7.2496,-7.2496,-7.2496,-7.2569,-7.2679,-7.2679,-7.3193,-7.3891,-7.4001,-7.4515,-7.5102,-7.5249,-7.5726,-7.6276,-7.6276,-7.5799,-7.5285,-7.5285,-7.5699,-7.623,-7.6539,-7.6394,-7.6207,-7.6207,-7.6092,-7.6015,-7.6015,-7.6015,-7.6015,-7.6015,-7.6015,-7.6015,-7.6015,-7.6015,-7.6015,-7.6015,0.0,-7.6015,-7.6015,-7.6015,-7.6015,-7.6015,-7.6341,-7.6582,-7.6582,-7.699,-7.7187,-7.7187,-7.7187,-7.7187,-7.7187,-7.7187,-7.7187,-7.7187,-7.7187,-7.7187,-7.7187,-7.7187,-7.7187,-7.7187,-7.7187,-7.7187,-7.7187,-7.7187,-7.7187,-7.7187,-7.7187,-7.7187,-7.7187,-7.7187,-7.7187,-7.7187,-7.7187,-7.7187,-7.7187,-5.5179,-5.5179,-5.5179,-5.5179,-5.5179,-5.5179,-5.5179,-5.5179,-5.5179,-5.5179,-5.5179,-5.5179,-5.5179,-5.5179,-5.5179,-5.5179,-5.5179,-5.5179,-5.5179,-5.6347,-5.7527,-5.8722,-5.9989,-6.1119,-6.2381,-6.3024,-6.37,-6.4444,-6.5053,-6.596,-6.7115,-6.8784,-7.0053,-7.1159,-7.2071,-7.2496,-7.2496,-7.2496,-7.2496,-7.2496,-7.2496,-7.2496,-7.2496,-7.2496,-7.2936,-7.3487,-7.3487,-7.4037,-7.4845,-7.5506,-7.5799,-7.6019,-7.6717,-7.7047,-7.7121,-7.7121,-7.7047,-7.6937,-7.6937,-7.727,-7.7538,-7.7455,-7.7237,-7.7092,-7.7092,-7.6515,-7.6015,-7.6015,-7.6015,-7.6015,-7.6015,-7.6015,-7.6015,-7.6015,-7.6015,-7.6015,-7.6015,0.0,-7.6015,-7.6015,-7.6015,-7.6015,-7.6015,-7.6341,-7.6582,-7.6582,-7.699,-7.7187,-7.7187,-7.7187,-7.7187,-7.7187,-7.7187,-7.7187,-7.7187,-7.7187,-7.7187,-7.7187,-7.7187,-7.7187,-7.7187,-7.7187,-7.7187,-7.7187,-7.7187,-7.7187,-7.7187,-7.7187,-7.7187,-7.7187,-7.7187,-7.7187,-7.7187,-7.7187,-7.7187,-7.7187,-5.5179,-5.5179,-5.5179,-5.5179,-5.5179,-5.5179,-5.5179,-5.5179,-5.5179,-5.5179,-5.5179,-5.5179,-5.5179,-5.5179,-5.5179,-5.5179,-5.5179,-5.5451,-5.6085,-5.7276,-5.8542,-5.9697,-6.0953,-6.2038,-6.299,-6.3734,-6.4444,-6.5189,-6.5995,-6.7169,-6.853,-6.9845,-7.093,-7.1854,-7.2285,-7.2496,-7.2496,-7.2496,-7.2496,-7.2496,-7.2496,-7.2496,-7.2569,-7.2973,-7.3377,-7.3744,-7.4184,-7.4882,-7.5616,-7.5983,-7.6387,-7.6827,-7.7194,-7.7304,-7.7304,-7.7304,-7.7304,-7.7365,-7.7768,-7.7901,-7.7975,-7.8216,-7.8118,-7.7823,-7.74,-7.6976,-7.6553,-7.6092,-7.6015,-7.6015,-7.6015,-7.6015,-7.6015,-7.6015,-7.6015,-7.6015,-7.6015,-7.6015,-7.6015,-7.6015,-7.6015,-7.6015,-7.6015,-7.6341,-7.6582,-7.6582,-7.699,-7.7187,-7.7187,-7.7187,-7.7187,-7.7187,-7.7187,-7.7187,-7.7187,-7.7187,-7.7187,-7.7187,-7.7187,-7.7187,-7.7187,-7.7187,-7.7187,-7.7187,-7.7187,-7.7187,-7.7187,-7.7187,-7.7187,-7.7187,-7.7187,-7.7187,-7.7187,-7.7187,-7.7187,-7.7187,-5.5179,-5.5179,-5.5179,-5.5179,-5.5179,-5.5179,-5.5179,-5.5179,-5.5179,-5.5179,-5.5179,-5.5179,-5.5179,-5.5179,-5.5179,-5.5179,-5.5451,-5.6244,-5.7558,-5.8765,-5.9869,-6.0849,-6.2192,-6.326,-6.4005,-6.458,-6.5222,-6.5967,-6.6927,-6.8164,-6.9708,-7.0668,-7.1573,-7.2496,-7.2496,-7.2496,-7.2496,-7.2496,-7.2496,-7.2532,-7.2716,-7.2789,-7.2863,-7.367,-7.4111,-7.4331,-7.4955,-7.5726,-7.6387,-7.6387,-7.679,-7.7304,-7.7304,-7.7304,-7.7304,-7.7304,-7.7304,-7.7426,-7.7903,-7.8115,-7.8308,-7.8856,-7.8891,-7.8592,-7.7746,-7.7438,-7.7053,-7.6169,-7.6015,-7.6015,-7.6015,-7.6015,-7.6015,-7.6015,0.0,-7.6015,-7.6015,-7.6015,-7.6015,-7.6015,-7.6015,-7.6015,-7.6015,-7.6341,-7.6582,-7.6582,-7.699,-7.7187,-7.7187,-7.7187,-7.7187,-7.7187,-7.7187,-7.7187,-7.7187,-7.7187,-7.7187,-7.7187,-7.7187,-7.7187,-7.7187,-7.7187,-7.7187,-7.7187,-7.7187,-7.7187,-7.7187,-7.7187,-7.7187,-7.7187,-7.7187,-7.7187,-7.7187,-7.7187,-7.7187,-7.7187,-5.5179,-5.5179,-5.5179,-5.5179,-5.5179,-5.5179,-5.5179,-5.5179,-5.5179,-5.5179,-5.5179,-5.5179,-5.5179,-5.5179,-5.5179,-5.5179,-5.6183,-5.7715,-5.9525,-6.0847,-6.1574,-6.1659,-6.3433,-6.4783,-6.5493,-6.5561,-6.5967,-6.6745,-6.7639,-6.8653,-6.9708,-7.0668,-7.1573,-7.2496,-7.2496,-7.2496,-7.2496,-7.2496,-7.2496,-7.2569,-7.3303,-7.3597,-7.3707,-7.4515,-7.5285,-7.5946,-7.5983,-7.6533,-7.7231,-7.7231,-7.7268,-7.7304,-7.7304,-7.7304,-7.7304,-7.7304,-7.7304,-7.7304,-7.7365,-7.8197,-7.9123,-7.9169,-7.9438,-7.9477,-7.8592,-7.7823,-7.7053,-7.6169,-7.6015,-7.6015,-7.6015,-7.6015,-7.6015,-7.6015,0.0,0.0,-7.6015,-7.6015,-7.6015,-7.6015,-7.6015,-7.6015,-7.6015,-7.6341,-7.6582,-7.6582,-7.699,-7.7187,-7.7187,-7.7187,-7.7187,-7.7187,-7.7187,-7.7187,-7.7187,-7.7187,-7.7187,-7.7187,-7.7187,-7.7187,-7.7187,-7.7187,-7.7187,-7.7187,-7.7187,-7.7187,-7.7187,-7.7187,-7.7187,-7.7187,-7.7187,-7.7187,-7.7187,-7.7187,-7.7187,-7.7187,-5.5179,-5.5179,-5.5179,-5.5179,-5.5179,-5.5179,-5.5179,-5.5179,-5.5179,-5.5179,-5.5179,-5.5179,-5.5179,-5.5179,-5.5359,-5.5777,-5.699,-5.8466,-6.0444,-6.1685,-6.2709,-6.345,-6.4604,-6.5392,-6.5662,-6.6136,-6.6806,-6.7628,-6.8648,-6.9601,-7.0601,-7.1511,-7.2167,-7.2496,-7.2496,-7.2496,-7.2496,-7.2496,-7.2789,-7.3266,-7.356,-7.4001,-7.4551,-7.5359,-7.5836,-7.6166,-7.668,-7.7047,-7.7304,-7.7304,-7.7304,-7.7304,-7.7304,-7.7304,-7.7304,-7.7304,-7.7304,-7.7304,-7.7304,-7.8218,-7.9198,-7.9198,-7.9896,-8.04,-7.9515,-7.8631,-7.7823,-7.6976,-7.6361,-7.6015,-7.6015,-7.6015,-7.6015,-7.6015,0.0,-7.6015,-7.6015,-7.6015,-7.6015,-7.6015,-7.6015,-7.6015,-7.6015,-7.6341,-7.6582,-7.6582,-7.699,-7.7187,-7.7187,-7.7187,-7.7187,-7.7187,-7.7187,-7.7187,-7.7187,-7.7187,-7.7187,-7.7187,-7.7187,-7.7187,-7.7187,-7.7187,-7.7187,-7.7187,-7.7187,-7.7187,-7.7187,-7.7187,-7.7187,-7.7187,-7.7187,-7.7187,-7.7187,-7.7187,-7.7187,-7.7187,-5.5179,-5.5179,-5.5179,-5.5179,-5.5179,-5.5179,-5.5179,-5.5179,-5.5179,-5.5179,-5.5179,-5.5179,-5.5179,-5.5732,-5.6334,-5.6789,-5.8491,-6.0198,-6.1703,-6.3199,-6.4337,-6.4952,-6.5628,-6.6034,-6.6034,-6.6542,-6.7209,-6.8189,-6.9168,-7.0196,-7.1159,-7.2071,-7.2496,-7.2496,-7.2496,-7.2642,-7.2899,-7.2899,-7.334,-7.4111,-7.4331,-7.4771,-7.5359,-7.6166,-7.6497,-7.657,-7.7121,-7.7304,-7.7304,-7.7304,-7.7304,-7.7304,-7.7304,-7.7304,-7.7304,-7.7304,-7.7304,-7.7304,-7.7304,-7.8218,-7.9198,-7.9198,-8.0163,-8.0862,-8.0015,-7.9323,-7.8592,-7.7515,-7.6823,-7.6322,-7.6053,-7.6015,-7.6015,-7.6015,-7.6015,-7.6015,-7.6015,-7.6015,-7.6015,-7.6015,-7.6015,-7.6015,-7.6015,-7.6341,-7.6582,-7.6582,-7.699,-7.7187,-7.7187,-7.7187,-7.7187,-7.7187,-7.7187,-7.7187,-7.7187,-7.7187,-7.7187,-7.7187,-7.7187,-7.7187,-7.7187,-7.7187,-7.7187,-7.7187,-7.7187,-7.7187,-7.7187,-7.7187,-7.7187,-7.7187,-7.7187,-7.7187,-7.7187,-7.7187,-7.7187,-7.7187,-5.5179,-5.5179,-5.5179,-5.5179,-5.5179,-5.5179,-5.5179,-5.5179,-5.5179,-5.5179,-5.5179,-5.5209,-5.5209,-5.699,-5.8111,-5.8111,-6.0967,-6.3144,-6.387,-6.5746,-6.6474,-6.573,-6.6406,-6.6812,-6.6812,-6.6812,-6.7291,-6.8189,-6.9168,-7.0196,-7.1159,-7.2071,-7.2496,-7.2496,-7.2496,-7.2936,-7.3707,-7.3707,-7.4184,-7.4992,-7.5799,-7.6093,-7.6203,-7.7011,-7.7304,-7.7304,-7.7304,-7.7304,-7.7304,-7.7304,-7.7304,-7.7304,-7.7304,-7.7304,-7.7304,-7.7304,-7.7304,-7.7304,-7.7304,-7.8218,-7.9198,-7.9198,-8.0163,-8.0862,-8.0015,-7.9823,-7.9323,-7.7669,-7.7323,-7.7053,-7.6169,-7.6015,-7.6015,-7.6015,-7.6015,-7.6015,-7.6015,-7.6015,-7.6015,-7.6015,-7.6015,-7.6015,-7.6015,-7.6341,-7.6582,-7.6582,-7.699,-7.7187,-7.7187,-7.7187,-7.7187,-7.7187,-7.7187,-7.7187,-7.7187,-7.7187,-7.7187,-7.7187,-7.7187,-7.7187,-7.7187,-7.7187,-7.7187,-7.7187,-7.7187,-7.7187,-7.7187,-7.7187,-7.7187,-7.7187,-7.7187,-7.7187,-7.7187,-7.7187,-7.7187,-7.7187,-5.5179,-5.5179,-5.5179,-5.5179,-5.5179,-5.5179,-5.5179,-5.5179,-5.5179,-5.5179,-5.5598,-5.6244,-5.7181,-5.8128,-5.9402,-6.0709,-6.2516,-6.4254,-6.5865,-6.6508,-6.6711,-6.6474,-6.6677,-6.6812,-6.6812,-6.6812,-6.7616,-6.9241,-6.953,-7.0535,-7.2071,-7.238,-7.2496,-7.2532,-7.3083,-7.3487,-7.3744,-7.4294,-7.5028,-7.5763,-7.6019,-7.646,-7.6974,-7.7231,-7.7304,-7.7304,-7.7304,-7.7304,-7.7304,-7.7304,-7.7304,-7.7304,-7.7304,-7.7304,-7.7304,-7.7304,-7.7304,-7.7304,-7.7304,-7.7903,-7.8653,-7.9105,-8.0163,-8.1016,-8.0785,-8.0246,-7.9669,-7.9169,-7.813,-7.7207,-7.6938,-7.6399,-7.6015,-7.6015,-7.6015,-7.6015,-7.6015,-7.6015,-7.6015,-7.6015,-7.6015,-7.6015,-7.6015,-7.6341,-7.6582,-7.6582,-7.699,-7.7187,-7.7187,-7.7187,-7.7187,-7.7187,-7.7187,-7.7187,-7.7187,-7.7187,-7.7187,-7.7187,-7.7187,-7.7187,-7.7187,-7.7187,-7.7187,-7.7187,-7.7187,-7.7187,-7.7187,-7.7187,-7.7187,-7.7187,-7.7187,-7.7187,-7.7187,-7.7187,-7.7187,-7.7187,-5.5179,-5.5179,-5.5179,-5.5179,-5.5179,-5.5179,-5.5179,-5.5179,-5.5299,-5.5538,-5.6405,-5.7381,-5.8386,-5.9948,-6.1468,-6.2663,-6.4167,-6.556,-6.6694,-6.6812,-6.6812,-6.6812,-6.6812,-6.6812,-6.6812,-6.6812,-6.7742,-6.9708,-6.9708,-7.0668,-7.2496,-7.2826,-7.2973,-7.301,-7.3817,-7.4368,-7.4661,-7.5175,-7.5836,-7.657,-7.657,-7.69,-7.7304,-7.7304,-7.7304,-7.7304,-7.7304,-7.7304,-7.7304,-7.7304,-7.7304,-7.7304,-7.7304,-7.7304,-7.7304,-7.7304,-7.7304,-7.7304,-7.7304,-7.7923,-7.8754,-7.9105,-7.9967,-8.075,-8.1061,-8.0708,-8.0208,-7.9862,-7.8977,-7.8092,-7.74,-7.6861,-7.6399,-7.6053,-7.6015,-7.6015,-7.6015,-7.6015,-7.6015,-7.6015,-7.6015,-7.6015,-7.6015,-7.6341,-7.6677,-7.6839,-7.7055,-7.7187,-7.7187,-7.7187,-7.7187,-7.7187,-7.7187,-7.7187,-7.7187,-7.7187,-7.7187,-7.7187,-7.7187,-7.7187,-7.7187,-7.7187,-7.7187,-7.7187,-7.7187,-7.7187,-7.7187,-7.7187,-7.7187,-7.7187,-7.7187,-7.7187,-7.7187,-7.7187,-7.7187,-7.7187,-5.5179,-5.5179,-5.5179,-5.5179,-5.5179,-5.5179,-5.5179,-5.5239,-5.558,-5.6281,-5.748,-5.8612,-5.943,-6.2156,-6.4002,-6.4178,-6.5746,-6.6812,-6.6812,-6.6812,-6.6812,-6.6812,-6.6812,-6.6812,-6.6946,-6.6946,-6.7822,-6.9708,-6.9778,-7.077,-7.2606,-7.334,-7.3744,-7.3817,-7.4661,-7.5432,-7.6093,-7.6166,-7.6644,-7.7304,-7.7304,-7.7304,-7.7304,-7.7304,-7.7304,-7.7304,-7.7304,-7.7304,-7.7304,-7.7304,-7.7304,-7.7304,-7.7304,-7.7304,-7.7304,-7.7304,-7.7304,-7.7304,-7.7304,-7.8218,-7.9152,-7.9198,-7.9642,-8.0277,-8.0959,-8.1093,-8.0862,-8.0092,-7.9862,-7.9323,-7.7784,-7.74,-7.7053,-7.6245,-7.6053,-7.6015,-7.6015,-7.6015,-7.6015,-7.6015,-7.6015,-7.6015,-7.6015,-7.6341,-7.676,-7.7187,-7.7187,-7.7187,-7.7187,-7.7187,-7.7187,-7.7187,-7.7187,-7.7187,-7.7187,-7.7187,-7.7187,-7.7187,-7.7187,-7.7187,-7.7187,-7.7187,-7.7187,-7.7187,-7.7187,-7.7187,-7.7187,-7.7187,-7.7187,-7.7187,-7.7187,-7.7187,-7.7187,-7.7187,-7.7187,-7.7187,-5.5179,-5.5179,-5.5179,-5.5179,-5.5179,-5.5179,-5.5179,-5.5628,-5.6365,-5.7556,-5.8845,-6.0512,-6.262,-6.3941,-6.5116,-6.6085,-6.6542,-6.6812,-6.6812,-6.6812,-6.6812,-6.6812,-6.6812,-6.7161,-6.7866,-6.7911,-6.8531,-6.9708,-7.0468,-7.1675,-7.345,-7.3597,-7.4037,-7.4661,-7.5469,-7.5946,-7.613,-7.679,-7.7157,-7.7304,-7.7304,-7.7304,-7.7304,-7.7304,-7.7304,-7.7304,-7.7304,-7.7304,-7.7304,-7.7304,-7.7304,-7.7304,-7.7304,-7.7304,-7.7304,-7.7304,-7.7304,-7.7304,-7.7304,-7.7903,-7.8602,-7.9058,-7.9642,-8.0277,-8.0959,-8.1093,-8.1054,-8.0862,-8.0285,-7.9708,-7.9323,-7.8207,-7.7246,-7.7053,-7.6438,-7.6015,-7.6015,-7.6015,-7.6015,-7.6015,-7.6015,-7.6015,-7.6015,-7.6341,-7.676,-7.7187,-7.7187,-7.7187,-7.7187,-7.7187,-7.7187,-7.7187,-7.7187,-7.7187,-7.7187,-7.7187,-7.7187,-7.7187,-7.7187,-7.7187,-7.7187,-7.7187,-7.7187,-7.7187,-7.7187,-7.7187,-7.7187,-7.7187,-7.7187,-7.7187,-7.7187,-7.7187,-7.7187,-7.7187,-7.7187,-7.7187,-5.5179,-5.5179,-5.5179,-5.5179,-5.5448,-5.5658,-5.5658,-5.6779,-5.797,-5.8944,-6.0708,-6.2514,-6.4186,-6.5238,-6.6029,-6.6728,-6.6812,-6.6812,-6.6812,-6.6812,-6.6812,-6.6812,-6.6812,-6.7243,-6.8189,-6.8648,-6.9386,-7.04,-7.1261,-7.2372,-7.3707,-7.4478,-7.5065,-7.5506,-7.6313,-7.668,-7.6717,-7.7157,-7.7304,-7.7304,-7.7304,-7.7304,-7.7304,-7.7304,-7.7304,-7.7304,-7.7304,-7.7304,-7.7304,-7.7304,-7.7304,-7.7304,-7.7304,-7.7304,-7.7304,-7.7304,-7.7304,-7.7304,-7.7304,-7.7979,-7.8804,-7.9105,-7.9888,-8.0643,-8.0991,-8.1093,-8.1093,-8.1093,-8.0746,-8.0285,-7.99,-7.9092,-7.8246,-7.7438,-7.6899,-7.6476,-7.6053,-7.6015,-7.6015,-7.6015,-7.6015,-7.6062,-7.6147,-7.6419,-7.6738,-7.7048,-7.7145,-7.7187,-7.7187,-7.7187,-7.7187,-7.7187,-7.7187,-7.7187,-7.7187,-7.7187,-7.7187,-7.7187,-7.7187,-7.7187,-7.7187,-7.7187,-7.7187,-7.7187,-7.7187,-7.7187,-7.7187,-7.7187,-7.7187,-7.7187,-7.7187,-7.7187,-7.7187,-7.7187,-7.7187,-7.7187,-5.5179,-5.5179,-5.5239,-5.5329,-5.5807,-5.6299,-5.6594,-5.8123,-5.9607,-6.0631,-6.27,-6.4387,-6.5105,-6.6148,-6.6812,-6.6812,-6.6812,-6.6812,-6.6812,-6.6812,-6.6812,-6.6812,-6.6946,-6.7501,-6.842,-6.9599,-7.0511,-7.1276,-7.2155,-7.3042,-7.4147,-7.5469,-7.6166,-7.635,-7.7011,-7.7304,-7.7304,-7.7304,-7.7304,-7.7304,-7.7304,-7.7304,-7.7304,-7.7304,-7.7304,-7.7304,-7.7304,-7.7304,-7.7304,-7.7304,-7.7304,-7.7304,-7.7304,-7.7304,-7.7304,-7.7304,-7.7304,-7.7304,-7.7426,-7.8325,-7.9244,-7.9335,-8.024,-8.1093,-8.1093,-8.1093,-8.1093,-8.1093,-8.1093,-8.09,-8.0169,-7.99,-7.9361,-7.7938,-7.7476,-7.7053,-7.6322,-7.6092,-7.6015,-7.6015,-7.6015,-7.6079,-7.6273,-7.6493,-7.6702,-7.6872,-7.71,-7.7187,-7.7187,-7.7187,-7.7187,-7.7187,-7.7187,-7.7187,-7.7187,-7.7187,-7.7187,-7.7187,-7.7187,-7.7187,-7.7187,-7.7187,-7.7187,-7.7187,-7.7187,-7.7187,-7.7187,-7.7187,-7.7187,-7.7187,-7.7187,-7.7187,-7.7187,-7.7187,-7.7187,-7.7187,-5.5179,-5.5179,-5.5359,-5.5927,-5.6107,-5.6726,-5.8423,-5.9371,-6.0795,-6.3121,-6.4162,-6.5249,-6.6406,-6.6728,-6.6812,-6.6812,-6.6812,-6.6812,-6.6812,-6.6812,-6.6812,-6.6812,-6.7582,-6.8496,-6.9493,-7.1148,-7.1975,-7.2106,-7.3082,-7.4286,-7.5763,-7.5983,-7.646,-7.7157,-7.7268,-7.7304,-7.7304,-7.7304,-7.7304,-7.7304,-7.7304,-7.7304,-7.7304,-7.7304,-7.7304,-7.7304,-7.7304,-7.7304,-7.7304,-7.7304,-7.7304,-7.7304,-7.7304,-7.7304,-7.7304,-7.7304,-7.7304,-7.7426,-7.8016,-7.8653,-7.9335,-7.9847,-8.0535,-8.1093,-8.1093,-8.1093,-8.1093,-8.1093,-8.1093,-8.1054,-8.0939,-8.0323,-7.9746,-7.9515,-7.8246,-7.7246,-7.713,-7.6476,-7.6015,-7.6015,-7.6015,-7.6079,-7.625,-7.6493,-7.6702,-7.6872,-7.7097,-7.7187,-7.7187,-7.7187,-7.7187,-7.7187,-7.7187,-7.7187,-7.7187,-7.7187,-7.7187,-7.7187,-7.7187,-7.7187,-7.7187,-7.7187,-7.7187,-7.7187,-7.7187,-7.7187,-7.7187,-7.7187,-7.7187,-7.7187,-7.7187,-7.7187,-7.7187,-7.7187,-7.7187,-7.7187,-5.5179,-5.5478,-5.5837,-5.6137,-5.6765,-5.7825,-5.9463,-6.085,-6.2429,-6.4228,-6.5359,-6.6148,-6.6728,-6.6812,-6.6812,-6.6812,-6.6812,-6.6812,-6.6812,-6.6812,-6.7029,-6.7582,-6.799,-6.9122,-7.1112,-7.1909,-7.3016,-7.4405,-7.4811,-7.5395,-7.6093,-7.657,-7.6974,-7.7304,-7.7304,-7.7304,-7.7304,-7.7304,-7.7304,-7.7304,-7.7304,-7.7304,-7.7304,-7.7304,-7.7304,-7.7304,-7.7304,-7.7304,-7.7304,-7.7304,-7.7304,-7.7304,-7.7304,-7.7304,-7.7304,-7.7304,-7.7304,-7.7487,-7.809,-7.8754,-7.9335,-7.9929,-8.0608,-8.1093,-8.1093,-8.1093,-8.1093,-8.1093,-8.1093,-8.1093,-8.1093,-8.0785,-8.0362,-7.99,-7.9169,-7.8361,-7.7438,-7.6976,-7.6553,-7.6053,-7.6015,-7.6034,-7.6121,-7.6316,-7.6527,-7.6727,-7.6926,-7.7097,-7.7187,-7.7187,-7.7187,-7.7187,-7.7187,-7.7187,-7.7187,-7.7187,-7.7187,-7.7187,-7.7187,-7.7187,-7.7187,-7.7187,-7.7187,-7.7187,-7.7187,-7.7187,-7.7187,-7.7187,-7.7187,-7.7187,-7.7187,-7.7187,-7.7187,-7.7187,-7.7187,-7.7187]},{"header":{"parameterUnit":"m.s-1","parameterCategory":1,"la1":30.6,"la2":28.766,"lo1":-90.7593,"lo2":-88.6598,"dy":0.0162,"dx":0.0183,"nx":116,"ny":114,"refTime":"2023-11-18T06:00:00:Z","depth":0,"parameterNumber":3,"parameterNumberName":"V-component_of_WINDS"},"data":[0.0,0.0,0.0,0.0,0.0,0.0,0.0,0.0,0.0,0.0,0.0,0.0,0.0,0.0,0.0,0.0,0.0,0.0,0.0,0.0,0.0,0.0,0.0,0.0,0.0,0.0,0.0,0.0,0.0,0.0,0.0,0.0,0.0,0.0,0.0,0.0,0.0,0.0,0.0,0.0,0.0,0.0,0.0,0.0,0.0,0.0,0.0,0.0,0.0,0.0,0.0,0.0,0.0,0.0,0.0,0.0,0.0,0.0,0.0,0.0,0.0,0.0,0.0,0.0,0.0,0.0,0.0,0.0,0.0,0.0,0.0,0.0,0.0,0.0,0.0,0.0,0.0,0.0,0.0,0.0,0.0,0.0,0.0,0.0,0.0,0.0,0.0,0.0,0.0,0.0,0.0,0.0,0.0,0.0,0.0,0.0,0.0,0.0,0.0,0.0,0.0,0.0,0.0,0.0,0.0,0.0,0.0,0.0,0.0,0.0,0.0,0.0,0.0,0.0,0.0,0.0,0.0,0.0,0.0,0.0,0.0,0.0,0.0,0.0,0.0,0.0,0.0,0.0,0.0,0.0,0.0,0.0,0.0,0.0,0.0,0.0,0.0,0.0,0.0,0.0,0.0,0.0,0.0,0.0,0.0,0.0,0.0,0.0,0.0,0.0,0.0,0.0,0.0,0.0,0.0,0.0,0.0,0.0,0.0,0.0,0.0,0.0,0.0,0.0,0.0,0.0,0.0,0.0,0.0,0.0,0.0,0.0,0.0,0.0,0.0,0.0,0.0,0.0,0.0,0.0,0.0,0.0,0.0,0.0,0.0,0.0,0.0,0.0,0.0,0.0,0.0,0.0,0.0,0.0,0.0,0.0,0.0,0.0,0.0,0.0,0.0,0.0,0.0,0.0,0.0,0.0,0.0,0.0,0.0,0.0,0.0,0.0,0.0,0.0,0.0,0.0,0.0,0.0,0.0,0.0,0.0,0.0,0.0,0.0,0.0,0.0,0.0,0.0,0.0,0.0,0.0,0.0,0.0,0.0,0.0,0.0,0.0,0.0,0.0,0.0,0.0,0.0,0.0,0.0,0.0,0.0,0.0,0.0,0.0,0.0,0.0,0.0,0.0,0.0,0.0,0.0,0.0,0.0,0.0,0.0,0.0,0.0,0.0,0.0,0.0,0.0,0.0,0.0,0.0,0.0,0.0,0.0,0.0,0.0,0.0,0.0,0.0,0.0,0.0,0.0,0.0,0.0,0.0,0.0,0.0,0.0,0.0,0.0,0.0,0.0,0.0,0.0,0.0,0.0,0.0,0.0,0.0,0.0,0.0,0.0,0.0,0.0,0.0,0.0,0.0,0.0,0.0,0.0,0.0,0.0,0.0,0.0,0.0,0.0,0.0,0.0,0.0,0.0,0.0,0.0,0.0,0.0,0.0,0.0,0.0,0.0,0.0,0.0,0.0,0.0,0.0,0.0,0.0,0.0,0.0,0.0,0.0,0.0,0.0,0.0,0.0,0.0,0.0,0.0,0.0,0.0,0.0,0.0,0.0,0.0,0.0,0.0,0.0,0.0,0.0,0.0,0.0,0.0,0.0,0.0,0.0,0.0,0.0,0.0,0.0,0.0,0.0,0.0,0.0,0.0,0.0,0.0,0.0,0.0,0.0,0.0,0.0,0.0,0.0,0.0,0.0,0.0,0.0,0.0,0.0,0.0,0.0,0.0,0.0,0.0,0.0,0.0,0.0,0.0,0.0,0.0,0.0,0.0,0.0,0.0,0.0,0.0,0.0,0.0,0.0,0.0,0.0,0.0,0.0,0.0,0.0,0.0,0.0,0.0,0.0,0.0,0.0,0.0,0.0,0.0,0.0,0.0,0.0,0.0,0.0,0.0,0.0,0.0,0.0,0.0,0.0,0.0,0.0,0.0,0.0,0.0,0.0,0.0,0.0,0.0,0.0,0.0,0.0,0.0,0.0,0.0,0.0,0.0,0.0,0.0,0.0,0.0,0.0,0.0,0.0,0.0,0.0,0.0,0.0,0.0,0.0,0.0,0.0,0.0,0.0,0.0,0.0,0.0,0.0,0.0,0.0,0.0,0.0,0.0,0.0,0.0,0.0,0.0,0.0,0.0,0.0,0.0,0.0,0.0,0.0,0.0,0.0,0.0,0.0,0.0,0.0,0.0,0.0,0.0,0.0,0.0,0.0,0.0,0.0,0.0,0.0,0.0,0.0,0.0,0.0,0.0,0.0,0.0,0.0,0.0,0.0,0.0,0.0,0.0,0.0,0.0,0.0,0.0,0.0,0.0,0.0,0.0,0.0,0.0,0.0,0.0,0.0,0.0,0.0,0.0,0.0,0.0,0.0,0.0,0.0,0.0,0.0,0.0,0.0,0.0,0.0,0.0,0.0,0.0,0.0,0.0,0.0,0.0,0.0,0.0,0.0,0.0,0.0,0.0,0.0,0.0,0.0,0.0,0.0,0.0,0.0,0.0,0.0,0.0,0.0,0.0,0.0,0.0,0.0,0.0,0.0,0.0,0.0,0.0,0.0,0.0,0.0,0.0,0.0,0.0,0.0,0.0,0.0,0.0,0.0,0.0,0.0,0.0,0.0,0.0,0.0,0.0,0.0,0.0,0.0,0.0,0.0,0.0,0.0,0.0,0.0,0.0,0.0,0.0,0.0,0.0,0.0,0.0,0.0,0.0,0.0,0.0,0.0,0.0,0.0,0.0,0.0,0.0,0.0,0.0,0.0,0.0,0.0,0.0,0.0,0.0,0.0,0.0,0.0,0.0,0.0,0.0,0.0,0.0,0.0,0.0,0.0,0.0,0.0,0.0,0.0,0.0,0.0,0.0,0.0,0.0,0.0,0.0,0.0,0.0,0.0,0.0,0.0,0.0,0.0,0.0,0.0,0.0,0.0,0.0,0.0,0.0,0.0,0.0,0.0,0.0,0.0,0.0,0.0,0.0,0.0,0.0,0.0,0.0,0.0,0.0,0.0,0.0,0.0,0.0,0.0,0.0,0.0,0.0,0.0,0.0,0.0,0.0,0.0,0.0,0.0,0.0,0.0,0.0,0.0,0.0,0.0,0.0,0.0,0.0,0.0,0.0,0.0,0.0,0.0,0.0,0.0,0.0,0.0,0.0,0.0,0.0,0.0,0.0,0.0,0.0,0.0,0.0,0.0,0.0,0.0,0.0,0.0,0.0,0.0,0.0,0.0,0.0,0.0,0.0,0.0,0.0,0.0,0.0,0.0,0.0,0.0,0.0,0.0,0.0,0.0,0.0,0.0,0.0,0.0,0.0,0.0,0.0,0.0,0.0,0.0,0.0,0.0,0.0,0.0,0.0,0.0,0.0,0.0,0.0,0.0,0.0,0.0,0.0,0.0,0.0,0.0,0.0,0.0,0.0,0.0,0.0,0.0,0.0,0.0,0.0,0.0,0.0,0.0,0.0,0.0,0.0,0.0,0.0,0.0,0.0,0.0,0.0,0.0,0.0,0.0,0.0,0.0,0.0,0.0,0.0,0.0,0.0,0.0,0.0,0.0,0.0,0.0,0.0,0.0,0.0,0.0,0.0,0.0,0.0,0.0,0.0,0.0,0.0,0.0,0.0,0.0,0.0,0.0,0.0,0.0,0.0,0.0,0.0,0.0,0.0,0.0,0.0,0.0,0.0,0.0,0.0,0.0,0.0,0.0,0.0,0.0,0.0,0.0,0.0,0.0,0.0,0.0,0.0,0.0,0.0,0.0,0.0,0.0,0.0,0.0,0.0,0.0,0.0,0.0,0.0,0.0,0.0,0.0,0.0,0.0,0.0,0.0,0.0,0.0,0.0,0.0,0.0,0.0,0.0,0.0,0.0,0.0,0.0,0.0,0.0,0.0,0.0,0.0,0.0,0.0,0.0,0.0,0.0,0.0,0.0,0.0,0.0,0.0,0.0,0.0,0.0,0.0,0.0,0.0,0.0,0.0,0.0,0.0,0.0,0.0,0.0,0.0,0.0,0.0,0.0,0.0,0.0,0.0,0.0,0.0,0.0,0.0,0.0,0.0,0.0,0.0,0.0,0.0,0.0,0.0,0.0,0.0,0.0,0.0,0.0,0.0,0.0,0.0,0.0,0.0,0.0,0.0,0.0,0.0,0.0,0.0,0.0,0.0,0.0,0.0,0.0,0.0,0.0,0.0,0.0,0.0,0.0,0.0,0.0,0.0,0.0,0.0,0.0,0.0,0.0,0.0,0.0,0.0,0.0,0.0,0.0,0.0,0.0,0.0,0.0,0.0,0.0,0.0,0.0,0.0,0.0,0.0,0.0,0.0,0.0,0.0,0.0,0.0,0.0,0.0,0.0,0.0,0.0,0.0,0.0,0.0,0.0,0.0,0.0,0.0,0.0,0.0,0.0,0.0,0.0,0.0,0.0,0.0,0.0,0.0,0.0,0.0,0.0,0.0,0.0,0.0,0.0,0.0,0.0,0.0,0.0,0.0,0.0,0.0,0.0,0.0,0.0,0.0,0.0,0.0,0.0,0.0,0.0,0.0,0.0,0.0,0.0,0.0,0.0,0.0,0.0,0.0,0.0,0.0,0.0,0.0,0.0,0.0,0.0,0.0,0.0,0.0,0.0,0.0,0.0,0.0,0.0,0.0,0.0,0.0,0.0,0.0,0.0,0.0,0.0,0.0,0.0,0.0,0.0,0.0,0.0,0.0,0.0,0.0,0.0,0.0,0.0,0.0,0.0,0.0,0.0,0.0,0.0,0.0,0.0,0.0,0.0,0.0,0.0,0.0,0.0,0.0,0.0,0.0,0.0,0.0,0.0,0.0,0.0,0.0,0.0,0.0,0.0,0.0,0.0,0.0,0.0,0.0,0.0,0.0,0.0,0.0,0.0,0.0,0.0,0.0,0.0,0.0,0.0,0.0,0.0,0.0,0.0,0.0,0.0,0.0,0.0,0.0,0.0,0.0,0.0,0.0,0.0,0.0,0.0,0.0,0.0,0.0,0.0,0.0,0.0,0.0,0.0,0.0,0.0,0.0,0.0,0.0,0.0,0.0,0.0,0.0,0.0,0.0,0.0,0.0,0.0,0.0,0.0,0.0,0.0,0.0,0.0,0.0,0.0,0.0,0.0,0.0,0.0,0.0,0.0,0.0,0.0,0.0,0.0,0.0,0.0,0.0,0.0,0.0,0.0,0.0,0.0,0.0,0.0,0.0,0.0,0.0,0.0,0.0,0.0,0.0,0.0,0.0,0.0,0.0,0.0,0.0,0.0,0.0,0.0,0.0,0.0,0.0,0.0,0.0,0.0,0.0,0.0,0.0,0.0,0.0,0.0,0.0,0.0,0.0,0.0,0.0,0.0,0.0,0.0,0.0,0.0,0.0,0.0,0.0,0.0,0.0,0.0,0.0,0.0,0.0,0.0,0.0,0.0,0.0,0.0,0.0,0.0,0.0,0.0,0.0,0.0,0.0,0.0,0.0,0.0,0.0,0.0,0.0,0.0,0.0,0.0,0.0,0.0,0.0,0.0,0.0,0.0,0.0,0.0,0.0,0.0,0.0,0.0,0.0,0.0,0.0,0.0,0.0,0.0,0.0,0.0,0.0,0.0,0.0,0.0,0.0,0.0,0.0,0.0,0.0,0.0,0.0,0.0,0.0,0.0,0.0,0.0,0.0,0.0,0.0,0.0,0.0,0.0,0.0,0.0,0.0,0.0,0.0,0.0,0.0,0.0,0.0,0.0,0.0,0.0,0.0,0.0,0.0,0.0,0.0,0.0,0.0,0.0,0.0,0.0,0.0,0.0,0.0,0.0,0.0,0.0,0.0,0.0,0.0,0.0,0.0,0.0,0.0,0.0,0.0,0.0,0.0,0.0,0.0,0.0,0.0,0.0,0.0,0.0,0.0,0.0,0.0,0.0,0.0,0.0,0.0,0.0,0.0,0.0,0.0,0.0,0.0,0.0,0.0,0.0,0.0,0.0,0.0,0.0,0.0,0.0,0.0,0.0,0.0,0.0,0.0,0.0,0.0,0.0,0.0,0.0,0.0,0.0,0.0,0.0,0.0,0.0,0.0,0.0,0.0,0.0,0.0,0.0,0.0,0.0,0.0,0.0,-1.2501,-1.2501,0.0,0.0,0.0,0.0,0.0,0.0,0.0,0.0,0.0,0.0,0.0,0.0,0.0,0.0,0.0,0.0,0.0,0.0,0.0,0.0,0.0,0.0,0.0,0.0,0.0,0.0,0.0,0.0,0.0,0.0,0.0,0.0,0.0,0.0,0.0,0.0,0.0,-1.7388,-1.4432,-1.3024,-1.3024,-1.3024,-1.2459,-1.1619,0.0,0.0,0.0,0.0,0.0,0.0,0.0,0.0,0.0,0.0,0.0,0.0,0.0,0.0,0.0,0.0,0.0,0.0,0.0,0.0,0.0,0.0,0.0,0.0,0.0,0.0,0.0,0.0,0.0,0.0,0.0,0.0,0.0,0.0,0.0,0.0,0.0,0.0,0.0,0.0,0.0,0.0,0.0,0.0,0.0,0.0,0.0,0.0,0.0,0.0,0.0,0.0,0.0,0.0,0.0,0.0,0.0,0.0,0.0,0.0,0.0,0.0,0.0,0.0,0.0,0.0,0.0,0.0,0.0,0.0,-1.2501,-1.2501,0.0,0.0,0.0,0.0,0.0,0.0,0.0,0.0,0.0,0.0,0.0,0.0,0.0,0.0,0.0,0.0,0.0,0.0,0.0,0.0,0.0,0.0,0.0,-3.2641,-3.165,-3.0917,-3.0587,-2.983,0.0,0.0,0.0,0.0,0.0,0.0,-1.9252,-1.7845,-1.6253,-1.4407,-1.2459,-1.1619,-1.1619,-1.1619,-1.1619,-1.1619,-1.1619,0.0,0.0,0.0,0.0,0.0,0.0,0.0,0.0,0.0,0.0,0.0,0.0,0.0,0.0,0.0,0.0,0.0,0.0,0.0,0.0,0.0,0.0,0.0,0.0,0.0,0.0,0.0,0.0,0.0,0.0,0.0,0.0,0.0,0.0,0.0,0.0,0.0,0.0,0.0,0.0,0.0,0.0,0.0,0.0,0.0,0.0,0.0,0.0,0.0,0.0,0.0,0.0,0.0,0.0,0.0,0.0,0.0,0.0,0.0,0.0,0.0,0.0,0.0,-1.2501,-1.2501,-1.2501,-1.2501,-1.2501,-1.2501,-1.2501,-1.2501,-1.2501,-1.2501,0.0,0.0,0.0,0.0,0.0,0.0,0.0,0.0,0.0,0.0,0.0,0.0,0.0,0.0,0.0,0.0,0.0,0.0,0.0,0.0,0.0,-3.3409,-3.2705,-3.1033,-2.9521,-2.8615,-2.8443,0.0,0.0,0.0,0.0,0.0,-1.9639,-1.8078,-1.6215,-1.4446,-1.2573,-1.1619,-1.1619,-1.1619,-1.1619,-1.1619,-1.1619,-1.1619,-1.1619,0.0,0.0,0.0,0.0,0.0,0.0,0.0,0.0,0.0,0.0,0.0,0.0,0.0,0.0,0.0,0.0,0.0,0.0,0.0,0.0,0.0,0.0,0.0,0.0,0.0,0.0,0.0,0.0,0.0,0.0,0.0,0.0,0.0,0.0,0.0,0.0,0.0,0.0,0.0,0.0,0.0,-1.1619,-1.1619,0.0,0.0,0.0,0.0,0.0,0.0,0.0,0.0,0.0,0.0,0.0,0.0,0.0,-1.2501,-1.2501,-1.2501,-1.2501,-1.2501,-1.2501,-1.2501,-1.2501,-1.2501,-1.2501,-1.2501,-1.2501,0.0,-1.2501,-1.2501,0.0,0.0,0.0,0.0,0.0,0.0,0.0,0.0,0.0,0.0,0.0,0.0,0.0,0.0,0.0,0.0,0.0,0.0,0.0,0.0,0.0,-3.2503,-3.1075,-2.9678,-2.8769,-2.763,-2.579,-2.4405,0.0,0.0,0.0,-2.0707,-1.8038,-1.7475,-1.5821,-1.2828,-1.2022,-1.1619,-1.1619,-1.1619,-1.1619,-1.1619,-1.1619,-1.1619,-1.1619,-1.1619,0.0,0.0,0.0,0.0,0.0,0.0,0.0,0.0,0.0,0.0,0.0,0.0,0.0,0.0,0.0,0.0,0.0,0.0,0.0,0.0,0.0,0.0,0.0,0.0,0.0,0.0,0.0,0.0,0.0,0.0,0.0,0.0,0.0,0.0,0.0,0.0,0.0,0.0,0.0,-1.1619,-1.1619,-1.1619,-1.1619,-1.1619,0.0,0.0,0.0,0.0,0.0,0.0,0.0,0.0,0.0,-1.2501,-1.2501,-1.2501,-1.2501,-1.2501,-1.2501,-1.2501,-1.2501,-1.2501,-1.2501,-1.2501,-1.2501,-1.2501,-1.2501,-1.2501,-1.2501,-1.2501,-1.2501,-1.2347,0.0,0.0,0.0,0.0,-0.7673,-0.7361,0.0,0.0,0.0,0.0,0.0,0.0,0.0,0.0,0.0,0.0,0.0,0.0,-3.3078,-3.1653,-3.0042,-2.8542,-2.8056,-2.6537,-2.3806,-2.3157,-2.2529,-2.1795,-2.183,-2.0414,-1.6922,-1.6125,-1.4441,-1.1619,-1.1619,-1.1619,-1.1619,-1.1619,-1.1619,-1.1619,-1.1619,-1.1619,-1.1619,-1.1619,-1.1619,-1.1619,0.0,0.0,0.0,0.0,0.0,0.0,0.0,0.0,0.0,0.0,0.0,0.0,0.0,0.0,0.0,0.0,0.0,0.0,0.0,0.0,0.0,0.0,0.0,0.0,0.0,0.0,0.0,0.0,0.0,0.0,0.0,0.0,0.0,0.0,0.0,0.0,0.0,-1.1619,-1.1619,-1.1619,-1.1619,-1.1619,0.0,0.0,0.0,0.0,0.0,0.0,-1.234,-1.2501,-1.2501,-1.2501,-1.2501,-1.2501,-1.2501,-1.2501,-1.2501,-1.2501,-1.2501,-1.2501,-1.2501,-1.2501,-1.2501,-1.2501,-1.2501,-1.2192,-1.1734,-1.2347,-1.2192,-1.1572,-0.9987,-0.909,-0.8364,-0.6298,-0.551,-0.5193,0.0,0.0,0.0,0.0,0.0,0.0,0.0,0.0,0.0,0.0,0.0,-3.4047,-3.1889,-3.1968,-3.1132,-2.8597,-2.7051,-2.5439,-2.3725,-2.209,-2.1502,-2.1977,-2.2045,-2.0513,-1.7234,-1.3758,-1.1763,-1.1619,-1.1619,-1.1619,-1.1619,-1.1619,-1.1619,-1.1619,-1.1619,-1.1619,-1.1619,-1.1619,-1.1619,-1.1619,-1.1619,0.0,0.0,0.0,0.0,0.0,0.0,0.0,0.0,0.0,0.0,0.0,0.0,0.0,0.0,0.0,0.0,0.0,0.0,0.0,0.0,0.0,0.0,0.0,0.0,0.0,0.0,0.0,0.0,0.0,0.0,0.0,0.0,0.0,0.0,0.0,0.0,0.0,0.0,-1.1619,-1.1619,0.0,0.0,0.0,0.0,-1.234,-1.2347,-1.2501,-1.2501,-1.2501,-1.2501,-1.2501,-1.2501,-1.2501,-1.2501,-1.2501,-1.2501,-1.2501,-1.2501,-1.2501,-1.2501,-1.2501,-1.2501,-1.2501,-1.2501,-1.1423,-0.9724,-1.1734,-1.1268,-0.9568,-0.9412,-0.8167,-0.6141,-0.4088,-0.3301,-0.2987,0.0,0.0,0.0,0.0,0.0,0.0,0.0,0.0,-3.8092,-3.6132,-3.4861,-3.3582,-3.216,-3.1659,-3.0121,-2.7123,-2.6371,-2.4903,-2.2131,-2.1402,-2.1389,-2.1977,-2.1938,-2.0455,-1.7208,-1.3484,-1.1619,-1.1619,-1.1619,-1.1025,-0.9701,-1.1025,-1.0881,-0.985,-1.1031,-1.1619,-1.1619,-1.1619,-1.1619,-1.1619,-1.1619,-1.1619,0.0,0.0,0.0,0.0,0.0,0.0,0.0,0.0,0.0,0.0,0.0,0.0,0.0,0.0,0.0,0.0,0.0,0.0,0.0,0.0,0.0,0.0,0.0,0.0,0.0,0.0,0.0,0.0,0.0,0.0,0.0,0.0,0.0,0.0,0.0,0.0,0.0,-1.1619,-1.1636,0.0,-1.2052,-1.1998,-1.2206,-1.2333,-1.2379,-1.2366,-1.2494,-1.2501,-1.2501,-1.2501,-1.2501,-1.2501,-1.2501,-1.2501,-1.2501,-1.2501,-1.2501,-1.2501,-1.2501,-1.2501,-1.1721,-1.0469,-1.0469,-0.9382,-0.7513,-0.8132,-0.8132,-0.7201,-0.5962,-0.487,-0.3931,-0.1886,-0.1099,-0.0942,0.0,0.0,0.0,0.0,0.0,0.0,0.0,0.0,-3.7767,-3.5993,-3.4659,-3.3295,-3.1696,-3.1191,-2.9638,-2.6248,-2.5954,-2.4619,-2.1262,-2.1109,-2.1389,-2.1977,-2.1022,-1.9044,-1.6271,-1.3259,-1.1619,-1.1619,-1.1619,-1.0881,-0.9701,-1.1063,-1.0919,-0.9701,-1.1031,-1.1619,-1.1619,-1.1619,-1.1619,-1.1619,-1.1619,-1.1619,-1.1619,0.0,0.0,0.0,0.0,0.0,0.0,0.0,0.0,0.0,0.0,0.0,0.0,0.0,0.0,0.0,0.0,0.0,0.0,0.0,0.0,0.0,0.0,0.0,0.0,0.0,0.0,0.0,0.0,0.0,0.0,0.0,0.0,0.0,0.0,-1.1619,-1.1619,-1.1619,-1.173,-1.1945,-1.2045,-1.2112,-1.2206,-1.2488,-1.2379,-1.2359,-1.2494,-1.2501,-1.2501,-1.2501,-1.2501,-1.2501,-1.2501,-1.2501,-1.2501,-1.2501,-1.2501,-1.2501,-1.2501,-1.2501,-1.1721,-1.0469,-0.9687,-0.8283,-0.6254,-0.5474,-0.4849,-0.407,-0.345,-0.2669,-0.1886,-0.0471,0.0,0.0,0.0,0.0,0.0,0.0,0.0,0.0,0.0,-3.9639,-3.7603,-3.4244,-3.42,-3.3293,-3.0568,-3.0587,-2.9638,-2.6248,-2.5954,-2.4619,-2.1262,-2.1109,-2.1402,-2.1892,-1.8864,-1.636,-1.4449,-1.251,-1.1619,-1.1619,-1.1619,-1.1619,-1.1476,-1.1583,-1.1576,-1.1476,-1.1619,-1.1619,-1.1619,-1.1619,-1.1619,-1.1619,-1.1619,-1.1619,-1.1619,0.0,0.0,0.0,0.0,0.0,0.0,0.0,0.0,0.0,0.0,0.0,0.0,0.0,0.0,0.0,0.0,0.0,0.0,0.0,0.0,0.0,0.0,0.0,0.0,0.0,0.0,0.0,0.0,0.0,0.0,0.0,0.0,0.0,-1.1619,-1.1619,-1.1619,-1.1626,-1.173,-1.1868,-1.2146,-1.2185,-1.234,-1.2501,-1.2501,-1.2501,-1.2501,-1.2501,-1.2501,-1.2501,-1.2501,-1.2501,-1.2501,-1.2501,-1.2501,-1.2501,-1.2501,-1.2501,-1.2501,-1.2501,-1.2501,-1.2347,-1.0314,-0.8128,-0.6098,-0.4068,-0.188,-0.0157,-0.2194,-0.1724,0.0,0.0,0.0,0.0,0.0,0.0,0.0,0.0,0.0,0.0,0.0,-3.9032,-3.7265,-3.4621,-3.434,-3.343,-3.1035,-3.0879,-2.9638,-2.6248,-2.5954,-2.4619,-2.1262,-2.1389,-2.1057,-2.0246,-1.8282,-1.6292,-1.4457,-1.251,-1.1619,-1.1619,-1.1619,-1.0881,-0.9557,-1.0913,-1.0906,-0.9557,-1.1025,-1.1619,-1.1619,-1.1619,-1.1619,-1.1619,-1.1619,-1.1619,-1.1619,0.0,0.0,0.0,0.0,0.0,0.0,0.0,0.0,0.0,0.0,0.0,0.0,0.0,0.0,0.0,0.0,0.0,0.0,0.0,0.0,0.0,0.0,0.0,0.0,0.0,0.0,0.0,0.0,0.0,0.0,0.0,-1.1619,-1.1619,-1.1619,-1.1619,-1.166,-1.1762,-1.1938,-1.2135,-1.2172,-1.244,-1.2501,-1.2501,-1.2501,-1.2501,-1.2501,-1.2501,-1.2501,-1.2501,-1.2501,-1.2501,-1.2501,-1.2501,-1.2501,-1.2501,-1.2501,-1.2501,-1.2501,-1.2501,-1.1721,-1.0153,-0.9687,-0.7345,-0.4068,-0.5006,-0.3288,0.0,-0.0628,-0.0471,0.0,0.0,0.0,0.0,0.0,0.0,0.0,0.0,0.0,0.0,0.0,-3.9171,-3.7467,-3.5142,-3.4825,-3.3768,-3.1191,-3.0276,-2.8769,-2.6231,-2.5349,-2.3881,-2.1249,-2.1563,-2.08,-1.8572,-1.7662,-1.5974,-1.3259,-1.2215,-1.1619,-1.1619,-1.1619,-1.1025,-0.9994,-1.1031,-1.1025,-0.9994,-1.1031,-1.1619,-1.1619,-1.1619,-1.1619,-1.1619,-1.1619,-1.1619,-1.1619,-1.1619,-1.3858,-1.7132,-1.7174,-1.9656,-2.2859,-2.2859,0.0,0.0,0.0,0.0,0.0,0.0,0.0,0.0,0.0,0.0,0.0,0.0,0.0,0.0,0.0,0.0,0.0,0.0,0.0,0.0,0.0,0.0,0.0,0.0,-1.1619,-1.164,-1.1701,-1.1708,-1.1742,-1.1823,-1.2026,-1.2189,-1.2284,-1.242,-1.2501,-1.2501,-1.2501,-1.2501,-1.2501,-1.2501,-1.2501,-1.2501,-1.2501,-1.2501,-1.2501,-1.2501,-1.2501,-1.2501,-1.2501,-1.2501,-1.2501,-1.2501,-1.1876,-1.0624,-0.9842,-0.7968,-0.5783,-0.6098,-0.4383,-0.1254,0.0,0.0,0.0,0.0,0.0,0.0,0.0,0.0,0.0,0.0,0.0,0.0,0.0,-3.9672,-3.8123,-3.5639,-3.5313,-3.4223,-3.121,-2.9367,-2.7768,-2.6167,-2.4548,-2.299,-2.1262,-2.146,-2.0251,-1.697,-1.6905,-1.5219,-1.1619,-1.1619,-1.1619,-1.1619,-1.1619,-1.1619,-1.1619,-1.1619,-1.1619,-1.1619,-1.1619,-1.1619,-1.1619,-1.1619,-1.1619,-1.1619,-1.1619,-1.1619,-1.1619,-1.1619,-1.3977,-1.7196,-1.7154,-1.9656,-2.2859,-2.2859,0.0,0.0,0.0,0.0,0.0,0.0,0.0,0.0,0.0,0.0,0.0,0.0,0.0,0.0,0.0,0.0,0.0,0.0,0.0,0.0,0.0,0.0,0.0,0.0,-1.1633,-1.1687,-1.1816,-1.1864,-1.1884,-1.1884,-1.2121,-1.2298,-1.2311,-1.2427,-1.2501,-1.2501,-1.2501,-1.2501,-1.2501,-1.2501,0.0,0.0,0.0,-1.2501,-1.2501,-1.2501,-1.2501,-1.2501,-1.2501,-1.2501,-1.2501,-1.2501,-1.2501,-1.2347,-1.0624,-0.9687,-0.9216,-0.7661,-0.563,-0.3443,-0.2975,-0.1568,0.0,0.0,0.0,0.0,0.0,0.0,0.0,0.0,0.0,0.0,0.0,-3.9697,-3.8502,-3.5662,-3.5313,-3.4223,-3.121,-2.9367,-2.7754,-2.6091,-2.4482,-2.3131,-2.1837,-2.056,-1.8902,-1.7265,-1.5707,-1.3858,-1.1619,-1.1619,-1.1619,-1.1619,-1.1619,-1.1619,-1.1619,-1.1619,-1.1619,-1.1619,-1.1619,-1.1619,-1.1619,-1.1619,-1.1619,-1.1619,-1.1619,-1.1619,-1.1619,-1.1619,-1.3932,-1.7261,-1.7159,-1.9656,-2.2859,-2.2859,-2.2859,-2.2859,-2.2859,-2.2859,0.0,0.0,0.0,0.0,0.0,0.0,0.0,0.0,0.0,0.0,0.0,0.0,0.0,0.0,0.0,0.0,0.0,0.0,0.0,-1.1619,-1.1714,-1.1796,-1.183,-1.2047,-1.2203,-1.2203,-1.225,-1.2332,-1.2447,-1.2488,-1.2501,-1.2501,-1.2501,-1.2501,-1.2501,-1.2501,-1.2501,-1.2501,-1.2501,-1.2501,-1.2501,-1.2501,-1.2501,-1.2501,-1.2501,0.0,-1.2501,-1.2501,-1.2501,-1.2501,-1.203,-1.0934,-0.9532,-1.0779,-0.9061,-0.5318,-0.1881,-0.0314,0.0,0.0,0.0,0.0,0.0,0.0,0.0,0.0,0.0,0.0,0.0,-3.9034,-3.7795,-3.5615,-3.467,-3.341,-3.1191,-2.9367,-2.8033,-2.7244,-2.5076,-2.3286,-2.2117,-2.0414,-1.8738,-1.7238,-1.539,-1.3554,-1.1619,-1.1619,-1.1619,-1.1619,-1.1619,-1.1619,-1.1619,-1.1619,-1.1619,-1.1619,-1.1619,-1.1619,-1.1619,-1.1619,-1.1619,-1.1619,-1.1619,-1.2158,-1.2963,-1.2963,-1.4745,-1.7323,-1.8353,-2.0412,-2.2859,-2.2859,-2.2859,-2.2859,-2.2859,-2.2859,-2.2859,0.0,0.0,0.0,0.0,0.0,0.0,0.0,0.0,0.0,0.0,0.0,0.0,0.0,0.0,-1.1619,-1.1619,0.0,-1.1619,-1.1619,-1.1742,-1.1857,-1.1938,-1.2149,-1.2291,-1.2291,-1.2352,-1.2427,-1.2494,-1.2501,-1.2501,-1.2501,-1.2501,-1.2501,-1.2501,-1.2501,-1.2501,-1.2501,-1.2501,-1.2501,-1.2501,-1.2501,-1.2501,-1.2501,-1.2501,-1.2501,-1.2501,-1.2501,-1.2501,-1.2501,-1.2501,-1.1876,-1.0934,-0.9842,-0.8128,-0.5942,-0.1725,0.0,0.0,0.0,0.0,0.0,0.0,0.0,0.0,0.0,0.0,0.0,0.0,-3.8452,-3.7004,-3.5478,-3.4022,-3.2484,-3.1054,-2.9367,-2.8199,-2.7458,-2.536,-2.3403,-2.2025,-2.0087,-1.8432,-1.7325,-1.5058,-1.3108,-1.1619,-1.1619,-1.1619,-1.1619,-1.1619,-1.1619,-1.1619,-1.1619,-1.1619,-1.1619,-1.1619,-1.1619,-1.1619,-1.1619,-1.1619,-1.1619,-1.2036,-1.2978,-1.4455,-1.5289,-1.6177,-1.7498,-1.9347,-2.1071,-2.2435,-2.2722,-2.2859,-2.2859,-2.2859,-2.2859,-2.2859,-2.2859,-2.2859,0.0,0.0,0.0,0.0,0.0,0.0,0.0,0.0,-1.1619,-1.1619,-1.1619,-1.1619,-1.1619,-1.1619,-1.1619,-1.1626,-1.1653,-1.1782,-1.1932,-1.2088,-1.2237,-1.2332,-1.2332,-1.2433,-1.2501,-1.2501,-1.2501,-1.2501,-1.2501,-1.2501,-1.2501,-1.2501,-1.2501,-1.2501,-1.2501,-1.2501,-1.2501,-1.2501,-1.2501,-1.2501,-1.2501,-1.2501,-1.2501,-1.2501,-1.2501,-1.2501,-1.2501,-1.2501,-1.2501,-1.2185,-0.7972,-0.6254,-0.5945,-0.1572,0.0,0.0,0.0,0.0,0.0,0.0,0.0,0.0,0.0,0.0,0.0,0.0,0.0,-3.698,-3.5457,-3.4054,-3.2484,-3.1054,-2.9367,-2.7193,-2.444,-2.4101,-2.3465,-2.2133,-1.8982,-1.7076,-1.7171,-1.3858,-1.177,-1.1619,-1.1619,-1.1619,-1.1619,-1.1619,-1.1619,-1.1619,-1.1619,-1.1619,-1.1619,-1.1619,-1.1619,-1.1619,-1.1619,-1.1619,-1.1756,-1.3421,-1.4265,-1.4832,-1.8207,-1.8454,-1.7426,-1.945,-2.0178,-2.0617,-2.2297,-2.2859,-2.2859,-2.2859,-2.2859,-2.2859,-2.2859,-2.2859,-2.2859,-2.2859,-2.0328,-1.7388,-1.6967,-1.4441,-1.19,0.0,-1.1619,-1.1619,-1.1619,-1.1619,-1.1619,-1.1619,-1.1619,-1.166,-1.1789,-1.1938,-1.2088,-1.2244,-1.2386,-1.2481,-1.2481,-1.2494,-1.2501,-1.2501,-1.2501,-1.2501,-1.2501,-1.2501,-1.2501,-1.2501,-1.2501,-1.2501,-1.2501,-1.2501,-1.2501,-1.2501,-1.2501,-1.2501,-1.2501,-1.2501,-1.2501,-1.2501,-1.2501,-1.2501,-1.2501,-1.2501,-1.2501,-1.2185,-0.7972,-0.6254,-0.5949,-0.1587,0.0,0.0,0.0,0.0,0.0,0.0,0.0,0.0,0.0,0.0,0.0,0.0,0.0,0.0,-3.417,-3.2779,-3.1523,-3.1035,-3.0276,-2.8555,-2.5546,-2.5454,-2.4701,-2.2343,-2.009,-1.8272,-1.7181,-1.461,-1.2661,-1.1619,-1.1619,-1.1619,-1.1619,-1.1619,-1.1619,-1.1619,-1.1619,-1.1619,-1.1619,-1.1619,-1.1619,-1.1619,-1.2745,-1.3167,-1.3452,-1.5265,-1.6676,-1.7949,-1.9495,-1.9611,-1.9161,-2.102,-2.1734,0.0,-2.2585,-2.2859,-2.2859,-2.2859,-2.2859,-2.2859,-2.2859,-2.2859,-2.2722,-2.1596,-1.9217,-1.6967,-1.5839,-1.3595,-1.1619,-1.1619,-1.1619,-1.1619,-1.1619,-1.1619,-1.1619,-1.1619,-1.1687,-1.1762,-1.1823,-1.2033,-1.2216,-1.2284,-1.2413,-1.2501,-1.2501,-1.2501,-1.2501,-1.2501,-1.2501,-1.2501,-1.2501,-1.2501,-1.2501,-1.2501,-1.2501,-1.2501,-1.2501,-1.2501,-1.2501,-1.2501,-1.2501,-1.2501,-1.2501,-1.2501,-1.2501,-1.2501,-1.2501,-1.2501,-1.2501,-1.2501,-1.1876,-1.0469,-0.7501,-0.563,-0.4073,-0.1113,0.0,0.0,0.0,0.0,0.0,0.0,0.0,0.0,0.0,0.0,0.0,0.0,0.0,0.0,0.0,-3.1836,-3.0898,-3.0898,-3.0898,-2.9673,-2.6668,-2.6697,-2.5559,-2.2656,-2.1009,-1.9415,-1.8028,-1.5739,-1.3706,-1.2366,-1.1914,-1.1619,-1.1619,-1.1619,-1.1619,-1.1619,-1.1619,-1.1619,-1.1619,-1.2187,-1.2323,-1.2466,-1.4432,-1.5132,-1.5274,-1.7248,-1.8798,-2.0201,-2.0617,-2.0894,-2.1032,-2.2435,-2.2585,-2.216,-2.2722,-2.2859,-2.2859,-2.2859,-2.2859,-2.2859,-2.2859,-2.2859,-2.2448,-2.0617,-1.8659,-1.6685,-1.4849,-1.3024,-1.1619,-1.1619,-1.1619,-1.1619,-1.1619,-1.1619,-1.1619,-1.1619,-1.1735,-1.1843,-1.1884,-1.2115,-1.2305,-1.2345,-1.2433,-1.2501,-1.2501,-1.2501,-1.2501,-1.2501,-1.2501,-1.2501,-1.2501,-1.2501,-1.2501,-1.2501,-1.2501,-1.2501,-1.2501,-1.2501,-1.2501,-1.2501,-1.2501,-1.2501,-1.2501,-1.2501,-1.2501,-1.2501,-1.2501,-1.2501,-1.2501,-1.2501,-1.125,-0.9221,-0.7193,-0.5016,-0.2836,-0.0799,0.0,0.0,0.0,0.0,0.0,0.0,0.0,0.0,0.0,0.0,0.0,0.0,0.0,0.0,0.0,0.0,0.0,0.0,-3.0898,-2.9661,-2.6627,-2.668,-2.5571,-2.2642,-2.1009,-2.0114,-1.9989,-1.6461,-1.4314,-1.4305,-1.251,-1.1619,-1.1619,-1.1619,-1.1619,-1.1619,-1.1619,-1.1619,-1.1619,-1.3452,-1.429,-1.4432,-1.6263,-1.7107,-1.7248,-1.9217,-2.0051,-2.034,-2.216,-2.2859,-2.2859,-2.2859,-2.1734,-2.0479,-2.2297,-2.2859,-2.2859,-2.2859,-2.2859,-2.2859,-2.2859,-2.2859,-2.2448,-2.0617,-1.8659,-1.6685,-1.4849,-1.3024,-1.1619,-1.1619,-1.1619,-1.1619,-1.1619,-1.1619,-1.1619,-1.1619,-1.1735,-1.1877,-1.2033,-1.2189,-1.2338,-1.2474,-1.2501,-1.2501,-1.2501,-1.2501,-1.2501,-1.2501,-1.2501,-1.2501,-1.2501,-1.2501,-1.2501,-1.2501,-1.2501,-1.2501,-1.2501,-1.2501,-1.2501,-1.2501,-1.2501,-1.2501,-1.2501,-1.2501,-1.2501,-1.2501,-1.2501,-1.2501,-1.2501,-1.2501,-1.125,-0.9221,-0.7193,-0.5041,-0.2871,-0.0809,0.0,0.0,0.0,0.0,0.0,0.0,0.0,0.0,0.0,0.0,0.0,0.0,0.0,0.0,0.0,0.0,0.0,0.0,0.0,0.0,0.0,-2.7704,-2.6477,-2.4545,-2.2902,-2.1371,-2.0119,-1.886,-1.6977,-1.4449,-1.3714,-1.2812,-1.1619,-1.1619,-1.2173,-1.3421,-1.3421,-1.414,-1.5283,-1.599,-1.6263,-1.6404,-1.8369,-1.9077,-1.9356,-2.1183,-2.2022,-2.2022,-2.2722,-2.2859,-2.2859,0.0,-2.2448,-2.2022,-2.2722,-2.2859,-2.2859,-2.2859,-2.2859,-2.2859,-2.2859,-2.2859,-2.216,-1.9077,-1.7669,-1.6413,-1.3309,-1.2043,-1.1619,-1.1619,-1.1619,-1.1619,-1.1619,-1.1619,-1.1647,-1.1742,-1.1884,-1.2033,-1.2189,-1.2338,-1.2447,-1.2494,-1.2501,-1.2501,-1.2501,-1.2501,-1.2501,-1.2501,-1.2501,-1.2501,-1.2501,-1.2501,-1.2501,-1.2501,-1.2501,-1.2501,-1.2501,-1.2501,-1.2501,-1.2501,-1.2501,-1.2501,-1.2501,-1.2501,-1.2501,-1.2501,-1.2501,-1.2501,-1.2501,-1.2501,-1.0469,-0.7353,-0.6623,-0.4287,-0.096,-0.0327,0.0,0.0,0.0,0.0,0.0,0.0,0.0,0.0,0.0,0.0,0.0,0.0,0.0,0.0,0.0,0.0,0.0,0.0,0.0,0.0,0.0,0.0,-2.7637,-2.5621,-2.4452,-2.2969,-2.1183,-2.046,-1.8943,-1.6452,-1.5763,-1.475,-1.3563,-1.3587,-1.429,-1.5388,-1.5388,-1.6103,-1.7248,-1.7949,-1.8229,-1.8369,-2.034,-2.1032,-2.1183,-2.2435,-2.2859,-2.2859,-2.2859,-2.2859,0.0,-2.2859,-2.2859,-2.2859,-2.2859,-2.2859,-2.2859,-2.2859,-2.2859,-2.2859,-2.2859,-2.2859,-2.216,-1.9077,-1.8229,-1.7388,-1.3595,-1.2602,-1.2466,-1.1763,-1.1619,-1.1619,-1.1619,-1.166,-1.1721,-1.1816,-1.1999,-1.2176,-1.2277,-1.2413,-1.2501,-1.2501,-1.2501,-1.2501,-1.2501,-1.2501,-1.2501,-1.2501,-1.2501,-1.2501,-1.2501,-1.2501,-1.2501,-1.2501,-1.2501,-1.2501,-1.2501,-1.2501,-1.2501,-1.2501,-1.2501,-1.2501,-1.2501,-1.2501,-1.2501,-1.2501,-1.2501,-1.2501,-1.2501,-1.1721,-0.9397,-0.6298,-0.5396,-0.3045,0.0,0.0,0.0,0.0,0.0,0.0,0.0,0.0,0.0,0.0,0.0,0.0,0.0,0.0,0.0,0.0,0.0,0.0,0.0,0.0,0.0,0.0,0.0,0.0,0.0,-2.5889,-2.5517,-2.4723,-2.2996,-2.1171,-2.0251,-2.0114,-1.8218,-1.7276,-1.7137,-1.7207,-1.7258,-1.7388,-1.7388,-1.7388,-1.7529,-1.9356,-2.0201,-2.034,-2.216,-2.2859,-2.2859,-2.2859,-2.2859,-2.2859,-2.2859,-2.2859,-2.2859,-2.2859,-2.2859,-2.2859,-2.2859,-2.2859,-2.2859,-2.2859,-2.2859,-2.2859,-2.2859,-2.2859,-2.2448,-2.0617,-2.0063,-1.9217,-1.5416,-1.4432,-1.3872,-1.218,-1.1619,-1.1619,-1.1619,-1.1735,-1.183,-1.1843,-1.2088,-1.2291,-1.2298,-1.2413,-1.2501,-1.2501,-1.2501,-1.2501,-1.2501,-1.2501,-1.2501,-1.2501,-1.2501,-1.2501,-1.2501,-1.2501,-1.2501,-1.2501,-1.2501,-1.2501,-1.2501,-1.2501,-1.2501,-1.2501,-1.2501,-1.2501,-1.2501,-1.2501,-1.2501,-1.2501,-1.2501,-1.2501,-1.2192,-1.0314,-0.8181,-0.6049,-0.3986,-0.1943,0.0,0.0,0.0,0.0,0.0,0.0,0.0,0.0,0.0,0.0,0.0,0.0,0.0,0.0,0.0,0.0,0.0,0.0,0.0,0.0,0.0,0.0,0.0,0.0,0.0,-2.7635,-2.6306,-2.4723,-2.2996,-2.2395,-2.1533,-2.0142,-1.9588,-1.8615,-1.7217,-1.7238,-1.7949,-1.9356,-1.9356,-2.0051,-2.1459,-2.2009,-2.216,-2.216,-2.2722,-2.2859,-2.2859,-2.2859,-2.2859,-2.2859,-2.2859,-2.2859,-2.2859,-2.2859,-2.2859,-2.2859,-2.2859,-2.2859,-2.2859,-2.2859,-2.2859,-2.2859,-2.2859,-2.2859,-2.2448,-2.0617,-2.0063,-1.9495,-1.7107,-1.5416,-1.429,-1.3872,-1.2602,-1.1619,-1.1619,-1.1735,-1.1864,-1.1979,-1.2162,-1.2325,-1.2433,-1.2481,-1.2501,-1.2501,-1.2501,-1.2501,-1.2501,-1.2501,-1.2501,-1.2501,-1.2501,-1.2501,-1.2501,-1.2501,-1.2501,-1.2501,-1.2501,-1.2501,-1.2501,-1.2501,-1.2501,-1.2501,-1.2501,-1.2501,-1.2501,-1.2501,-1.2501,-1.2501,-1.2501,-1.1714,-1.0153,-0.9687,-0.7236,-0.3825,-0.3378,-0.1794,0.0,0.0,0.0,0.0,0.0,0.0,0.0,0.0,0.0,0.0,0.0,0.0,0.0,0.0,0.0,0.0,0.0,0.0,0.0,0.0,0.0,0.0,0.0,0.0,0.0,0.0,-2.841,-2.669,-2.4196,-2.406,-2.3243,-2.1321,-2.1321,-2.0756,-1.9634,-1.9634,-2.019,-2.1321,-2.1321,-2.1885,-2.2859,-2.2859,-2.3256,-2.406,-2.406,-2.4452,0.0,0.0,-2.406,-2.3924,-2.3133,-2.2859,-2.2859,-2.2859,-2.2859,-2.2859,-2.2859,-2.2859,-2.2859,-2.2859,-2.2859,-2.2859,-2.2859,-2.2859,-2.2722,-2.1596,-2.1321,-2.0617,-1.7949,-1.6404,-1.5141,-1.3595,-1.2323,-1.164,-1.1701,-1.183,-1.1979,-1.2135,-1.2284,-1.2406,-1.2488,-1.2501,-1.2501,-1.2501,-1.2501,-1.2501,-1.2501,-1.2501,-1.2501,-1.2501,-1.2501,-1.2501,-1.2501,-1.2501,-1.2501,-1.2501,-1.2501,-1.2501,-1.2501,-1.2501,-1.2501,-1.2501,-1.2501,-1.2501,-1.2501,-1.2501,-1.2501,-1.2501,-1.2501,-1.1436,-0.9291,-0.8503,-0.6204,-0.3077,-0.2121,-0.0989,0.0,0.0,0.0,0.0,0.0,0.0,0.0,0.0,0.0,0.0,0.0,0.0,0.0,0.0,0.0,0.0,0.0,0.0,0.0,0.0,0.0,0.0,0.0,0.0,0.0,0.0,0.0,-2.9327,-2.6039,-2.5651,-2.4858,-2.327,-2.2996,-2.2859,-2.2859,-2.2859,-2.2859,-2.2859,-2.2859,-2.2996,-2.3256,-2.3256,-2.4196,-2.592,-2.592,-2.6706,-2.8032,-2.6439,-2.592,-2.5651,0.0,-2.3665,-2.3529,-2.3393,-2.3133,-2.2859,-2.2859,-2.2859,-2.2859,-2.2859,-2.2859,-2.2859,-2.2859,-2.2859,-2.2859,-2.2859,-2.2859,-2.2022,-1.8508,-1.7388,-1.6263,-1.2745,-1.1763,-1.166,-1.1803,-1.1952,-1.2108,-1.2264,-1.2406,-1.2501,-1.2501,-1.2501,-1.2501,-1.2501,-1.2501,-1.2501,-1.2501,-1.2501,-1.2501,-1.2501,-1.2501,-1.2501,-1.2501,-1.2501,-1.2501,-1.2501,-1.2501,-1.2501,-1.2501,-1.2501,-1.2501,-1.2501,-1.2501,-1.2501,-1.2501,-1.2501,-1.2501,-1.2501,-1.2212,-1.1023,-0.8907,-0.6857,-0.4688,-0.2477,-0.0662,0.0,0.0,0.0,0.0,0.0,0.0,0.0,0.0,0.0,0.0,0.0,0.0,0.0,0.0,0.0,0.0,0.0,0.0,-3.2193,-3.1582,0.0,0.0,0.0,0.0,0.0,0.0,0.0,0.0,0.0,-2.7768,-2.6306,-2.5383,-2.5113,-2.3665,-2.2859,-2.2859,-2.2859,-2.2859,-2.2859,-2.2859,-2.3665,-2.4979,-2.4979,-2.6054,-2.7768,-2.7768,-2.79,-2.8163,-2.79,-2.7768,-2.7635,-2.737,0.0,0.0,-2.5651,-2.406,-2.2859,-2.2859,-2.2859,-2.2859,-2.2859,-2.2859,-2.2859,-2.2859,-2.2859,-2.2859,-2.2859,-2.2859,-2.2435,-2.019,-1.8369,-1.6685,-1.4432,-1.2745,-1.166,-1.1803,-1.1952,-1.2108,-1.2264,-1.2406,-1.2501,-1.2501,-1.2501,-1.2501,-1.2501,-1.2501,-1.2501,-1.2501,-1.2501,-1.2501,-1.2501,-1.2501,-1.2501,-1.2501,-1.2501,-1.2501,-1.2501,-1.2501,-1.2501,-1.2501,-1.2501,-1.2501,-1.2501,-1.2501,-1.2501,-1.2501,-1.2501,-1.2501,-1.2508,-1.0733,-0.873,-0.6691,-0.4505,-0.2446,-0.0496,-0.0166,0.0,0.0,0.0,0.0,0.0,0.0,0.0,0.0,0.0,0.0,0.0,0.0,0.0,0.0,0.0,-3.3777,-3.2484,-3.293,-3.2514,-3.2266,-3.248,-3.2676,0.0,0.0,0.0,0.0,0.0,0.0,0.0,0.0,-2.8673,-2.7883,-2.6972,-2.6054,-2.5651,-2.5651,0.0,-2.5651,-2.5651,-2.5651,-2.6054,-2.6839,-2.6839,-2.79,-2.9605,-2.9605,-3.0125,-3.0789,-2.9865,-2.9605,-2.9474,0.0,0.0,0.0,-2.7238,-2.5786,-2.4196,-2.4196,-2.3665,-2.2859,-2.2859,-2.2859,-2.2859,-2.2859,-2.2859,-2.2859,-2.2859,-2.216,-2.1032,-1.9077,-1.7107,-1.5283,-1.3309,-1.2244,-1.1769,-1.1918,-1.2074,-1.2223,-1.2372,-1.2454,-1.2501,-1.2501,-1.2501,-1.2501,-1.2501,-1.2501,-1.2501,-1.2501,-1.2501,-1.2501,-1.2501,-1.2501,-1.2501,-1.2501,-1.2501,-1.2501,-1.2501,-1.2501,-1.2501,-1.2501,-1.2501,-1.2501,-1.2501,-1.2501,-1.2501,-1.2501,-1.2583,-1.2623,-1.2467,-1.0379,-0.8375,-0.6324,-0.408,-0.198,0.0,0.0,0.0,0.0,0.0,0.0,0.0,0.0,0.0,0.0,0.0,0.0,0.0,0.0,0.0,0.0,0.0,-3.5027,-3.3617,-3.2934,-3.2824,-3.2832,-3.293,-3.293,-3.3066,0.0,0.0,0.0,0.0,0.0,0.0,0.0,0.0,-3.0125,-2.8821,0.0,0.0,-2.8163,-2.8163,0.0,0.0,0.0,0.0,0.0,-2.8821,-2.9735,-3.1304,-3.1304,-3.2091,0.0,0.0,-3.1304,-3.1176,0.0,0.0,0.0,0.0,-2.737,-2.5517,-2.5517,-2.4317,-2.2859,-2.2859,-2.2859,-2.2859,-2.2859,-2.2859,-2.2859,-2.2859,-2.1596,-1.9634,-1.7669,-1.5839,-1.3872,-1.2043,-1.1728,-1.1877,-1.2033,-1.2182,-1.2332,-1.2474,-1.2501,-1.2501,-1.2501,-1.2501,-1.2501,-1.2501,-1.2501,-1.2501,-1.2501,-1.2501,-1.2501,-1.2501,-1.2501,-1.2501,-1.2501,-1.2501,-1.2501,-1.2501,-1.2501,-1.2501,-1.2501,-1.2501,-1.2515,-1.2549,-1.2549,-1.2569,-1.2603,-1.2718,-1.2456,-1.1982,-0.9858,-0.784,-0.5602,-0.3474,-0.1501,0.0,0.0,0.0,0.0,0.0,0.0,0.0,0.0,0.0,0.0,0.0,0.0,0.0,0.0,0.0,0.0,0.0,-3.6197,-3.4547,-3.4669,-3.3596,-3.2949,-3.332,-3.3359,-3.3379,0.0,0.0,0.0,0.0,0.0,0.0,0.0,0.0,0.0,0.0,0.0,0.0,-2.8163,-2.8163,0.0,0.0,0.0,0.0,0.0,0.0,-3.1561,-3.3165,-3.3165,0.0,0.0,0.0,0.0,0.0,0.0,0.0,0.0,0.0,-2.841,-2.5517,-2.5517,-2.4317,-2.2859,-2.2859,-2.2859,-2.2859,-2.2859,-2.2859,-2.2859,-2.2859,-2.1596,-1.9634,-1.7669,-1.5839,-1.3872,-1.2043,-1.1728,-1.1877,-1.2033,-1.2182,-1.2332,-1.2474,-1.2501,-1.2501,-1.2501,-1.2501,-1.2501,-1.2501,-1.2501,-1.2501,-1.2501,-1.2501,-1.2501,-1.2501,-1.2501,-1.2501,-1.2501,-1.2501,-1.2501,-1.2501,-1.2501,-1.2501,-1.2501,-1.2501,-1.2569,-1.2705,-1.2712,-1.2779,-1.2922,-1.2935,-1.1968,-0.9864,-0.7689,-0.5596,-0.3302,-0.117,-0.0168,0.0,0.0,0.0,0.0,0.0,0.0,0.0,0.0,0.0,0.0,0.0,0.0,0.0,0.0,0.0,0.0,-3.6778,-3.5575,-3.4569,-3.4061,-3.3539,-3.3242,-3.3398,-3.3418,-3.3418,0.0,0.0,0.0,0.0,0.0,0.0,0.0,0.0,0.0,0.0,0.0,-3.1322,-3.1322,-3.1322,0.0,0.0,0.0,0.0,0.0,0.0,-3.2765,-3.3418,-3.3418,0.0,0.0,0.0,0.0,0.0,0.0,0.0,0.0,0.0,0.0,-2.7105,-2.7105,-2.5248,-2.2859,-2.2859,-2.2859,-2.2859,-2.2859,-2.2859,-2.2859,-2.2859,-2.1596,-1.9634,-1.7669,-1.5839,-1.3896,-1.2156,-1.1864,-1.2013,-1.2169,-1.2318,-1.2433,-1.2488,-1.2501,-1.2501,-1.2501,-1.2501,-1.2501,-1.2501,-1.2501,-1.2501,-1.2501,-1.2501,-1.2501,-1.2501,-1.2501,-1.2501,-1.2501,-1.2501,-1.2542,-1.263,-1.2556,-1.2542,-1.2637,-1.2637,-1.2712,-1.2868,-1.2868,-1.2901,-1.2963,-1.1739,-1.0628,-0.9652,-0.6126,-0.4165,-0.3169,-0.1007,0.0,0.0,0.0,0.0,0.0,0.0,0.0,0.0,0.0,0.0,0.0,0.0,0.0,0.0,0.0,0.0,-3.8435,-3.5643,-3.5244,-3.4759,-3.3505,-3.3418,-3.3418,-3.3418,-3.3418,-3.3418,-3.3418,0.0,0.0,0.0,0.0,0.0,0.0,0.0,0.0,0.0,0.0,-3.3418,-3.3418,-3.3418,-3.3418,0.0,0.0,-3.3418,-3.3418,0.0,0.0,0.0,0.0,0.0,0.0,0.0,0.0,0.0,0.0,0.0,0.0,0.0,0.0,0.0,0.0,0.0,-2.2859,-2.2859,-2.2859,-2.2859,-2.2859,-2.2859,-2.2859,-2.2859,-2.1596,-1.9634,-1.7669,-1.5886,-1.3985,-1.224,-1.1986,-1.2162,-1.2271,-1.2406,-1.2501,-1.2501,-1.2501,-1.2501,-1.2501,-1.2501,-1.2501,-1.2501,-1.2501,-1.2501,-1.2501,-1.2501,-1.2501,-1.2501,-1.2501,-1.2522,-1.2569,-1.2569,-1.2637,-1.2793,-1.2698,-1.2684,-1.2793,-1.28,-1.2868,-1.3024,-1.3024,-1.3044,-1.3091,-1.154,-1.0092,-0.877,-0.5677,-0.3692,-0.2352,-0.0673,0.0,0.0,0.0,0.0,0.0,0.0,0.0,0.0,0.0,0.0,0.0,0.0,0.0,0.0,0.0,0.0,0.0,0.0,-3.5785,-3.5211,-3.367,-3.3418,-3.3418,-3.3418,-3.3418,-3.3418,-3.3418,0.0,0.0,0.0,0.0,0.0,0.0,0.0,0.0,0.0,0.0,-3.3418,-3.3418,-3.3418,-3.3418,-3.3418,-3.3418,-3.3418,-3.3418,0.0,0.0,0.0,0.0,0.0,0.0,0.0,0.0,-3.3418,0.0,0.0,0.0,0.0,0.0,0.0,0.0,0.0,0.0,0.0,-2.2859,-2.2859,-2.2859,-2.2859,-2.2859,-2.2859,-2.1596,-1.9634,-1.7669,-1.5997,-1.414,-1.2262,-1.2067,-1.2291,-1.2291,-1.2406,-1.2501,-1.2501,-1.2501,-1.2501,-1.2501,-1.2501,-1.2501,-1.2501,-1.2501,-1.2501,-1.2501,-1.2501,-1.2501,-1.2501,-1.2501,-1.2562,-1.2718,-1.2725,-1.2793,-1.2949,-1.2956,-1.2956,-1.2963,-1.2963,-1.3024,-1.3166,-1.3173,-1.3247,-1.3397,-1.3397,-1.1048,-0.67,-0.67,-0.4195,0.0,0.0,0.0,0.0,0.0,0.0,0.0,0.0,0.0,0.0,0.0,0.0,0.0,0.0,0.0,0.0,0.0,0.0,0.0,0.0,-3.4133,-3.4027,-3.3418,-3.3418,-3.3418,-3.3418,-3.3418,-3.3418,-3.3418,0.0,0.0,0.0,0.0,0.0,0.0,0.0,0.0,0.0,-3.3418,-3.3418,-3.3418,-3.3418,-3.3418,-3.3418,-3.3418,-3.3418,-3.3418,-3.3418,-3.3418,0.0,0.0,0.0,0.0,0.0,-3.3418,-3.3418,0.0,0.0,0.0,0.0,0.0,0.0,0.0,0.0,0.0,0.0,0.0,0.0,-2.2859,-2.2859,-2.2859,-2.2859,-2.1596,-1.968,-1.7855,-1.6099,-1.4205,-1.2543,-1.2216,-1.2318,-1.2413,-1.2467,-1.2501,-1.2501,-1.2501,-1.2501,-1.2501,-1.2501,-1.2501,-1.2501,-1.2501,-1.2501,-1.2501,-1.2501,-1.2501,-1.2501,-1.2596,-1.2043,-1.0493,-1.202,-1.2301,-1.0964,-1.2281,-1.3105,-1.3105,-1.3105,-1.318,-1.3329,-1.3329,-1.2682,-1.1053,-0.9545,-0.7201,-0.436,-0.2855,-0.1346,0.0,0.0,0.0,0.0,0.0,0.0,0.0,0.0,0.0,0.0,0.0,0.0,0.0,0.0,0.0,0.0,0.0,0.0,0.0,0.0,-3.3418,-3.3418,-3.3418,-3.3418,-3.3418,-3.3418,-3.3418,-3.3418,-3.3418,0.0,0.0,0.0,0.0,0.0,0.0,0.0,0.0,-3.3418,-3.3418,-3.3418,-3.3418,-3.3418,-3.3418,-3.3418,-3.3418,-3.3418,-3.3418,-3.3418,-3.3418,0.0,0.0,0.0,0.0,-3.3418,-3.3418,-3.3418,0.0,0.0,0.0,0.0,0.0,0.0,0.0,0.0,0.0,0.0,0.0,0.0,0.0,-2.2859,-2.2859,-2.2859,-2.1596,-1.9692,-1.7948,-1.6202,-1.4318,-1.2684,-1.2332,-1.2393,-1.2481,-1.2501,-1.2501,-1.2501,-1.2501,-1.2501,-1.2501,-1.2501,-1.2501,-1.2501,-1.2501,-1.2192,-1.1405,-1.1405,-1.0958,-1.0219,-1.0925,-1.0855,-0.9662,-1.0873,-1.1294,-0.9932,-1.1265,-1.1593,-1.0766,-1.1593,-1.1635,-1.0882,-1.0882,-1.0211,-0.8874,-0.7372,-0.5533,-0.3189,-0.1849,-0.0842,0.0,0.0,0.0,0.0,0.0,0.0,0.0,0.0,0.0,0.0,0.0,0.0,0.0,0.0,0.0,0.0,0.0,0.0,0.0,0.0,0.0,-3.3418,-3.3418,-3.3418,-3.3418,-3.3418,-3.3418,-3.3418,-3.3418,0.0,0.0,0.0,0.0,0.0,0.0,0.0,0.0,-3.3418,-3.3418,-3.3418,-3.3418,-3.3418,-3.3418,-3.3418,-3.3418,-3.3418,-3.3418,-3.3418,-3.3418,-3.3418,-3.3418,-3.3418,-3.3418,-3.3418,-3.3418,0.0,0.0,0.0,0.0,0.0,0.0,0.0,0.0,0.0,0.0,0.0,0.0,0.0,0.0,0.0,0.0,0.0,-2.1484,-1.9575,-1.7969,-1.6168,-1.4324,-1.2719,-1.2406,0.0,-1.2501,-1.2501,-1.2501,-1.2501,-1.2501,-1.2501,-1.2501,-1.2501,-1.2501,-1.2501,-1.2347,-1.1566,-0.9698,-0.9231,-0.8489,-0.6529,-0.8128,-0.9172,-0.9366,-0.9554,-0.9598,-0.9535,-0.9711,-0.8707,-0.6533,-0.854,-0.854,-0.67,-0.67,-0.6703,-0.6533,-0.6533,-0.5198,-0.3023,-0.3023,-0.2016,0.0,0.0,0.0,0.0,0.0,0.0,0.0,0.0,0.0,0.0,0.0,0.0,0.0,0.0,0.0,0.0,0.0,0.0,0.0,0.0,0.0,0.0,0.0,-3.3418,-3.3418,-3.3418,-3.3418,-3.3418,0.0,0.0,0.0,0.0,0.0,0.0,0.0,0.0,0.0,-3.3418,-3.3418,-3.3418,-3.3418,-3.3418,-3.3418,-3.3418,-3.3418,-3.3418,-3.3418,-3.3418,-3.3418,-3.3418,-3.3418,-3.3418,-3.3418,-3.3418,-3.3418,0.0,0.0,0.0,0.0,-3.1835,-2.9995,0.0,0.0,0.0,0.0,0.0,0.0,0.0,0.0,-2.2859,-2.2913,-2.3153,0.0,-1.7979,-1.7774,-1.5214,-1.287,0.0,-1.2474,-1.2501,-1.2501,-1.2501,-1.2501,-1.2501,-1.2501,-1.2501,-1.2501,-1.2501,-1.2501,-1.2501,-1.1095,-0.9874,-0.9494,-0.7923,-0.6846,-0.6281,-0.6827,-0.655,-0.4779,-0.6311,-0.6683,-0.503,-0.6533,-0.6533,-0.4195,-0.4695,-0.5533,-0.67,-0.67,-0.5867,-0.4027,-0.4195,-0.3023,-0.0842,-0.0842,-0.0505,0.0,0.0,0.0,0.0,0.0,0.0,0.0,0.0,0.0,0.0,0.0,0.0,0.0,0.0,0.0,0.0,0.0,0.0,0.0,0.0,0.0,0.0,0.0,0.0,0.0,0.0,0.0,0.0,0.0,0.0,0.0,0.0,0.0,0.0,0.0,0.0,-3.3418,-3.3418,-3.3418,-3.3418,-3.3418,-3.3418,-3.3418,-3.3418,-3.3418,-3.3418,-3.3418,-3.3418,-3.3418,-3.3418,-3.3418,-3.3418,-3.3418,-3.3418,0.0,0.0,0.0,0.0,0.0,-3.2365,-3.0401,0.0,-2.7105,-2.4993,-2.2859,0.0,0.0,0.0,0.0,-2.2966,-2.3113,-2.3287,-2.0439,-1.7508,-1.7829,-1.5052,-1.2325,-1.2467,-1.2501,-1.2501,-1.2501,-1.2501,-1.2501,-1.2501,-1.2501,-1.2501,-1.2501,-1.2501,-1.2501,-1.2501,-0.9842,-0.7989,-0.8041,-0.6188,-0.4481,-0.3563,-0.4259,-0.4461,-0.3326,-0.4345,-0.4528,-0.3357,-0.4528,-0.4195,-0.1849,-0.1849,-0.2352,-0.3692,-0.3692,-0.3023,-0.1849,-0.1849,-0.1178,0.0,0.0,0.0,0.0,0.0,0.0,0.0,0.0,0.0,0.0,0.0,0.0,0.0,0.0,0.0,0.0,0.0,0.0,0.0,0.0,0.0,0.0,0.0,0.0,0.0,0.0,0.0,0.0,0.0,0.0,0.0,0.0,0.0,0.0,0.0,0.0,0.0,0.0,-3.3418,-3.3418,-3.3418,-3.3418,-3.3418,-3.3418,-3.3418,-3.3418,-3.3418,-3.3418,-3.3418,-3.3418,-3.3418,-3.3418,-3.3418,-3.3418,-3.3418,-3.3418,-3.3418,0.0,0.0,0.0,0.0,0.0,0.0,0.0,0.0,-2.79,-2.5651,-2.2859,-2.2859,0.0,0.0,0.0,0.0,0.0,-2.338,-2.0533,-1.7619,-1.8,-1.5144,-1.2352,-1.2474,-1.2501,-1.2501,-1.2501,-1.2501,-1.2501,-1.2501,-1.2501,-1.2501,-1.2501,-1.2501,-1.2501,-1.2501,-0.8905,-0.6264,-0.6285,-0.4128,-0.1931,-0.0163,-0.1647,-0.266,-0.2853,-0.2855,-0.2855,-0.2855,-0.2855,-0.2016,0.0,0.0,0.0,0.0,0.0,0.0,0.0,0.0,0.0,0.0,0.0,0.0,0.0,0.0,0.0,0.0,0.0,0.0,0.0,0.0,0.0,0.0,0.0,0.0,0.0,0.0,0.0,0.0,0.0,0.0,0.0,0.0,0.0,0.0,0.0,0.0,0.0,0.0,0.0,0.0,0.0,0.0,0.0,0.0,0.0,0.0,-3.3418,-3.3418,-3.3418,-3.3418,-3.3418,-3.3418,-3.3418,-3.3418,-3.3418,-3.3418,-3.3418,-3.3418,-3.3418,-3.3418,-3.3418,-3.3418,-3.3418,-3.3418,-3.3418,-3.3418,0.0,0.0,0.0,0.0,0.0,0.0,0.0,0.0,-2.6439,-2.4588,-2.2859,-2.2859,0.0,0.0,0.0,0.0,0.0,-2.3634,-2.0932,-1.8,-1.807,-1.5236,-1.2474,-1.2494,-1.2501,-1.2501,-1.2501,-1.2501,-1.2501,-1.2501,-1.2501,-1.2501,-1.2501,-1.2501,-1.2501,-1.2501,-0.8905,-0.6302,-0.6264,-0.2909,-0.0327,0.0,-0.0335,-0.0504,-0.0505,-0.0505,-0.0505,-0.0505,-0.0505,-0.0337,0.0,0.0,0.0,0.0,0.0,0.0,0.0,0.0,0.0,0.0,0.0,0.0,0.0,0.0,0.0,0.0,0.0,0.0,0.0,0.0,0.0,0.0,0.0,0.0,0.0,0.0,0.0,0.0,0.0,0.0,0.0,0.0,0.0,0.0,0.0,0.0,0.0,0.0,0.0,0.0,0.0,0.0,0.0,0.0,0.0,-3.3418,-3.3418,-3.3418,-3.3418,-3.3418,-3.3418,-3.3418,-3.3418,-3.3418,-3.3418,-3.3418,-3.3418,-3.3418,-3.3418,-3.3418,-3.3418,-3.3418,-3.3418,-3.3418,-3.3418,0.0,0.0,0.0,0.0,0.0,0.0,0.0,0.0,0.0,0.0,-2.5128,-2.2859,-2.2859,0.0,0.0,0.0,0.0,0.0,-2.3728,-2.112,-1.8421,-1.8421,-1.548,-1.2501,-1.2501,-1.2501,-1.2501,-1.2501,-1.2501,-1.2501,-1.2501,-1.2501,-1.2501,-1.2501,-1.2501,-1.2501,-1.2501,-0.9842,-0.755,-0.6404,-0.3553,-0.1309,-0.0167,0.0,0.0,0.0,0.0,0.0,0.0,0.0,0.0,0.0,0.0,0.0,0.0,0.0,0.0,0.0,0.0,0.0,0.0,0.0,0.0,0.0,0.0,0.0,0.0,0.0,0.0,0.0,0.0,0.0,0.0,0.0,0.0,0.0,0.0,0.0,0.0,0.0,0.0,0.0,0.0,0.0,0.0,0.0,0.0,0.0,0.0,0.0,0.0,0.0,0.0,0.0,0.0,-3.3418,-3.3418,-3.3418,-3.3418,-3.3418,-3.3418,-3.3418,-3.3418,-3.3418,-3.3418,-3.3418,-3.3418,-3.3418,-3.3418,-3.3418,-3.3418,-3.3418,-3.3418,-3.3418,-3.3418,-3.3418,0.0,0.0,0.0,0.0,0.0,0.0,0.0,0.0,0.0,0.0,0.0,0.0,0.0,0.0,0.0,-2.2859,-2.33,-2.3768,-2.3768,-2.1214,-1.8572,-1.8572,-1.554,-1.2501,-1.2501,-1.2501,-1.2501,-1.2501,-1.2501,-1.2501,-1.2501,-1.2501,-1.2501,-1.2501,-1.2501,-1.2501,-1.2501,-1.0779,-0.8641,-0.6543,-0.4353,-0.2286,-0.0166,0.0,0.0,0.0,0.0,0.0,0.0,0.0,0.0,0.0,0.0,0.0,0.0,0.0,0.0,0.0,0.0,0.0,0.0,0.0,0.0,0.0,0.0,0.0,0.0,0.0,0.0,0.0,0.0,0.0,0.0,0.0,0.0,0.0,0.0,0.0,0.0,0.0,0.0,0.0,0.0,0.0,0.0,0.0,0.0,0.0,0.0,0.0,0.0,0.0,0.0,0.0,0.0,-3.3418,-3.3418,-3.3418,-3.3418,-3.3418,-3.3418,-3.3418,-3.3418,-3.3418,-3.3418,-3.3418,-3.3418,-3.3418,-3.3418,-3.3418,-3.3418,-3.3418,-3.3418,-3.3418,-3.3418,-3.3418,-3.3418,0.0,0.0,0.0,0.0,0.0,0.0,0.0,0.0,0.0,0.0,0.0,0.0,0.0,-2.2859,-2.2859,-2.33,-2.3768,-2.3768,-2.1214,-1.8572,-1.8572,-1.554,-1.2501,-1.2501,-1.2501,-1.2501,-1.2501,-1.2501,-1.2501,-1.2501,-1.2501,-1.2501,-1.2501,-1.2501,-1.2501,-1.2501,-1.0779,-0.8664,-0.6609,-0.4372,-0.2293,-0.0168,0.0,0.0,0.0,0.0,0.0,0.0,0.0,0.0,0.0,0.0,0.0,0.0,0.0,0.0,0.0,0.0,0.0,0.0,0.0,0.0,0.0,0.0,0.0,0.0,0.0,0.0,0.0,0.0,0.0,0.0,0.0,0.0,0.0,0.0,0.0,0.0,0.0,0.0,0.0,0.0,0.0,0.0,0.0,0.0,0.0,0.0,0.0,0.0,0.0,0.0,0.0,0.0,-3.3418,-3.3418,-3.3418,-3.3418,-3.3418,-3.3418,-3.3418,-3.3418,-3.3418,-3.3418,-3.3418,-3.3418,-3.3418,-3.3418,-3.3418,-3.3418,-3.3418,-3.3418,-3.3418,-3.3418,-3.3418,-3.3418,-3.3418,0.0,0.0,0.0,0.0,0.0,0.0,0.0,0.0,-2.6972,-2.5248,-2.3393,-2.2859,-2.2859,-2.2859,-2.33,-2.3768,-2.3768,-2.1214,-1.8572,-1.8572,-1.554,-1.2501,-1.2501,-1.2501,-1.2501,-1.2501,-1.2501,-1.2501,-1.2501,-1.2501,-1.2501,-1.2501,-1.2501,-1.2501,-1.2501,-1.1876,-1.0085,-0.6777,-0.5506,-0.3764,-0.0336,0.0,0.0,0.0,0.0,0.0,0.0,0.0,0.0,0.0,0.0,0.0,0.0,0.0,0.0,0.0,0.0,0.0,0.0,0.0,0.0,0.0,0.0,0.0,0.0,0.0,0.0,0.0,0.0,0.0,0.0,0.0,0.0,0.0,0.0,0.0,0.0,0.0,0.0,0.0,0.0,0.0,0.0,0.0,0.0,0.0,0.0,0.0,0.0,0.0,0.0,0.0,-3.3418,-3.3418,-3.3418,-3.3418,-3.3418,-3.3418,-3.3418,-3.3418,-3.3418,-3.3418,-3.3418,-3.367,-3.4133,-3.365,-3.365,-3.4133,-3.367,-3.3418,-3.3418,-3.3418,-3.3418,-3.3418,-3.3418,-3.3418,0.0,0.0,0.0,0.0,0.0,0.0,0.0,0.0,-2.6573,-2.5248,-2.3393,-2.2859,-2.2859,-2.2859,-2.33,-2.3625,-2.3028,-2.0761,-1.8421,-1.7815,-1.5089,-1.2501,-1.2501,-1.2501,-1.2501,-1.2501,-1.2501,-1.2501,-1.2501,-1.2501,-1.2501,-1.2501,-1.2501,-1.2501,-1.2501,-1.2501,-1.1029,-0.6777,-0.6311,-0.4579,-0.0336,0.0,0.0,0.0,0.0,0.0,0.0,0.0,0.0,0.0,0.0,0.0,0.0,0.0,0.0,0.0,0.0,0.0,0.0,0.0,0.0,0.0,0.0,0.0,0.0,0.0,0.0,0.0,0.0,0.0,0.0,0.0,0.0,0.0,0.0,0.0,0.0,0.0,0.0,0.0,0.0,0.0,0.0,0.0,0.0,0.0,0.0,0.0,0.0,0.0,0.0,0.0,-3.3418,-3.3418,-3.3418,-3.3418,-3.3418,-3.3418,-3.3418,-3.3418,-3.3418,-3.3418,-3.3418,-3.4258,-3.5806,-3.4133,-3.4258,-3.5683,-3.4133,-3.3418,-3.3418,-3.3418,-3.3418,-3.3418,-3.3418,-3.3418,-3.3418,0.0,0.0,0.0,0.0,0.0,0.0,0.0,-2.5517,-2.5248,-2.3393,-2.2859,-2.2859,-2.2859,-2.33,-2.3327,-2.127,-1.9719,-1.8118,-1.5998,-1.4022,-1.2501,-1.2501,-1.2501,-1.2501,-1.2501,-1.2501,-1.2501,-1.2501,-1.2501,-1.2501,-1.2501,-1.2501,-1.2501,-1.2501,-1.2501,-1.1029,-0.6777,-0.6311,-0.4579,-0.0336,0.0,0.0,0.0,0.0,0.0,0.0,0.0,0.0,0.0,0.0,0.0,0.0,0.0,0.0,0.0,0.0,0.0,0.0,0.0,0.0,0.0,0.0,0.0,0.0,0.0,0.0,0.0,0.0,0.0,0.0,0.0,0.0,0.0,0.0,0.0,0.0,0.0,0.0,0.0,0.0,0.0,0.0,0.0,0.0,0.0,0.0,0.0,0.0,0.0,0.0,0.0,-3.3418,-3.3418,-3.3418,-3.3418,-3.3418,-3.3418,-3.3418,-3.3418,-3.3902,-3.5088,-3.3902,-3.4258,-3.5806,-3.4133,-3.365,-3.4133,-3.367,-3.3418,-3.3418,-3.3418,-3.3418,-3.3418,-3.3418,-3.3418,-3.3418,0.0,0.0,0.0,0.0,0.0,0.0,0.0,0.0,0.0,-2.3393,-2.2859,-2.2859,-2.2859,-2.33,-2.3327,-2.127,-1.9719,-1.8118,-1.5998,-1.4022,-1.2501,-1.2501,-1.2501,-1.2501,-1.2501,-1.2501,-1.2501,-1.2501,-1.2501,-1.2501,-1.2501,-1.2501,-1.2501,-1.2501,-1.2501,-1.1029,-0.6777,-0.6311,-0.4579,-0.0336,0.0,0.0,0.0,0.0,0.0,0.0,0.0,0.0,0.0,0.0,0.0,0.0,0.0,0.0,0.0,0.0,0.0,0.0,0.0,0.0,0.0,0.0,0.0,0.0,0.0,0.0,0.0,0.0,0.0,0.0,0.0,0.0,0.0,0.0,0.0,0.0,0.0,0.0,0.0,0.0,0.0,0.0,0.0,-3.3418,-3.3418,0.0,0.0,0.0,0.0,0.0,0.0,0.0,-3.3418,-3.3418,-3.3418,-3.3418,-3.3418,-3.3418,-3.3418,-3.4133,-3.5806,-3.4133,-3.4258,-3.5806,-3.4133,-3.3776,-3.4383,-3.365,-3.3418,-3.3418,-3.3418,-3.3418,-3.3418,-3.3418,-3.3418,-3.3418,0.0,0.0,0.0,0.0,0.0,0.0,0.0,0.0,0.0,-2.327,-2.2859,-2.2886,-2.3006,-2.3394,-2.321,-2.0363,-1.9192,-1.7967,-1.5089,-1.3414,-1.2501,-1.2501,-1.2501,-1.2501,-1.2501,-1.2501,-1.2501,-1.2501,-1.2501,-1.2501,-1.2501,-1.2501,-1.2501,-1.2501,-1.2501,-1.1029,-0.6777,-0.6311,-0.4579,-0.0336,0.0,0.0,0.0,0.0,0.0,0.0,0.0,0.0,0.0,0.0,0.0,0.0,0.0,0.0,0.0,0.0,0.0,0.0,0.0,0.0,0.0,0.0,0.0,0.0,0.0,0.0,0.0,0.0,0.0,0.0,0.0,0.0,0.0,0.0,0.0,0.0,0.0,0.0,0.0,0.0,0.0,0.0,0.0,-3.3418,-3.3418,0.0,0.0,0.0,0.0,0.0,0.0,0.0,0.0,-3.3418,-3.3418,-3.3418,-3.3418,-3.367,-3.3418,-3.4133,-3.5806,-3.4133,-3.4258,-3.5928,-3.4383,-3.4383,-3.5683,-3.4258,-3.3544,-3.3418,-3.3418,-3.3418,-3.3418,-3.3418,-3.3418,-3.3418,-3.3418,0.0,0.0,0.0,0.0,0.0,0.0,0.0,0.0,-2.2859,-2.2859,-2.2926,-2.3207,-2.3514,-2.295,-1.9338,-1.853,-1.7663,-1.3722,-1.2656,-1.2501,-1.2501,-1.2501,-1.2501,-1.2501,-1.2501,-1.2501,-1.2501,-1.2501,-1.2501,-1.2501,-1.2501,-1.2501,-1.2501,-1.2501,-1.1029,-0.6777,-0.6311,-0.4579,-0.0336,0.0,0.0,0.0,0.0,0.0,0.0,0.0,0.0,0.0,0.0,0.0,0.0,0.0,0.0,0.0,0.0,0.0,0.0,0.0,0.0,0.0,0.0,0.0,0.0,0.0,0.0,0.0,0.0,0.0,0.0,0.0,0.0,0.0,0.0,0.0,0.0,0.0,0.0,0.0,0.0,0.0,0.0,0.0,0.0,0.0,0.0,0.0,0.0,0.0,0.0,0.0,0.0,0.0,-3.3418,-3.3418,-3.3418,-3.4027,-3.5211,-3.4007,-3.4133,-3.5806,-3.4133,-3.486,-3.7626,-3.6051,-3.5437,-3.5806,-3.5458,-3.4612,-3.3418,-3.3418,-3.3418,-3.3418,-3.3418,-3.3418,-3.3418,-3.3418,-3.3418,0.0,0.0,0.0,0.0,0.0,0.0,0.0,-2.2859,-2.2859,-2.2873,-2.2939,-2.334,-2.3197,-2.0752,-1.9456,-1.7967,-1.554,-1.3722,-1.2501,-1.2501,-1.2501,-1.2501,-1.2501,-1.2501,-1.2501,-1.2501,-1.2501,-1.2501,-1.2501,-1.2501,-1.2501,-1.2501,-1.2501,-1.1029,-0.6777,-0.6311,-0.4579,-0.0336,0.0,0.0,0.0,0.0,0.0,0.0,0.0,0.0,0.0,0.0,0.0,0.0,0.0,0.0,0.0,0.0,0.0,0.0,0.0,0.0,0.0,0.0,0.0,0.0,0.0,0.0,0.0,0.0,0.0,0.0,0.0,0.0,0.0,0.0,0.0,0.0,0.0,0.0,0.0,0.0,0.0,0.0,0.0,0.0,0.0,0.0,0.0,0.0,0.0,0.0,0.0,0.0,0.0,-3.3418,-3.3418,-3.4133,-3.4964,-3.5806,-3.4964,-3.5335,-3.7002,-3.5335,-3.5458,-3.7002,-3.6173,-3.5806,-3.5806,-3.4964,-3.4133,-3.3418,-3.3418,-3.3418,-3.3418,-3.3418,-3.3418,-3.3418,-3.3418,-3.2892,-3.1835,-2.9083,0.0,0.0,0.0,0.0,0.0,0.0,0.0,-2.2926,-2.3207,-2.3527,-2.3392,-2.1582,-1.9894,-1.7815,-1.4782,-1.3259,-1.2501,-1.2501,-1.2501,-1.2501,-1.2501,-1.2501,-1.2501,-1.2501,-1.2501,-1.2501,-1.2501,-1.2501,-1.2501,-1.2501,-1.2501,-1.1029,-0.6777,-0.6311,-0.4579,-0.0336,0.0,0.0,0.0,0.0,0.0,0.0,0.0,0.0,0.0,0.0,0.0,0.0,0.0,0.0,0.0,0.0,0.0,0.0,0.0,0.0,0.0,0.0,0.0,0.0,0.0,0.0,0.0,0.0,0.0,0.0,0.0,0.0,0.0,0.0,0.0,0.0,0.0,0.0,0.0,0.0,0.0,0.0,0.0,0.0,0.0,0.0,0.0,0.0,0.0,0.0,0.0,0.0,0.0,0.0,-3.3418,-3.4964,-3.5806,-3.5806,-3.6051,-3.6902,-3.8223,-3.7122,-3.6639,-3.6639,-3.6639,-3.6517,-3.6173,-3.486,-3.3902,-3.3418,-3.3418,-3.3418,-3.3418,-3.3418,-3.3418,-3.3418,-3.3019,-3.2091,-3.0513,-2.8427,-2.6706,-2.5248,-2.3529,0.0,0.0,0.0,0.0,-2.3046,-2.3554,-2.3768,-2.3654,-2.2325,-2.0358,-1.7663,-1.3568,-1.2501,-1.2501,-1.2501,-1.2501,-1.2501,-1.2501,-1.2501,-1.2501,-1.2501,-1.2501,-1.2501,-1.2501,-1.2501,-1.2501,-1.2501,-1.2501,-1.1029,-0.7263,-0.6475,-0.4742,-0.1007,-0.0168,0.0,0.0,0.0,0.0,0.0,0.0,0.0,0.0,0.0,0.0,0.0,0.0,0.0,0.0,0.0,0.0,0.0,0.0,0.0,0.0,0.0,0.0,0.0,0.0,0.0,0.0,0.0,0.0,0.0,0.0,0.0,0.0,0.0,0.0,0.0,0.0,0.0,0.0,0.0,0.0,0.0,0.0,-3.3418,-3.3418,0.0,0.0,0.0,0.0,0.0,0.0,0.0,0.0,0.0,-3.3418,-3.4964,-3.5806,-3.5806,-3.7144,-3.7985,-3.8223,-3.9405,-3.9989,-3.9989,-3.9989,-3.917,-3.7865,-3.7626,-3.6072,-3.3418,-3.3418,-3.3418,-3.3418,-3.3418,-3.3418,-3.3292,-3.1689,-3.1029,-3.0384,-2.7089,-2.5651,-2.5248,-2.3529,-2.2859,0.0,0.0,0.0,-2.3287,-2.3367,-2.3754,-2.4155,-2.3945,-2.1277,-1.7663,-1.3568,-1.2501,-1.2501,-1.2501,-1.2501,-1.2501,-1.2501,-1.2501,-1.2501,-1.2501,-1.2501,-1.2501,-1.2501,-1.2501,-1.2501,-1.2501,-1.2501,-1.1666,-0.9361,-0.7444,-0.5392,-0.3015,-0.1178,0.0,0.0,0.0,0.0,0.0,0.0,0.0,0.0,0.0,0.0,0.0,0.0,0.0,0.0,0.0,0.0,0.0,0.0,0.0,0.0,0.0,0.0,0.0,0.0,0.0,0.0,0.0,0.0,0.0,0.0,0.0,0.0,0.0,0.0,0.0,0.0,0.0,0.0,0.0,0.0,0.0,0.0,0.0,-3.3418,0.0,0.0,0.0,0.0,0.0,0.0,0.0,0.0,0.0,-3.4736,-3.6295,-3.7604,-3.8439,-3.917,-3.9989,-4.0937,-4.0707,-4.1076,-4.1899,-4.1076,-3.9756,-3.8104,-3.7265,-3.5581,-3.3418,-3.3418,-3.3418,-3.3418,-3.3418,-3.2765,-3.1835,-3.1047,-2.9587,-2.7619,-2.6039,-2.4858,-2.3924,-2.3133,-2.2859,-2.2899,-2.3073,0.0,0.0,0.0,-2.4008,-2.3786,-2.1686,-1.8943,-1.6142,-1.3267,-1.2501,-1.2501,-1.2501,-1.2501,-1.2501,-1.2501,-1.2501,-1.2501,-1.2501,-1.2501,-1.2501,-1.2501,-1.2501,-1.2501,-1.2501,-1.2501,-1.1823,-0.9848,-0.7605,-0.5555,-0.3517,-0.1346,0.0,0.0,0.0,0.0,0.0,0.0,0.0,0.0,0.0,0.0,0.0,0.0,0.0,0.0,0.0,0.0,0.0,0.0,0.0,0.0,0.0,0.0,0.0,0.0,0.0,0.0,0.0,0.0,0.0,0.0,0.0,0.0,0.0,0.0,0.0,0.0,0.0,0.0,0.0,0.0,0.0,0.0,0.0,0.0,0.0,0.0,0.0,0.0,0.0,0.0,0.0,0.0,0.0,-3.5806,-3.7723,-3.917,-3.9989,-4.0822,-4.1558,-4.2375,-4.1558,-4.1785,-4.2961,-4.1305,-3.9756,-3.8104,-3.6539,-3.484,-3.3418,-3.3418,-3.3418,-3.3418,-3.2892,-3.1963,-3.0642,-2.9847,-2.7751,-2.5383,-2.4979,-2.406,-2.2859,-2.2859,-2.2913,-2.302,-2.326,-2.3434,0.0,0.0,0.0,-2.3611,-2.0186,-1.7815,-1.5845,-1.3714,-1.2804,-1.2501,-1.2501,-1.2501,-1.2501,-1.2501,-1.2501,-1.2501,-1.2501,-1.2501,-1.2501,-1.2501,-1.2501,-1.2501,-1.2501,-1.2535,-1.2024,-1.0661,-0.7952,-0.5736,-0.4354,-0.1681,0.0,0.0,0.0,0.0,0.0,0.0,0.0,0.0,0.0,0.0,0.0,0.0,0.0,0.0,0.0,0.0,0.0,0.0,0.0,0.0,0.0,0.0,0.0,0.0,0.0,0.0,0.0,0.0,0.0,0.0,0.0,0.0,0.0,0.0,0.0,0.0,0.0,0.0,0.0,0.0,0.0,0.0,0.0,0.0,-3.3418,-3.3418,-3.3418,-3.3418,-3.3418,0.0,0.0,0.0,0.0,-3.5806,-3.8794,0.0,-3.8342,-4.1305,-4.215,-4.0707,-4.215,-4.2986,-4.2961,-4.1305,-3.9756,-3.8104,-3.6539,-3.484,-3.3418,-3.3418,-3.3418,-3.3292,-3.1561,-3.09,-3.0384,-2.7089,-2.5636,-2.5248,-2.3665,-2.2996,-2.2859,-2.2859,-2.306,-2.33,-2.3327,-2.3714,-2.4168,0.0,0.0,0.0,-2.2049,-1.993,-1.7967,-1.5845,-1.3868,-1.2501,-1.2501,-1.2501,-1.2501,-1.2501,-1.2501,-1.2501,-1.2501,-1.2501,-1.2501,-1.2501,-1.2501,-1.2501,-1.2501,-1.2623,-1.2779,-1.2782,-0.915,-0.645,-0.6526,-0.252,0.0,0.0,0.0,0.0,0.0,0.0,0.0,0.0,0.0,0.0,0.0,0.0,0.0,0.0,0.0,0.0,0.0,0.0,0.0,0.0,0.0,0.0,0.0,0.0,0.0,0.0,0.0,0.0,0.0,0.0,0.0,0.0,0.0,0.0,0.0,0.0,0.0,0.0,0.0,0.0,0.0,0.0,0.0,0.0,0.0,-3.4383,-3.4487,-3.3544,-3.4383,0.0,0.0,0.0,0.0,-3.8794,-3.9989,-4.0822,-4.1305,-4.2375,-4.2737,-4.215,-4.2737,-4.2986,-4.2961,-4.0245,-3.8698,-3.8104,-3.6539,-3.484,-3.3418,-3.3418,-3.3418,-3.3292,-3.2746,-3.1176,-2.8952,-2.7768,-2.5786,-2.3788,-2.3133,-2.2859,-2.2899,-2.31,-2.3233,-2.3394,-2.3768,-2.4035,-2.4235,-2.4422,-2.3645,-2.2211,-2.023,-1.8118,-1.6142,-1.4022,-1.2958,-1.2501,-1.2501,-1.2501,-1.2501,-1.2501,-1.2501,-1.2501,-1.2501,-1.2501,-1.2501,-1.2501,-1.2501,-1.2501,-1.2501,-1.263,-1.2786,-1.2942,-0.9154,-0.6618,-0.6693,-0.2687,0.0,0.0,0.0,0.0,0.0,0.0,0.0,0.0,0.0,0.0,0.0,0.0,0.0,0.0,0.0,0.0,0.0,0.0,0.0,0.0,0.0,0.0,0.0,0.0,0.0,0.0,0.0,0.0,0.0,0.0,0.0,0.0,0.0,0.0,0.0,0.0,0.0,0.0,0.0,0.0,-3.556,-3.5108,0.0,0.0,0.0,0.0,-3.5314,-3.4258,-3.5211,-3.6051,-3.6539,-3.7626,-3.8935,-4.0476,-4.1076,-4.1899,-4.2986,-4.2986,-4.2986,-4.2986,-4.2986,-4.2986,-4.2961,-3.9756,-3.8223,-3.8104,-3.5928,-3.4383,-3.3418,-3.3418,-3.3418,-3.3292,-3.211,-3.0272,-2.8032,-2.6839,-2.4993,-2.2859,-2.2859,-2.2926,-2.3046,-2.326,-2.346,-2.3688,-2.4075,-2.4275,-2.4382,-2.4583,-2.3116,-2.1291,-1.993,-1.7663,-1.5234,-1.3868,-1.2958,-1.2501,-1.2501,-1.2501,-1.2501,-1.2501,-1.2501,-1.2501,-1.2501,-1.2501,-1.2501,-1.2501,-1.2501,-1.2501,-1.2501,-1.2678,-1.2847,-1.2949,-0.9188,-0.6646,-0.6697,-0.2687,0.0,0.0,0.0,0.0,0.0,0.0,0.0,0.0,0.0,0.0,0.0,0.0,0.0,0.0,0.0,0.0,0.0,0.0,0.0,0.0,0.0,0.0,0.0,0.0,0.0,0.0,0.0,0.0,0.0,0.0,0.0,0.0,0.0,0.0,0.0,0.0,0.0,0.0,0.0,0.0,-3.6396,-3.7985,0.0,0.0,0.0,0.0,0.0,-3.5928,-3.5928,-3.6639,-3.8223,-3.8342,-3.9053,-4.0592,0.0,0.0,-4.2986,-4.2986,-4.2986,-4.2986,-4.2986,-4.2986,-4.2849,-3.9639,-3.8223,-3.7985,-3.486,-3.3418,-3.3418,-3.3418,-3.3418,-3.3146,-2.9622,-2.8312,-2.7768,-2.4331,-2.2996,-2.2859,-2.2859,-2.306,-2.3327,-2.334,-2.3728,-2.4209,-2.4209,-2.4409,-2.4636,-2.4636,-2.3116,-2.1601,0.0,0.0,0.0,-1.5387,-1.4022,-1.2501,-1.2501,-1.2501,-1.2501,-1.2501,-1.2501,-1.2501,-1.2501,-1.2501,-1.2501,-1.2501,-1.2501,-1.2501,-1.2508,-1.2773,-1.2963,-1.2963,-0.925,-0.67,-0.6536,-0.252,0.0,0.0,0.0,0.0,0.0,0.0,0.0,0.0,0.0,0.0,0.0,0.0,0.0,0.0,0.0,0.0,0.0,0.0,0.0,0.0,0.0,0.0,0.0,0.0,0.0,0.0,0.0,0.0,0.0,0.0,0.0,0.0,0.0,0.0,0.0,0.0,0.0,-4.1672,-3.9779,-3.8342,-3.7243,0.0,0.0,0.0,-3.7265,-3.7506,-3.7963,-3.9147,-3.9265,-3.9522,-3.9873,-4.1076,-4.1899,-4.2375,-4.2737,-4.2986,-4.2986,-4.2986,-4.2986,-4.2986,-4.2986,-4.2375,-4.1191,-3.917,-3.7604,-3.6417,-3.4258,-3.3418,-3.3418,-3.3418,-3.3418,-3.3165,-3.0918,-2.9344,-2.79,-2.5651,-2.406,-2.2859,-2.2859,-2.306,-2.3367,-2.3581,-2.3901,-2.4235,-2.4449,-2.4569,-2.4636,-2.4636,-2.3116,-2.1291,-1.9779,0.0,0.0,0.0,0.0,0.0,-1.2804,-1.2501,-1.2501,-1.2501,-1.2501,-1.2501,-1.2501,-1.2501,-1.2501,-1.2501,-1.2501,-1.2542,-1.2651,-1.2834,-1.2346,-1.0801,-0.8301,-0.6035,-0.4528,-0.1681,0.0,0.0,0.0,0.0,0.0,0.0,0.0,0.0,0.0,0.0,0.0,0.0,0.0,0.0,0.0,0.0,0.0,0.0,0.0,0.0,0.0,0.0,0.0,0.0,0.0,0.0,0.0,0.0,0.0,0.0,0.0,0.0,0.0,0.0,0.0,0.0,0.0,-4.1558,-4.0361,-3.9053,-3.8082,0.0,0.0,0.0,-3.9053,-3.9756,-4.0361,-4.0592,-4.0592,-4.0822,-4.1558,-4.1899,-4.2263,-4.2986,-4.2986,-4.2986,-4.2986,-4.2986,-4.2986,-4.2986,-4.2986,-4.2488,-4.1558,-3.9288,-3.7746,-3.6639,-3.4383,-3.3418,-3.3418,-3.3418,-3.3418,-3.3165,-3.066,-2.9083,-2.79,-2.5383,-2.3788,-2.2886,-2.3006,-2.3247,-2.3554,-2.3848,-2.4142,-2.4409,-2.4583,-2.4636,-2.4636,-2.4636,-2.3116,-2.1291,-2.023,-1.9176,-1.7815,-1.4629,0.0,0.0,-1.2958,-1.2501,-1.2501,-1.2501,-1.2501,-1.2522,-1.2583,-1.2596,-1.2617,-1.2684,-1.2691,-1.2705,-1.2725,-1.2915,-1.2586,-1.1347,-0.8479,-0.6202,-0.4863,-0.1849,0.0,0.0,0.0,0.0,0.0,0.0,0.0,0.0,0.0,0.0,0.0,0.0,0.0,0.0,0.0,0.0,0.0,0.0,0.0,0.0,0.0,0.0,0.0,0.0,0.0,0.0,0.0,0.0,0.0,0.0,0.0,0.0,0.0,0.0,-4.2986,-4.2986,-4.1785,-4.1305,-4.2488,-4.0361,-3.8935,0.0,-4.0707,-4.0822,-4.0592,-4.2012,-4.2375,-4.0961,-4.0822,-4.1419,-4.2874,-4.1672,-4.1533,-4.2961,-4.2986,-4.2986,-4.2986,-4.2986,-4.2986,-4.2986,-4.2849,-4.2625,-4.2375,-3.9405,-3.7865,-3.7506,-3.4612,-3.3418,-3.3418,-3.3418,-3.3292,-3.2765,-2.9474,-2.8032,-2.7503,-2.4196,-2.2886,-2.2953,-2.322,-2.3541,-2.3861,-2.4155,-2.4422,-2.4636,-2.4636,-2.4636,-2.4636,-2.4636,-2.3116,-2.1601,-2.1601,-2.0102,-1.8148,-1.6024,-1.5582,0.0,-1.3007,-1.2556,-1.2556,-1.2556,-1.2556,-1.2596,-1.2732,-1.2752,-1.28,-1.2935,-1.2976,-1.2935,-1.28,-1.3003,-1.318,-1.2867,-0.9151,-0.6533,-0.6366,-0.252,0.0,0.0,0.0,0.0,0.0,0.0,0.0,0.0,0.0,0.0,0.0,0.0,0.0,0.0,0.0,0.0,0.0,0.0,0.0,0.0,0.0,0.0,0.0,0.0,0.0,0.0,0.0,0.0,0.0,0.0,0.0,0.0,0.0,-4.2986,-4.2986,-4.2986,-4.2737,-4.215,-4.1191,-4.0592,-4.0245,-4.0592,-4.1785,-4.2012,-4.0707,-4.2012,-4.2849,-4.2625,-4.2488,-4.2625,-4.2986,-4.2737,-4.2625,-4.2986,-4.2986,-4.2986,-4.2986,-4.2986,-4.2986,-4.2986,-4.1672,-4.0361,-3.9053,-3.7122,-3.5581,-3.4258,-3.367,-3.3418,-3.3418,-3.3418,-3.2619,-3.1176,-2.9083,-2.737,-2.5786,-2.3652,-2.302,-2.3247,-2.33,-2.3661,-2.4168,-2.4449,-2.4596,-2.4636,-2.4636,-2.4636,-2.4636,-2.4636,-2.3116,-2.1601,-2.1601,-2.0222,-1.8231,-1.6233,-1.5878,0.0,-1.3338,-1.2874,-1.2874,-1.2874,-1.2874,-1.2881,-1.2908,-1.2915,-1.2929,-1.2956,-1.3057,-1.3119,-1.3091,-1.3132,-1.2553,-1.0837,-0.8361,-0.6032,-0.4195,-0.1513,0.0,0.0,0.0,0.0,0.0,0.0,0.0,0.0,0.0,0.0,0.0,0.0,0.0,0.0,0.0,0.0,0.0,0.0,0.0,0.0,0.0,0.0,0.0,0.0,0.0,0.0,0.0,0.0,0.0,0.0,0.0,0.0,-4.2986,-4.2986,-4.2986,-4.2986,-4.2375,-4.1785,-4.1785,-4.1076,-4.0846,-4.1672,-4.2488,-4.2737,-4.1899,-4.2488,-4.2986,-4.2986,-4.2986,-4.2986,-4.2986,-4.2986,-4.2986,-4.2986,-4.2986,-4.2986,-4.2986,-4.2986,-4.2986,-4.2986,-4.1419,-4.0245,-3.9288,-3.6881,-3.5314,-3.4612,-3.3776,-3.3418,-3.3418,-3.3418,-3.1835,-2.9474,-2.8558,-2.7105,-2.5263,-2.3708,-2.3193,-2.3367,-2.3661,-2.4048,-2.4436,-2.4583,-2.4636,-2.4636,-2.4636,-2.4636,-2.4636,-2.4636,-2.3974,-2.3329,-2.3329,-2.2748,-2.1397,-1.829,-1.7594,0.0,0.0,-1.2963,-1.2963,-1.2963,-1.2963,-1.2983,-1.3051,-1.3064,-1.3091,-1.3166,-1.3241,-1.3288,-1.3288,-1.3288,-1.2979,-1.1878,-0.8707,-0.6202,-0.5198,-0.2016,0.0,0.0,0.0,0.0,0.0,0.0,0.0,0.0,0.0,0.0,0.0,0.0,0.0,0.0,0.0,0.0,0.0,0.0,0.0,0.0,0.0,0.0,0.0,0.0,0.0,0.0,0.0,0.0,0.0,0.0,0.0,0.0,-4.2986,-4.2986,-4.2986,-4.2986,-4.1899,-4.1533,-4.2849,-4.1899,-4.1533,-4.2849,-4.2986,-4.2849,-4.2625,-4.2849,-4.2849,-4.2625,-4.2849,-4.2986,-4.2986,-4.2986,-4.2986,-4.2986,-4.2986,-4.2986,-4.2986,-4.2986,-4.2986,-4.2986,-4.1419,-4.0476,-4.0105,-3.7122,-3.5683,-3.5335,-3.4027,-3.3418,-3.3418,-3.3418,-3.1451,-2.818,-2.8246,-2.6949,-2.4975,-2.3762,-2.3394,-2.3567,-2.4102,-2.4436,-2.4636,-2.4636,-2.4636,-2.4636,-2.4636,-2.4636,-2.4649,-2.4703,-2.489,-2.509,-2.5144,-2.5066,-2.402,-2.0241,-1.9016,-1.7789,0.0,0.0,0.0,-1.3044,-1.3044,-1.3078,-1.3193,-1.3214,-1.3247,-1.3342,-1.3383,-1.339,-1.3363,-1.3383,-1.3403,-1.3403,-0.9878,-0.7205,-0.6703,-0.3023,-0.0505,0.0,-0.0337,-0.0505,0.0,0.0,0.0,0.0,0.0,0.0,0.0,0.0,0.0,0.0,0.0,0.0,0.0,0.0,0.0,0.0,0.0,0.0,0.0,0.0,0.0,0.0,0.0,0.0,0.0,0.0,0.0,0.0,-4.2986,-4.2986,-4.2986,-4.2986,0.0,-4.2737,-4.2986,-4.2849,-4.2737,-4.2986,-4.2986,-4.2488,-4.1076,-4.215,-4.2375,-4.0961,-4.215,-4.2986,-4.2986,-4.2986,-4.2986,-4.2986,-4.2986,-4.2986,-4.2986,-4.2986,-4.2986,-4.2986,-4.1419,-3.9873,-3.8461,-3.6639,-3.5088,-3.365,-3.3544,-3.3418,-3.3418,-3.3418,-3.1451,-2.8196,-2.851,-2.6496,-2.3552,-2.3313,-2.3647,-2.4142,-2.4476,-2.4609,-2.4636,-2.4636,-2.4636,-2.4636,-2.4636,-2.4636,-2.469,-2.4957,-2.505,-2.5144,-2.5398,-2.425,-2.2391,-1.9999,-1.8229,-1.6261,-1.3837,0.0,-1.3349,-1.3349,0.0,-1.3356,-1.337,0.0,0.0,-1.322,-1.3315,-1.3356,-1.322,-1.3315,-1.3403,-1.3403,-1.122,-0.8874,-0.6867,-0.4528,-0.2184,-0.0168,-0.1849,-0.2016,-0.0168,0.0,0.0,0.0,0.0,0.0,0.0,0.0,0.0,0.0,0.0,0.0,0.0,0.0,0.0,0.0,0.0,0.0,0.0,0.0,0.0,0.0,0.0,0.0,0.0,0.0,0.0,0.0,-4.2986,-4.2986,-4.2986,-4.2986,0.0,0.0,0.0,-4.2986,-4.2986,-4.2986,-4.2986,-4.2737,-4.2037,-4.2625,-4.2737,-4.2012,-4.2625,-4.2986,-4.2986,-4.2986,-4.2986,-4.2986,-4.2986,-4.2986,-4.2986,-4.2986,-4.2986,-4.2986,-4.1419,-3.9756,-3.8223,-3.6539,-3.4964,-3.3418,-3.3418,-3.2892,-3.1854,-3.2096,-3.0066,-2.69,-2.7243,-2.5871,-2.3834,-2.3834,-2.4088,-2.4476,-2.4596,-2.4636,-2.4636,-2.4636,-2.4636,-2.4636,-2.4636,-2.4756,-2.4917,-2.5037,-2.5317,-2.5611,-2.5732,-2.4384,-2.2498,-2.0248,-1.8207,-1.5999,-1.3887,-1.3403,-1.3403,-1.3403,0.0,0.0,0.0,0.0,0.0,0.0,-1.3356,-1.3376,-1.3315,-1.3363,-1.3403,-1.3403,-1.1386,0.0,-0.503,-0.503,-0.386,-0.0337,-0.2016,-0.2352,-0.0168,0.0,0.0,0.0,0.0,0.0,0.0,0.0,0.0,0.0,0.0,0.0,0.0,0.0,0.0,0.0,0.0,0.0,0.0,0.0,0.0,0.0,0.0,0.0,0.0,0.0,0.0,0.0,-4.2986,-4.2986,-4.2986,-4.2986,-4.2986,-4.2986,-4.2986,-4.2986,-4.2986,-4.2986,-4.2986,-4.2849,-4.2375,-4.2737,-4.2849,-4.2375,-4.2737,-4.2986,-4.2986,-4.2986,-4.2986,-4.2986,-4.2986,-4.2986,-4.2986,-4.2986,-4.2986,-4.2986,-4.1419,-3.9756,-3.8223,-3.6539,-3.5046,-3.3594,-3.3594,-3.2592,-3.1132,-3.1289,-2.9396,-2.6175,-2.6364,-2.5584,-2.4329,-2.4329,-2.4449,-2.4636,-2.4636,-2.4636,-2.4636,-2.4636,-2.4636,-2.4649,-2.473,-2.4903,-2.5117,-2.5277,-2.5625,-2.5972,-2.6052,-2.5097,-2.33,-2.0554,-1.877,-1.6811,-1.4052,-1.3403,-1.3403,-1.3403,-1.3403,0.0,0.0,0.0,-1.339,-1.3342,0.0,-1.339,-1.3342,-1.3376,-1.3403,-1.3403,-1.1386,-0.8707,0.0,-0.67,-0.6032,-0.2184,-0.3358,-0.3358,-0.1009,-0.0337,0.0,0.0,0.0,0.0,0.0,0.0,0.0,0.0,0.0,0.0,0.0,0.0,0.0,0.0,0.0,0.0,0.0,0.0,0.0,0.0,0.0,0.0,0.0,0.0,0.0,0.0,-4.2986,-4.2986,-4.2986,-4.2986,-4.2986,-4.2986,-4.2986,-4.2986,-4.2986,-4.2986,-4.2986,-4.2375,-4.0846,-4.2037,-4.2375,-4.0822,-4.215,-4.2986,-4.2986,-4.2986,-4.2986,-4.2986,-4.2986,-4.2986,-4.2986,-4.2986,-4.2986,-4.2986,-4.1419,-3.9756,-3.8223,-3.6539,-3.521,-3.4043,-3.4043,-3.3198,-3.181,-3.1828,-2.9766,-2.6364,-2.6691,-2.5897,-2.4623,-2.4623,-2.4623,-2.4636,-2.4636,-2.4636,-2.4636,-2.4636,-2.4636,-2.469,-2.497,-2.5077,-2.5197,-2.5758,-2.5945,-2.6012,-2.6306,-2.6373,-2.5251,-2.1039,-1.9907,-1.8607,-1.4383,-1.3403,-1.3403,-1.3403,-1.3403,-1.3403,-1.3403,-1.3403,-1.3349,-1.3207,-1.3302,0.0,0.0,-1.3308,-1.3403,-1.3403,-1.1386,-0.9878,-0.9878,-0.9878,-0.8874,-0.67,-0.6533,-0.57,-0.3358,-0.1178,0.0,0.0,0.0,0.0,0.0,0.0,0.0,0.0,0.0,0.0,0.0,0.0,0.0,0.0,0.0,0.0,0.0,0.0,0.0,0.0,0.0,0.0,0.0,0.0,0.0,0.0,-4.2986,-4.2986,-4.2986,-4.2986,-4.2986,-4.2986,-4.2986,-4.2986,-4.2986,-4.2986,-4.2986,-4.2737,-4.2263,-4.2625,-4.2737,-4.2263,-4.2737,-4.2986,-4.2986,-4.2986,-4.2986,-4.2986,-4.2986,-4.2986,-4.2986,-4.2986,-4.2986,-4.2986,-4.1419,-3.9942,-3.8596,-3.7031,-3.5681,-3.4492,-3.4492,-3.2803,-3.0072,-3.0326,-2.8364,-2.4911,-2.5216,-2.5116,-2.4636,-2.4636,-2.4636,-2.4636,-2.4636,-2.4636,-2.4636,-2.4636,-2.477,-2.4943,-2.505,-2.5344,-2.5705,-2.5892,-2.6092,-2.5938,-2.4577,-2.314,-2.1362,-1.8435,-1.6656,-1.5193,-1.3728,-1.3403,-1.3403,-1.3403,-1.3403,-1.3403,-1.3403,-1.3403,-1.3383,-1.3336,-1.337,-1.3383,0.0,-1.337,-1.3403,-1.3403,-1.2727,-1.1718,-1.0211,-1.1386,-1.0715,-0.7034,-0.804,-0.7372,-0.3524,-0.2687,-0.1513,0.0,0.0,0.0,0.0,0.0,0.0,0.0,0.0,0.0,0.0,0.0,0.0,0.0,0.0,0.0,0.0,0.0,0.0,0.0,0.0,0.0,0.0,0.0,0.0,0.0,-4.2986,-4.2986,-4.2986,-4.2986,-4.2986,-4.2986,-4.2986,-4.2986,-4.2986,-4.2986,-4.2986,-4.2986,-4.2986,-4.2986,-4.2986,-4.2986,-4.2986,-4.2986,-4.2986,-4.2986,-4.2986,-4.2986,-4.2986,-4.2986,-4.2986,-4.2986,-4.3062,-4.3263,-4.1109,-3.9698,-3.9109,-3.6897,-3.5529,-3.4941,-3.4941,-3.2942,-2.9633,-2.9864,-2.7733,-2.4369,-2.4556,-2.4636,-2.4636,-2.4636,-2.4636,-2.4636,-2.4636,-2.4636,-2.4649,-2.4756,-2.4917,-2.5117,-2.5331,-2.5651,-2.5972,-2.6079,-2.5754,-2.492,-2.346,-2.1523,-1.942,-1.7138,-1.5514,-1.4375,-1.3562,-1.3403,-1.3403,-1.3403,-1.3403,-1.3403,-1.3403,-1.3403,-1.3403,-1.3403,-1.3403,-1.3403,0.0,-1.3403,-1.3403,-1.3403,-1.3403,-1.2893,-1.1386,-1.2561,-1.2222,-0.9378,-0.9711,-0.8874,-0.5867,-0.503,-0.3524,-0.1178,-0.1178,-0.0842,0.0,0.0,0.0,0.0,0.0,0.0,0.0,0.0,0.0,0.0,0.0,0.0,0.0,0.0,0.0,0.0,0.0,0.0,0.0,0.0,0.0,0.0,-4.2986,-4.2986,-4.2986,-4.2986,-4.2986,-4.2986,-4.2986,-4.2986,-4.2986,-4.2986,-4.2986,-4.2986,-4.2986,-4.2986,-4.2986,-4.2986,-4.2986,-4.2986,-4.2986,-4.2986,-4.2986,-4.2986,-4.2986,-4.2986,-4.2986,-4.3011,-4.3263,-4.3676,-4.0429,-3.9132,-3.9477,-3.6228,-3.498,-3.543,-3.543,-3.3513,-3.031,-3.031,-2.8038,-2.4636,-2.4636,-2.4636,-2.4636,-2.4636,-2.4636,-2.4636,-2.4636,-2.4649,-2.4703,-2.4983,-2.5104,-2.5224,-2.5785,-2.5972,-2.6039,-2.6306,-2.492,-2.314,-2.298,-2.1523,-1.942,-1.6975,-1.6483,-1.5835,-1.3887,-1.3403,-1.3403,-1.3403,-1.3403,-1.3403,-1.3403,-1.3403,-1.3403,-1.3403,-1.3403,-1.3403,-1.3403,-1.3403,-1.3403,-1.3403,-1.3403,-1.3403,-1.3403,-1.3403,-1.3403,-1.3403,-1.1386,-1.0211,0.0,-0.804,-0.5867,-0.3524,-0.3357,-0.2352,-0.0168,0.0,0.0,0.0,0.0,0.0,0.0,0.0,0.0,0.0,0.0,0.0,0.0,0.0,0.0,0.0,0.0,0.0,0.0,0.0,0.0,0.0,-4.2986,-4.2986,-4.2986,-4.2986,-4.2986,-4.2986,-4.2986,-4.2986,-4.2986,-4.2986,-4.2986,-4.2986,-4.2986,-4.2986,-4.2986,-4.2986,-4.2986,-4.2986,-4.2986,-4.2986,-4.2986,-4.2986,-4.2986,-4.2986,-4.2986,-4.3388,-4.3044,-4.1846,-4.0295,-3.9023,-3.8252,-3.6234,-3.5449,-3.5859,-3.5859,-3.3771,-3.031,-3.031,-2.8038,-2.4636,-2.4636,-2.4636,-2.4636,-2.4636,-2.4636,-2.4636,-2.4636,-2.4783,-2.497,-2.505,-2.5371,-2.5758,-2.5905,-2.6106,-2.6293,-2.6373,-2.6056,-2.492,-2.1523,-2.0393,-1.8933,-1.5193,-1.4217,-1.4052,-1.3562,-1.3403,-1.3403,-1.3403,-1.3403,-1.3403,-1.3403,-1.3403,-1.3403,-1.3403,-1.3403,-1.3403,-1.3403,-1.3403,-1.3403,-1.3403,-1.3403,-1.3403,-1.3403,-1.3403,-1.3403,-1.3403,-1.2899,-1.1718,-1.0044,0.0,-0.8207,-0.5867,-0.4195,-0.3191,-0.252,-0.0842,0.0,0.0,0.0,0.0,0.0,0.0,0.0,0.0,0.0,0.0,0.0,0.0,0.0,0.0,0.0,0.0,0.0,0.0,0.0,0.0,-4.2986,-4.2986,-4.2986,-4.2986,-4.2986,-4.2986,-4.2986,-4.2986,-4.2986,-4.2986,-4.2986,-4.2986,-4.2986,-4.2986,-4.2986,-4.2986,-4.2986,-4.2986,-4.2986,-4.2986,-4.2986,-4.2986,-4.3212,-4.3338,-4.3338,-4.3152,-4.268,-4.1923,-3.9881,-3.8637,-3.8089,-3.643,-3.5801,-3.6016,-3.6016,-3.4314,-3.1456,-2.9757,-2.7346,-2.4636,-2.4636,-2.4636,0.0,-2.4783,-2.4823,-2.485,-2.497,-2.505,-2.5117,-2.5371,-2.5678,-2.5972,-2.6106,-2.6266,-2.6386,-2.6386,-2.574,-2.4271,-2.0878,-1.9258,-1.7629,-1.4217,-1.3403,-1.3403,-1.3403,-1.3403,-1.3403,-1.3403,-1.3403,-1.3403,-1.3403,-1.3403,-1.3403,-1.3403,-1.3403,-1.3403,-1.3403,-1.3403,-1.3403,-1.3403,-1.3403,-1.3403,-1.3403,-1.3403,-1.3403,-1.3403,-1.3403,-1.2893,-1.1552,0.0,-1.0549,-0.8207,-0.6871,-0.5365,-0.3358,-0.2016,-0.1009,0.0,0.0,0.0,0.0,0.0,0.0,0.0,0.0,0.0,0.0,0.0,0.0,0.0,0.0,0.0,0.0,0.0,0.0,0.0,-4.2986,-4.2986,-4.2986,-4.2986,-4.2986,-4.2986,-4.2986,-4.2986,-4.2986,-4.2986,-4.2986,-4.2986,-4.2986,-4.2986,-4.2986,-4.2986,-4.2986,-4.2986,-4.2986,-4.3037,-4.3087,-4.3087,-4.3614,-4.3776,-4.3547,-4.2732,-4.2229,-4.2186,-3.9365,-3.8089,-3.8221,-3.6674,-3.6016,-3.6016,-3.6016,-3.4883,-3.2595,-2.8772,-2.6064,-2.4636,-2.4636,-2.4663,-2.4716,-2.4983,-2.5104,-2.517,-2.5464,-2.5411,-2.5277,-2.5785,-2.5985,-2.6052,-2.6306,-2.6386,-2.6386,-2.6386,-2.5092,-2.298,-2.0554,-1.8444,-1.6492,-1.4052,-1.3403,-1.3403,-1.3403,-1.3403,-1.3403,-1.3403,-1.3403,-1.3403,-1.3403,-1.3403,-1.3403,-1.3403,-1.3403,-1.3403,-1.3403,-1.3403,-1.3403,-1.3403,-1.3403,0.0,-1.3403,-1.3403,-1.3403,-1.3403,-1.3403,-1.3403,0.0,0.0,-1.2561,-1.0549,-0.9878,-0.7869,-0.4363,-0.3357,-0.2016,-0.0505,-0.0168,0.0,0.0,0.0,0.0,0.0,0.0,0.0,0.0,0.0,0.0,0.0,0.0,0.0,0.0,0.0,0.0,0.0,-4.2986,-4.2986,-4.2986,-4.2986,-4.2986,-4.2986,-4.2986,-4.2986,-4.2986,-4.2986,-4.2986,-4.2986,-4.2986,-4.2986,-4.2986,-4.2986,-4.2986,-4.2986,-4.2986,-4.3413,-4.3664,-4.3664,-4.4192,-4.3862,-4.24,-4.2663,-4.1476,-3.868,-3.8544,-3.7739,-3.6403,-3.6152,-3.6016,-3.6016,-3.6016,-3.402,-3.0593,-2.6779,-2.4918,-2.4636,-2.4636,-2.4783,-2.501,-2.5064,-2.5224,-2.5478,-2.5772,-2.5852,-2.5812,-2.5919,-2.6119,-2.6319,-2.6373,-2.6386,-2.6386,-2.6386,-2.607,-2.4933,-2.1039,-1.9582,-1.8444,-1.4383,-1.3403,-1.3403,-1.3403,-1.3403,-1.3403,-1.3403,-1.3403,-1.3403,-1.3403,-1.3403,-1.3403,-1.3403,-1.3403,-1.3403,-1.3403,-1.3403,-1.3403,-1.3403,-1.3403,-1.3403,-1.3403,-1.3403,-1.3403,-1.3403,-1.3403,-1.3403,-1.3403,0.0,-1.3231,0.0,-0.9207,-0.7873,0.0,0.0,-0.1346,-0.2687,-0.0841,0.0,0.0,0.0,0.0,0.0,0.0,0.0,0.0,0.0,0.0,0.0,0.0,0.0,0.0,0.0,0.0,0.0,-4.2986,-4.2986,-4.2986,-4.2986,-4.2986,-4.2986,-4.2986,-4.3212,-4.3313,-4.3011,-4.2986,-4.2986,-4.2986,-4.3237,-4.3413,-4.3413,-4.3664,-4.384,-4.384,-4.4091,-4.4217,-4.4217,-4.4769,-4.4693,-4.3839,-4.272,-4.1203,-3.9563,-3.7984,-3.6789,-3.6016,-3.6016,-3.6016,-3.6016,-3.5021,-3.3013,-3.0168,-2.7346,-2.5492,-2.4649,-2.4796,-2.4957,-2.5117,-2.5424,-2.5625,-2.5785,-2.6079,-2.6186,-2.6186,-2.6186,-2.6279,-2.6386,-2.6386,-2.6386,-2.6386,-2.6386,-2.6386,-2.5409,-2.1039,-1.9907,-1.877,-1.4548,-1.3403,-1.3403,-1.3403,-1.3403,-1.3403,-1.3403,-1.3403,-1.3403,-1.3403,-1.3403,-1.3403,-1.3403,-1.3403,-1.3403,-1.3403,-1.3403,-1.3403,-1.3403,-1.3403,-1.3403,-1.3403,-1.3403,-1.3403,-1.3403,-1.3403,-1.3403,-1.3403,0.0,-1.3403,0.0,0.0,0.0,-0.8373,0.0,-0.2855,-0.1513,-0.0505,0.0,0.0,0.0,0.0,0.0,0.0,0.0,0.0,0.0,0.0,0.0,0.0,0.0,0.0,0.0,0.0,0.0,-4.2986,-4.2986,-4.2986,-4.2986,-4.3062,-4.3162,-4.3162,-4.3614,-4.379,-4.3212,-4.3263,-4.3338,-4.3338,-4.3714,-4.3966,-4.3966,-4.4367,-4.4618,-4.4618,-4.4744,-4.4794,-4.4794,-4.5347,-4.5529,-4.5147,-4.252,-4.1052,-4.0666,-3.7575,-3.6074,-3.6152,-3.6055,-3.5743,-3.5295,-3.3448,-3.1456,-2.9615,-2.7635,-2.6107,-2.4756,-2.4983,-2.5157,-2.5317,-2.5785,-2.5999,-2.6079,-2.6306,-2.6386,-2.6386,-2.6386,-2.6386,-2.6386,-2.6386,-2.6386,-2.6386,-2.6386,-2.6386,-2.5409,-2.1039,-1.9907,-1.877,-1.4548,-1.3403,-1.3403,-1.3403,-1.3403,-1.3403,-1.3403,-1.3403,-1.3403,-1.3403,-1.3403,-1.3403,-1.3403,-1.3403,-1.3403,-1.3403,-1.3403,-1.3403,-1.3403,-1.3403,-1.3403,-1.3403,-1.3403,-1.3403,-1.3403,-1.3403,-1.3403,-1.3403,-1.3403,-1.3403,0.0,0.0,-1.0549,-0.7368,0.0,-0.3692,-0.0673,-0.0168,0.0,0.0,0.0,0.0,0.0,0.0,0.0,0.0,0.0,0.0,0.0,0.0,0.0,0.0,0.0,0.0,0.0,-4.2986,-4.2986,-4.2986,-4.2986,-4.3388,-4.374,-4.374,-4.4192,-4.4342,-4.379,-4.4166,-4.4468,-4.4468,-4.4518,-4.4543,-4.4543,-4.4593,-4.4618,-4.4618,-4.5121,-4.5422,-4.5422,-4.5949,-4.5451,-4.3907,-4.2178,-4.0408,-3.8861,-3.6924,-3.623,-3.6601,-3.6211,-3.5021,-3.3309,-3.1456,-2.9472,-2.765,-2.5639,-2.4932,-2.5037,-2.5064,-2.5398,-2.5879,-2.5932,-2.6119,-2.636,-2.6373,-2.6386,-2.6386,-2.6386,-2.6386,-2.6386,-2.6386,-2.6386,-2.6386,-2.6386,-2.6386,-2.5409,-2.1039,-1.9907,-1.877,-1.4548,-1.3403,-1.3403,-1.3403,-1.3403,-1.3403,-1.3403,-1.3403,-1.3403,-1.3403,-1.3403,-1.3403,-1.3403,-1.3403,-1.3403,-1.3403,-1.3403,-1.3403,-1.3403,-1.3403,-1.3403,-1.3403,-1.3403,-1.3403,-1.3403,-1.3403,-1.3403,-1.3403,-1.3403,-1.3403,-1.3403,-0.9373,-0.804,-0.9711,-0.3692,-0.1345,-0.3023,-0.1009,0.0,0.0,0.0,0.0,0.0,0.0,0.0,0.0,0.0,0.0,0.0,0.0,0.0,0.0,0.0,0.0,0.0,-4.2986,-4.3237,-4.3463,-4.3463,-4.3915,-4.4292,-4.4292,-4.4769,-4.507,-4.4844,-4.4694,-4.4618,-4.4618,-4.4945,-4.5146,-4.5146,-4.5447,-4.5648,-4.5648,-4.5849,-4.5974,-4.5974,-4.62,-4.5525,-4.3731,-4.2074,-4.0408,-3.8597,-3.6789,-3.6113,-3.6269,-3.6094,-3.5021,-3.317,-3.1158,-2.9298,-2.7643,-2.5769,-2.5064,-2.5358,-2.5531,-2.5745,-2.5972,-2.6146,-2.6293,-2.6386,-2.6386,-2.6386,-2.6386,-2.6386,-2.6386,-2.6386,-2.6386,-2.6386,-2.6386,-2.6386,-2.6386,-2.5409,-2.1039,-1.9907,-1.877,-1.4548,-1.3403,-1.3403,-1.3403,-1.3403,-1.3403,-1.3403,-1.3403,-1.3403,-1.3403,-1.3403,-1.3403,-1.3403,-1.3403,-1.3403,-1.3403,-1.3403,-1.3403,-1.3403,-1.3403,-1.3403,-1.3403,-1.3403,-1.3403,-1.3403,-1.3403,-1.3403,-1.3403,-1.2056,-1.2056,-1.3397,0.0,-0.7201,-0.804,-0.4027,-0.1849,-0.1346,-0.0505,0.0,0.0,0.0,0.0,0.0,0.0,0.0,0.0,0.0,0.0,0.0,0.0,0.0,0.0,0.0,0.0,0.0,-4.3212,-4.3664,-4.4041,-4.4041,-4.4518,-4.4869,-4.4869,-4.5372,-4.5723,-4.5723,-4.5372,-4.5121,-4.5121,-4.5472,-4.5723,-4.5723,-4.6075,-4.6301,-4.6301,-4.6301,-4.6301,-4.6301,-4.5793,-4.5013,-4.3731,-4.1565,-3.9888,-3.8597,-3.6789,-3.6094,-3.6211,-3.6211,-3.4859,-3.2316,-3.0993,-2.9183,-2.6978,-2.5759,-2.5371,-2.5665,-2.5865,-2.6012,-2.6106,-2.6306,-2.6386,-2.6386,-2.6386,-2.6386,-2.6386,-2.6386,-2.6386,-2.6386,-2.6386,-2.6386,-2.6386,-2.6386,-2.6386,-2.5581,-2.1845,-2.0393,-1.8933,-1.5193,-1.3887,-1.3403,-1.3403,-1.3403,-1.3403,-1.3403,-1.3403,-1.3403,-1.3403,-1.3403,-1.3403,-1.3403,-1.3403,-1.3403,-1.3403,-1.3403,-1.3403,-1.3403,-1.3403,-1.3403,-1.3403,-1.3403,-1.3065,-1.2395,-1.2395,-1.2395,-1.2395,-1.0882,0.0,0.0,0.0,0.0,-0.57,-0.3524,-0.1513,0.0,0.0,0.0,0.0,0.0,0.0,0.0,0.0,0.0,0.0,0.0,0.0,0.0,0.0,0.0,0.0,0.0,0.0,0.0,-4.379,-4.4242,-4.4618,-4.4618,-4.5095,-4.5472,-4.5472,-4.5949,-4.6301,-4.6301,-4.6301,-4.6301,-4.6301,-4.6301,-4.6301,-4.6301,-4.6301,-4.6301,-4.6301,-4.6301,-4.6301,-4.6301,-4.462,-4.3731,-4.3731,-4.0408,-3.8597,-3.8597,-3.6789,-3.623,-3.666,0.0,-3.4408,-3.0326,-3.0689,-2.8688,-2.5104,-2.5384,-2.5678,-2.5959,-2.5959,-2.6132,-2.6386,-2.6386,-2.6386,-2.6386,-2.6386,-2.6386,-2.6386,-2.6386,-2.6386,-2.6386,-2.6386,-2.6386,-2.6386,-2.6386,-2.6386,-2.5898,-2.362,-2.1523,-1.942,-1.7138,-1.5028,-1.3403,-1.3403,-1.3403,-1.3403,-1.3403,-1.3403,-1.3403,-1.3403,-1.3403,-1.3403,-1.3403,0.0,-1.3403,-1.3403,-1.3403,-1.3403,-1.3403,-1.3403,-1.3403,-1.3403,-1.3403,-1.2395,-1.0211,-1.0044,-1.0044,0.0,0.0,0.0,-0.6871,-0.4528,0.0,-0.3357,-0.1178,0.0,0.0,0.0,0.0,0.0,0.0,0.0,0.0,0.0,0.0,0.0,0.0,0.0,0.0,0.0,0.0,0.0,0.0,0.0,0.0,-4.4292,-4.4819,-4.5221,-4.5221,-4.5673,-4.605,-4.605,-4.62,-4.6301,-4.6301,-4.6301,-4.6301,-4.6301,-4.6301,-4.6301,-4.6301,-4.6301,-4.6301,-4.6301,-4.6301,-4.6301,-4.6301,-4.462,-4.3208,-4.2074,-3.9758,-3.7955,-3.6789,-3.6268,-3.6094,-3.623,-3.623,-3.4297,-3.0689,-3.0805,-2.8949,-2.5678,-2.5772,-2.5985,-2.6253,-2.6253,-2.6306,-2.6386,-2.6386,-2.6386,-2.6386,-2.6386,-2.6386,-2.6386,-2.6386,-2.6386,-2.6386,-2.6386,-2.6386,-2.6386,-2.6386,-2.6386,-2.5898,-2.3632,-2.1523,-1.942,-1.7138,-1.5028,-1.3403,-1.3403,-1.3403,-1.3403,-1.3403,-1.3403,-1.3403,-1.3403,-1.3403,-1.3403,-1.3403,-1.3403,0.0,-1.3403,-1.3403,-1.3403,-1.3403,-1.3403,-1.2727,-1.122,-1.1048,-1.0715,-1.0044,-1.0044,0.0,0.0,0.0,0.0,0.0,-0.3023,0.0,-0.3358,-0.1178,0.0,0.0,0.0,0.0,0.0,0.0,0.0,0.0,0.0,0.0,0.0,0.0,0.0,0.0,0.0,0.0,0.0,0.0,0.0,0.0,-4.4869,-4.5397,-4.5799,-4.5799,-4.6075,-4.6301,-4.6301,-4.6301,-4.6301,-4.6301,-4.6301,-4.6301,-4.6301,-4.6301,-4.6301,-4.6301,-4.6301,-4.6301,-4.6301,-4.6301,-4.6059,-4.5403,-4.3731,-4.1947,-4.0278,-3.8486,-3.7059,-3.6016,-3.6016,-3.6094,-3.6269,-3.5406,-3.3603,-3.1069,-3.0323,-2.8567,-2.5959,-2.6079,-2.6226,-2.6386,-2.6386,-2.6386,-2.6386,-2.6386,-2.6386,-2.6386,-2.6386,-2.6386,-2.6386,-2.6386,-2.6386,-2.6386,-2.6386,-2.6466,-2.6533,-2.6426,-2.6386,-2.607,-2.4761,-2.282,-2.0554,-1.8435,-1.6164,-1.4375,-1.3562,-1.3403,-1.3403,-1.3403,-1.3403,-1.3403,-1.3403,-1.3403,-1.3403,-1.3403,-1.3403,-1.3403,-1.3403,-1.3403,-1.3403,-1.3403,-1.3403,-1.2893,-1.1386,-1.0549,-0.9711,-0.8874,-0.8036,0.0,0.0,0.0,-0.4528,-0.4195,-0.1513,-0.0673,-0.2184,-0.0673,0.0,0.0,0.0,0.0,0.0,0.0,0.0,0.0,0.0,0.0,0.0,0.0,0.0,0.0,0.0,0.0,0.0,0.0,0.0,0.0,-4.5547,-4.5949,-4.6301,-4.6301,-4.6301,-4.6301,-4.6301,-4.6301,-4.6301,-4.6301,-4.6301,-4.6301,-4.6301,-4.6301,-4.6301,-4.6301,-4.6301,-4.6301,-4.6301,-4.6301,-4.5525,-4.3731,-4.2074,-4.0408,-3.8597,-3.6924,-3.6016,-3.6016,-3.6055,-3.6269,-3.668,-3.4648,-3.2837,-3.1301,-2.9563,-2.7774,-2.5999,-2.6279,-2.6386,-2.6386,-2.6386,-2.6386,-2.6386,-2.6386,-2.6386,-2.6386,-2.6386,-2.6386,-2.6386,-2.6413,-2.6413,-2.6426,-2.644,-2.664,-2.68,-2.6507,-2.6426,-2.6453,-2.6453,-2.4639,-2.2361,-2.0413,-1.8128,-1.5835,-1.3887,-1.3403,-1.3403,-1.3403,-1.3403,-1.3403,-1.3403,-1.3403,-1.3403,-1.3403,-1.3403,-1.3403,-1.3403,-1.3403,-1.3403,-1.3403,-1.3403,0.0,-1.3231,-1.122,-0.904,-0.6871,0.0,0.0,0.0,0.0,-0.4528,-0.0168,0.0,0.0,0.0,0.0,0.0,0.0,0.0,0.0,0.0,0.0,0.0,0.0,0.0,0.0,0.0,0.0,0.0,0.0,0.0,0.0,0.0,0.0,0.0,0.0,-4.6024,-4.6225,-4.6301,-4.6301,-4.6301,-4.6301,-4.6301,-4.6301,-4.6301,-4.6301,-4.6301,-4.6301,-4.6301,-4.6301,-4.6301,-4.6301,-4.6301,-4.6301,-4.6301,-4.6301,-4.5525,-4.3731,-4.2074,-4.0408,-3.8597,-3.6924,-3.6016,-3.6016,-3.6348,-3.6562,-3.668,-3.4944,-3.3238,-3.1679,-2.967,-2.7903,-2.6293,-2.636,-2.6386,-2.6386,-2.6386,-2.6386,-2.6386,-2.6386,-2.6386,-2.6386,-2.6386,-2.6386,-2.6426,-2.664,-2.672,-2.676,-2.6987,-2.7108,-2.7108,-2.68,-2.6881,-2.7054,-2.7054,-2.4076,-2.0815,-2.0324,-1.7087,-1.4052,-1.3562,-1.3403,-1.3403,-1.3403,-1.3403,-1.3403,-1.3403,-1.3403,-1.3403,-1.3403,-1.3403,-1.3403,-1.3403,-1.3403,-1.3403,0.0,-1.3403,-1.2727,-1.1048,-0.8874,-0.7205,0.0,0.0,-0.3023,-0.252,-0.3524,-0.2855,-0.0168,0.0,0.0,0.0,0.0,0.0,0.0,0.0,0.0,0.0,0.0,0.0,0.0,0.0,0.0,0.0,0.0,0.0,0.0,0.0,0.0,0.0,0.0,0.0,0.0,-4.625,-4.6301,-4.6301,-4.6301,-4.6301,-4.6301,-4.6301,-4.6301,-4.6301,-4.6301,-4.6301,-4.6301,-4.6301,-4.6301,-4.6301,-4.6301,-4.6301,-4.6301,-4.6301,-4.5525,-4.4374,-4.258,-4.0924,-3.9256,-3.7441,-3.6539,-3.6113,-3.6309,-3.6562,-3.6417,-3.5773,-3.407,-3.2291,-3.0694,-2.8578,-2.7153,-2.6386,-2.6386,-2.6386,-2.6386,-2.6386,-2.6386,-2.6386,-2.6386,-2.6386,-2.6386,-2.6386,-2.648,-2.6613,-2.6774,-2.6907,-2.7054,-2.7215,-2.7362,-2.7428,-2.7268,-2.7241,-2.7268,-2.7268,-2.4644,-2.1355,-1.9269,-1.598,-1.3403,-1.3403,-1.3403,-1.3403,-1.3403,-1.3403,-1.3403,-1.3403,-1.3403,-1.3403,-1.3403,-1.3403,-1.3403,-1.3403,-1.3403,-1.3403,-1.3403,-1.3403,-1.2899,-1.1718,-0.8707,-0.67,-0.67,-0.3692,0.0,-0.1849,-0.1849,-0.1178,0.0,0.0,0.0,0.0,0.0,0.0,0.0,0.0,0.0,0.0,0.0,0.0,0.0,0.0,0.0,0.0,0.0,0.0,0.0,0.0,0.0,0.0,0.0,0.0,0.0,-4.6301,-4.6301,-4.6301,-4.6301,-4.6301,-4.6301,-4.6301,-4.6301,-4.6301,-4.6301,-4.6301,-4.6301,-4.6301,-4.6301,-4.6301,-4.6301,-4.6301,-4.6301,-4.6301,-4.462,-4.2958,-4.1309,-3.9518,-3.7822,-3.6016,-3.6094,-3.6328,-3.6758,-3.6836,-3.6199,-3.492,-3.2906,-3.0998,-2.9293,-2.7305,-2.6386,-2.6386,-2.6386,-2.6386,-2.6386,-2.6386,-2.6386,-2.6386,-2.6386,-2.6413,-2.6453,-2.6453,-2.664,-2.6894,-2.6934,-2.7121,-2.7335,-2.7388,-2.7562,-2.7762,-2.7762,-2.7589,-2.7402,-2.7402,-2.5512,-2.24,-1.8023,-1.5196,-1.3437,-1.3437,-1.3417,-1.3403,-1.3403,-1.3403,-1.3403,-1.3403,-1.3403,-1.3403,-1.3403,-1.3403,-1.3403,-1.3403,0.0,-1.3403,-1.3403,-1.3403,-1.3403,-1.3403,-0.9373,-0.67,-0.67,-0.252,0.0,0.0,0.0,0.0,0.0,0.0,0.0,0.0,0.0,0.0,0.0,0.0,0.0,0.0,0.0,0.0,0.0,0.0,0.0,0.0,0.0,0.0,0.0,0.0,0.0,0.0,0.0,0.0,0.0,-4.6301,-4.6301,-4.6301,-4.6301,-4.6301,-4.6301,-4.6301,-4.6301,-4.6301,-4.6301,-4.6301,-4.6301,-4.6301,-4.6301,-4.6301,-4.6301,-4.6301,-4.6301,-4.6301,-4.462,-4.2958,-4.1309,-3.9518,-3.7822,-3.6016,-3.6387,-3.6777,-3.7207,-3.7559,-3.6751,-3.4938,-3.3177,-3.1373,-2.9293,-2.7305,-2.6386,-2.6386,-2.6386,-2.6386,-2.6386,-2.6386,-2.6386,-2.6386,-2.6386,-2.6547,-2.6747,-2.6747,-2.6947,-2.7241,-2.7482,-2.7589,-2.7669,-2.7923,-2.8043,-2.807,-2.807,-2.8043,-2.8003,-2.8003,-2.4734,-2.0776,-1.7882,-1.5363,-1.3593,-1.3593,-1.3492,-1.3403,-1.3403,-1.3403,-1.3403,-1.3403,-1.3403,-1.3403,-1.3403,-1.3403,-1.3403,-1.3403,0.0,-1.3403,-1.3403,-1.3403,-1.3403,-1.3403,-0.9373,-0.67,-0.67,-0.252,0.0,0.0,0.0,0.0,0.0,0.0,0.0,0.0,0.0,0.0,0.0,0.0,0.0,0.0,0.0,0.0,0.0,0.0,0.0,0.0,0.0,0.0,0.0,0.0,0.0,0.0,0.0,0.0,0.0,-4.6301,-4.6301,-4.6301,-4.6301,-4.6301,-4.6301,-4.6301,-4.6301,-4.6301,-4.6301,-4.6301,-4.6301,-4.6301,-4.6301,-4.6301,-4.6301,-4.6301,-4.5914,-4.5013,-4.3357,-4.1565,-3.9888,-3.8088,-3.6909,-3.6367,-3.6797,-3.7207,-3.7637,-3.677,-3.5339,-3.361,-3.1646,-2.9743,-2.7762,-2.6847,-2.6386,-2.6386,-2.6386,-2.6386,-2.6386,-2.6386,-2.6386,-2.6413,-2.656,-2.6707,-2.6841,-2.7001,-2.7255,-2.7522,-2.7655,-2.7802,-2.7963,-2.8096,-2.8136,-2.8136,-2.8136,-2.8136,-2.7968,-2.6588,-2.3631,-2.0347,-1.8058,-1.5539,-1.3722,-1.3648,-1.3573,-1.3498,-1.3417,-1.3403,-1.3403,-1.3403,-1.3403,-1.3403,-1.3403,-1.3403,-1.3403,-1.3403,-1.3403,-1.3403,-1.3403,-1.3403,-1.3403,-1.3403,-0.9373,-0.67,-0.67,-0.252,0.0,0.0,0.0,0.0,0.0,0.0,0.0,0.0,0.0,0.0,0.0,0.0,0.0,0.0,0.0,0.0,0.0,0.0,0.0,0.0,0.0,0.0,0.0,0.0,0.0,0.0,0.0,0.0,0.0,-4.6301,-4.6301,-4.6301,-4.6301,-4.6301,-4.6301,-4.6301,-4.6301,-4.6301,-4.6301,-4.6301,-4.6301,-4.6301,-4.6301,-4.6301,-4.6301,-4.5914,-4.4939,-4.3373,-4.1723,-4.0192,-3.8765,-3.7184,-3.6523,-3.6953,-3.7285,-3.7656,-3.8086,-3.5961,-3.4171,-3.2505,-3.0361,-2.8374,-2.6386,-2.6386,-2.6386,-2.6386,-2.6386,-2.6386,-2.64,-2.6466,-2.6493,-2.652,-2.6814,-2.6974,-2.7054,-2.7281,-2.7562,-2.7802,-2.7802,-2.7949,-2.8136,-2.8136,-2.8136,-2.8136,-2.8136,-2.8136,-2.7799,-2.6066,-2.3324,-2.0617,-1.875,-1.6051,-1.3858,-1.3709,-1.3654,-1.3587,-1.3431,-1.3403,-1.3403,-1.3403,-1.3403,-1.3403,-1.3403,0.0,-1.3403,-1.3403,-1.3403,-1.3403,-1.3403,-1.3403,-1.3403,-1.3403,-0.9373,-0.67,-0.67,-0.252,0.0,0.0,0.0,0.0,0.0,0.0,0.0,0.0,0.0,0.0,0.0,0.0,0.0,0.0,0.0,0.0,0.0,0.0,0.0,0.0,0.0,0.0,0.0,0.0,0.0,0.0,0.0,0.0,0.0,-4.6301,-4.6301,-4.6301,-4.6301,-4.6301,-4.6301,-4.6301,-4.6301,-4.6301,-4.6301,-4.6301,-4.6301,-4.6301,-4.6301,-4.6301,-4.6301,-4.489,-4.3294,-4.2068,-4.0274,-3.9227,-3.9093,-3.7926,-3.7402,-3.7812,-3.7851,-3.8086,-3.8535,-3.6534,-3.4416,-3.2505,-3.0361,-2.8374,-2.6386,-2.6386,-2.6386,-2.6386,-2.6386,-2.6386,-2.6413,-2.668,-2.6787,-2.6827,-2.7121,-2.7402,-2.7642,-2.7655,-2.7856,-2.811,-2.811,-2.8123,-2.8136,-2.8136,-2.8136,-2.8136,-2.8136,-2.8136,-2.8136,-2.7968,-2.4655,-2.1201,-2.1028,-1.7429,-1.4014,-1.3858,-1.3722,-1.3587,-1.3431,-1.3403,-1.3403,-1.3403,-1.3403,-1.3403,-1.3403,0.0,0.0,-1.3403,-1.3403,-1.3403,-1.3403,-1.3403,-1.3403,-1.3403,-0.9373,-0.67,-0.67,-0.252,0.0,0.0,0.0,0.0,0.0,0.0,0.0,0.0,0.0,0.0,0.0,0.0,0.0,0.0,0.0,0.0,0.0,0.0,0.0,0.0,0.0,0.0,0.0,0.0,0.0,0.0,0.0,0.0,0.0,-4.6301,-4.6301,-4.6301,-4.6301,-4.6301,-4.6301,-4.6301,-4.6301,-4.6301,-4.6301,-4.6301,-4.6301,-4.6301,-4.6301,-4.6451,-4.6803,-4.513,-4.3659,-4.2324,-4.0635,-3.9185,-3.8125,-3.7865,-3.7754,-3.791,-3.8184,-3.7797,-3.6719,-3.4601,-3.2641,-3.0515,-2.853,-2.7162,-2.6386,-2.6386,-2.6386,-2.6386,-2.6386,-2.6493,-2.6667,-2.6774,-2.6934,-2.7134,-2.7428,-2.7602,-2.7722,-2.7909,-2.8043,-2.8136,-2.8136,-2.8136,-2.8136,-2.8136,-2.8136,-2.8136,-2.8136,-2.8136,-2.8136,-2.8136,-2.485,-2.1221,-2.1221,-1.7712,-1.4177,-1.4021,-1.3865,-1.3722,-1.3573,-1.3464,-1.3403,-1.3403,-1.3403,-1.3403,-1.3403,0.0,-1.3403,-1.3403,-1.3403,-1.3403,-1.3403,-1.3403,-1.3403,-1.3403,-0.9373,-0.67,-0.67,-0.252,0.0,0.0,0.0,0.0,0.0,0.0,0.0,0.0,0.0,0.0,0.0,0.0,0.0,0.0,0.0,0.0,0.0,0.0,0.0,0.0,0.0,0.0,0.0,0.0,0.0,0.0,0.0,0.0,0.0,-4.6301,-4.6301,-4.6301,-4.6301,-4.6301,-4.6301,-4.6301,-4.6301,-4.6301,-4.6301,-4.6301,-4.6301,-4.6301,-4.5942,-4.5822,-4.6192,-4.4276,-4.2741,-4.2012,-4.0456,-3.8849,-3.75,-3.7891,-3.8125,-3.8125,-3.8418,-3.7639,-3.5497,-3.3549,-3.1437,-2.9293,-2.7305,-2.6386,-2.6386,-2.6386,-2.644,-2.6533,-2.6533,-2.6694,-2.6974,-2.7054,-2.7215,-2.7428,-2.7722,-2.7843,-2.7869,-2.807,-2.8136,-2.8136,-2.8136,-2.8136,-2.8136,-2.8136,-2.8136,-2.8136,-2.8136,-2.8136,-2.8136,-2.8136,-2.485,-2.1221,-2.1221,-1.7772,-1.4258,-1.4109,-1.3987,-1.3858,-1.3668,-1.3546,-1.3458,-1.341,-1.3403,-1.3403,-1.3403,-1.3403,-1.3403,-1.3403,-1.3403,-1.3403,-1.3403,-1.3403,-1.3403,-1.3403,-0.9373,-0.67,-0.67,-0.252,0.0,0.0,0.0,0.0,0.0,0.0,0.0,0.0,0.0,0.0,0.0,0.0,0.0,0.0,0.0,0.0,0.0,0.0,0.0,0.0,0.0,0.0,0.0,0.0,0.0,0.0,0.0,0.0,0.0,-4.6301,-4.6301,-4.6301,-4.6301,-4.6301,-4.6301,-4.6301,-4.6301,-4.6301,-4.6301,-4.6301,-4.6326,-4.6326,-4.513,-4.4389,-4.4389,-4.1706,-4.0034,-4.0494,-3.9309,-3.8379,-3.7949,-3.834,-3.8574,-3.8574,-3.8574,-3.7492,-3.5497,-3.3549,-3.1437,-2.9293,-2.7305,-2.6386,-2.6386,-2.6386,-2.6547,-2.6827,-2.6827,-2.7001,-2.7295,-2.7589,-2.7696,-2.7736,-2.803,-2.8136,-2.8136,-2.8136,-2.8136,-2.8136,-2.8136,-2.8136,-2.8136,-2.8136,-2.8136,-2.8136,-2.8136,-2.8136,-2.8136,-2.8136,-2.485,-2.1221,-2.1221,-1.7772,-1.4258,-1.4109,-1.4075,-1.3987,-1.3695,-1.3634,-1.3587,-1.3431,-1.3403,-1.3403,-1.3403,-1.3403,-1.3403,-1.3403,-1.3403,-1.3403,-1.3403,-1.3403,-1.3403,-1.3403,-0.9373,-0.67,-0.67,-0.252,0.0,0.0,0.0,0.0,0.0,0.0,0.0,0.0,0.0,0.0,0.0,0.0,0.0,0.0,0.0,0.0,0.0,0.0,0.0,0.0,0.0,0.0,0.0,0.0,0.0,0.0,0.0,0.0,0.0,-4.6301,-4.6301,-4.6301,-4.6301,-4.6301,-4.6301,-4.6301,-4.6301,-4.6301,-4.6301,-4.6652,-4.6364,-4.5078,-4.5007,-4.456,-4.3705,-4.1575,-3.9956,-3.9186,-3.8787,-3.8516,-3.8379,-3.8496,-3.8574,-3.8574,-3.8574,-3.6904,-3.3398,-3.2792,-3.0669,-2.7305,-2.6702,-2.6386,-2.64,-2.66,-2.6747,-2.6841,-2.7041,-2.7308,-2.7575,-2.7669,-2.7829,-2.8016,-2.811,-2.8136,-2.8136,-2.8136,-2.8136,-2.8136,-2.8136,-2.8136,-2.8136,-2.8136,-2.8136,-2.8136,-2.8136,-2.8136,-2.8136,-2.8136,-2.6066,-2.3298,-2.1566,-1.7772,-1.4285,-1.4245,-1.415,-1.4048,-1.396,-1.3777,-1.3614,-1.3566,-1.3471,-1.3403,-1.3403,-1.3403,-1.3403,-1.3403,-1.3403,-1.3403,-1.3403,-1.3403,-1.3403,-1.3403,-0.9373,-0.67,-0.67,-0.252,0.0,0.0,0.0,0.0,0.0,0.0,0.0,0.0,0.0,0.0,0.0,0.0,0.0,0.0,0.0,0.0,0.0,0.0,0.0,0.0,0.0,0.0,0.0,0.0,0.0,0.0,0.0,0.0,0.0,-4.6301,-4.6301,-4.6301,-4.6301,-4.6301,-4.6301,-4.6301,-4.6301,-4.6401,-4.6602,-4.6291,-4.5643,-4.4801,-4.3955,-4.3041,-4.2267,-4.0682,-3.9392,-3.87,-3.8574,-3.8574,-3.8574,-3.8574,-3.8574,-3.8574,-3.8574,-3.659,-3.2505,-3.2505,-3.0361,-2.6386,-2.6507,-2.656,-2.6573,-2.6867,-2.7068,-2.7175,-2.7362,-2.7602,-2.7869,-2.7869,-2.7989,-2.8136,-2.8136,-2.8136,-2.8136,-2.8136,-2.8136,-2.8136,-2.8136,-2.8136,-2.8136,-2.8136,-2.8136,-2.8136,-2.8136,-2.8136,-2.8136,-2.8136,-2.5884,-2.2955,-2.1566,-1.8462,-1.5513,-1.4476,-1.4231,-1.4143,-1.4082,-1.3926,-1.377,-1.3648,-1.3553,-1.3471,-1.341,-1.3403,-1.3403,-1.3403,-1.3403,-1.3403,-1.3403,-1.3403,-1.3403,-1.3403,-0.9373,-0.6035,-0.4195,-0.1513,0.0,0.0,0.0,0.0,0.0,0.0,0.0,0.0,0.0,0.0,0.0,0.0,0.0,0.0,0.0,0.0,0.0,0.0,0.0,0.0,0.0,0.0,0.0,0.0,0.0,0.0,0.0,0.0,0.0,-4.6301,-4.6301,-4.6301,-4.6301,-4.6301,-4.6301,-4.6301,-4.6351,-4.6431,-4.6809,-4.5518,-4.4569,-4.4783,-4.232,-4.0578,-4.0298,-3.9309,-3.8574,-3.8574,-3.8574,-3.8574,-3.8574,-3.8574,-3.8574,-3.8263,-3.8263,-3.6442,-3.2505,-3.2353,-3.0222,-2.6426,-2.6694,-2.6841,-2.6867,-2.7175,-2.7455,-2.7696,-2.7722,-2.7896,-2.8136,-2.8136,-2.8136,-2.8136,-2.8136,-2.8136,-2.8136,-2.8136,-2.8136,-2.8136,-2.8136,-2.8136,-2.8136,-2.8136,-2.8136,-2.8136,-2.8136,-2.8136,-2.8136,-2.8136,-2.485,-2.1394,-2.1221,-1.9488,-1.7247,-1.4822,-1.4299,-1.4258,-1.4122,-1.4082,-1.3987,-1.3715,-1.3648,-1.3587,-1.3444,-1.341,-1.3403,-1.3403,-1.3403,-1.3403,-1.3403,-1.3403,-1.3403,-1.3403,-0.9373,-0.4863,-0.0337,0.0,0.0,0.0,0.0,0.0,0.0,0.0,0.0,0.0,0.0,0.0,0.0,0.0,0.0,0.0,0.0,0.0,0.0,0.0,0.0,0.0,0.0,0.0,0.0,0.0,0.0,0.0,0.0,0.0,0.0,-4.6301,-4.6301,-4.6301,-4.6301,-4.6301,-4.6301,-4.6301,-4.6677,-4.6463,-4.517,-4.5357,-4.4573,-4.1841,-4.1325,-4.0492,-3.9122,-3.8806,-3.8574,-3.8574,-3.8574,-3.8574,-3.8574,-3.8574,-3.7805,-3.6275,-3.6109,-3.4918,-3.2505,-3.0823,-2.8959,-2.6734,-2.6787,-2.6947,-2.7175,-2.7468,-2.7642,-2.7709,-2.7949,-2.8083,-2.8136,-2.8136,-2.8136,-2.8136,-2.8136,-2.8136,-2.8136,-2.8136,-2.8136,-2.8136,-2.8136,-2.8136,-2.8136,-2.8136,-2.8136,-2.8136,-2.8136,-2.8136,-2.8136,-2.8136,-2.6066,-2.347,-2.1739,-1.9488,-1.7247,-1.4822,-1.4299,-1.4292,-1.4258,-1.4156,-1.4055,-1.3987,-1.379,-1.362,-1.3587,-1.3478,-1.3403,-1.3403,-1.3403,-1.3403,-1.3403,-1.3403,-1.3403,-1.3403,-0.9373,-0.4863,-0.0337,0.0,0.0,0.0,0.0,0.0,0.0,0.0,0.0,0.0,0.0,0.0,0.0,0.0,0.0,0.0,0.0,0.0,0.0,0.0,0.0,0.0,0.0,0.0,0.0,0.0,0.0,0.0,0.0,0.0,0.0,-4.6301,-4.6301,-4.6301,-4.6301,-4.6527,-4.6702,-4.6702,-4.639,-4.5906,-4.5229,-4.4107,-4.2764,-4.1088,-4.037,-3.9674,-3.872,-3.8574,-3.8574,-3.8574,-3.8574,-3.8574,-3.8574,-3.8574,-3.7658,-3.5497,-3.4601,-3.3095,-3.0977,-3.0065,-2.8691,-2.6827,-2.7108,-2.7321,-2.7482,-2.7776,-2.7909,-2.7923,-2.8083,-2.8136,-2.8136,-2.8136,-2.8136,-2.8136,-2.8136,-2.8136,-2.8136,-2.8136,-2.8136,-2.8136,-2.8136,-2.8136,-2.8136,-2.8136,-2.8136,-2.8136,-2.8136,-2.8136,-2.8136,-2.8136,-2.5714,-2.2783,-2.1566,-1.8627,-1.5858,-1.4646,-1.4299,-1.4299,-1.4299,-1.4238,-1.4156,-1.4089,-1.3946,-1.3797,-1.3654,-1.3559,-1.3485,-1.341,-1.3403,-1.3403,-1.3403,-1.3403,-1.2899,-1.189,-0.8707,-0.5198,-0.1849,-0.0673,0.0,0.0,0.0,0.0,0.0,0.0,0.0,0.0,0.0,0.0,0.0,0.0,0.0,0.0,0.0,0.0,0.0,0.0,0.0,0.0,0.0,0.0,0.0,0.0,0.0,0.0,0.0,0.0,0.0,-4.6301,-4.6301,-4.6351,-4.6426,-4.6828,-4.7032,-4.686,-4.6027,-4.5326,-4.5069,-4.2491,-4.0625,-4.088,-3.955,-3.8574,-3.8574,-3.8574,-3.8574,-3.8574,-3.8574,-3.8574,-3.8574,-3.8263,-3.7032,-3.505,-3.3011,-3.1209,-2.9523,-2.9336,-2.8588,-2.6987,-2.7468,-2.7722,-2.7789,-2.803,-2.8136,-2.8136,-2.8136,-2.8136,-2.8136,-2.8136,-2.8136,-2.8136,-2.8136,-2.8136,-2.8136,-2.8136,-2.8136,-2.8136,-2.8136,-2.8136,-2.8136,-2.8136,-2.8136,-2.8136,-2.8136,-2.8136,-2.8136,-2.7799,-2.4508,-2.1048,-2.0702,-1.7422,-1.4299,-1.4299,-1.4299,-1.4299,-1.4299,-1.4299,-1.4265,-1.4136,-1.4089,-1.3994,-1.3743,-1.3661,-1.3587,-1.3458,-1.3417,-1.3403,-1.3403,-1.3403,-1.2561,-1.0211,-0.804,-0.57,-0.3524,-0.1178,0.0,0.0,0.0,0.0,0.0,0.0,0.0,0.0,0.0,0.0,0.0,0.0,0.0,0.0,0.0,0.0,0.0,0.0,0.0,0.0,0.0,0.0,0.0,0.0,0.0,0.0,0.0,0.0,0.0,-4.6301,-4.6301,-4.6451,-4.6928,-4.7079,-4.6762,-4.5645,-4.5763,-4.4781,-4.1581,-4.127,-4.0574,-3.9116,-3.872,-3.8574,-3.8574,-3.8574,-3.8574,-3.8574,-3.8574,-3.8574,-3.8574,-3.6885,-3.49,-3.2961,-3.1121,-3.0182,-2.9867,-2.8053,-2.7405,-2.7575,-2.7655,-2.7829,-2.8083,-2.8123,-2.8136,-2.8136,-2.8136,-2.8136,-2.8136,-2.8136,-2.8136,-2.8136,-2.8136,-2.8136,-2.8136,-2.8136,-2.8136,-2.8136,-2.8136,-2.8136,-2.8136,-2.8136,-2.8136,-2.8136,-2.8136,-2.8136,-2.7799,-2.5726,-2.3298,-2.0702,-1.8802,-1.6202,-1.4299,-1.4299,-1.4299,-1.4299,-1.4299,-1.4299,-1.4292,-1.4272,-1.4163,-1.4061,-1.4021,-1.3797,-1.362,-1.36,-1.3485,-1.3403,-1.3403,-1.3403,-1.2561,-1.0377,-0.804,-0.57,-0.3524,-0.1346,0.0,0.0,0.0,0.0,0.0,0.0,0.0,0.0,0.0,0.0,0.0,0.0,0.0,0.0,0.0,0.0,0.0,0.0,0.0,0.0,0.0,0.0,0.0,0.0,0.0,0.0,0.0,0.0,0.0,-4.6301,-4.6552,-4.6853,-4.7104,-4.7631,-4.7455,-4.5834,-4.5232,-4.3916,-4.1313,-4.0248,-3.955,-3.872,-3.8574,-3.8574,-3.8574,-3.8574,-3.8574,-3.8574,-3.8574,-3.8117,-3.6885,-3.5961,-3.4087,-3.1105,-3.0338,-2.95,-2.8748,-2.7785,-2.7442,-2.7696,-2.7869,-2.8016,-2.8136,-2.8136,-2.8136,-2.8136,-2.8136,-2.8136,-2.8136,-2.8136,-2.8136,-2.8136,-2.8136,-2.8136,-2.8136,-2.8136,-2.8136,-2.8136,-2.8136,-2.8136,-2.8136,-2.8136,-2.8136,-2.8136,-2.8136,-2.8136,-2.763,-2.5373,-2.2955,-2.0702,-1.8453,-1.6034,-1.4299,-1.4299,-1.4299,-1.4299,-1.4299,-1.4299,-1.4299,-1.4299,-1.4245,-1.417,-1.4089,-1.396,-1.3817,-1.3654,-1.3573,-1.3498,-1.341,-1.3403,-1.3065,-1.2056,-0.9878,-0.7706,-0.5365,-0.3191,-0.1346,0.0,0.0,0.0,0.0,0.0,0.0,0.0,0.0,0.0,0.0,0.0,0.0,0.0,0.0,0.0,0.0,0.0,0.0,0.0,0.0,0.0,0.0,0.0,0.0,0.0,0.0,0.0,0.0]}]]